<?xml version="1.0" encoding="UTF-8" standalone="no" ?>
<gpx xmlns="http://www.topografix.com/GPX/1/1" xmlns:xsi="http://www.w3.org/2001/XMLSchema-instance" xsi:schemaLocation="http://www.topografix.com/GPX/1/1 http://www.topografix.com/GPX/1/1/gpx.xsd" version="1.1" creator="VisuGPX - https://www.visugpx.com">
  <metadata>
    <name>2019-05-10 16:36:24</name>
    <desc><![CDATA[

]]></desc>
  </metadata>
  <trk>
    <name><![CDATA[2019-05-10 16:36:24]]></name>
    <trkseg>
      <trkpt lat="38.76829" lon="-9.09972">
        <ele>13.6</ele>
        <time>2019-05-10T08:01:03Z</time>
      </trkpt>
      <trkpt lat="38.76834" lon="-9.09965">
        <ele>13.12</ele>
        <time>2019-05-10T08:01:18Z</time>
      </trkpt>
      <trkpt lat="38.76833" lon="-9.09967">
        <ele>13.12</ele>
        <time>2019-05-10T08:01:23Z</time>
      </trkpt>
      <trkpt lat="38.76834" lon="-9.09963">
        <ele>13.12</ele>
        <time>2019-05-10T08:01:36Z</time>
      </trkpt>
      <trkpt lat="38.76844" lon="-9.09952">
        <ele>12.15</ele>
        <time>2019-05-10T08:01:52Z</time>
      </trkpt>
      <trkpt lat="38.76844" lon="-9.09948">
        <ele>12.63</ele>
        <time>2019-05-10T08:01:58Z</time>
      </trkpt>
      <trkpt lat="38.76838" lon="-9.0994">
        <ele>12.63</ele>
        <time>2019-05-10T08:02:11Z</time>
      </trkpt>
      <trkpt lat="38.76834" lon="-9.0995">
        <ele>13.12</ele>
        <time>2019-05-10T08:02:18Z</time>
      </trkpt>
      <trkpt lat="38.76796" lon="-9.09651">
        <ele>12.63</ele>
        <time>2019-05-10T08:03:19Z</time>
      </trkpt>
      <trkpt lat="38.76846" lon="-9.09709">
        <ele>12.15</ele>
        <time>2019-05-10T08:03:23Z</time>
      </trkpt>
      <trkpt lat="38.76844" lon="-9.09707">
        <ele>12.63</ele>
        <time>2019-05-10T08:03:35Z</time>
      </trkpt>
      <trkpt lat="38.76846" lon="-9.09702">
        <ele>12.15</ele>
        <time>2019-05-10T08:03:41Z</time>
      </trkpt>
      <trkpt lat="38.76843" lon="-9.097">
        <ele>12.63</ele>
        <time>2019-05-10T08:03:50Z</time>
      </trkpt>
      <trkpt lat="38.76843" lon="-9.09688">
        <ele>12.15</ele>
        <time>2019-05-10T08:04:03Z</time>
      </trkpt>
      <trkpt lat="38.76839" lon="-9.0968">
        <ele>12.15</ele>
        <time>2019-05-10T08:04:13Z</time>
      </trkpt>
      <trkpt lat="38.76827" lon="-9.09682">
        <ele>11.19</ele>
        <time>2019-05-10T08:04:26Z</time>
      </trkpt>
      <trkpt lat="38.76826" lon="-9.09681">
        <ele>12.15</ele>
        <time>2019-05-10T08:04:30Z</time>
      </trkpt>
      <trkpt lat="38.76824" lon="-9.09681">
        <ele>12.63</ele>
        <time>2019-05-10T08:04:31Z</time>
      </trkpt>
      <trkpt lat="38.76813" lon="-9.0968">
        <ele>12.15</ele>
        <time>2019-05-10T08:04:45Z</time>
      </trkpt>
      <trkpt lat="38.76806" lon="-9.09674">
        <ele>12.15</ele>
        <time>2019-05-10T08:04:56Z</time>
      </trkpt>
      <trkpt lat="38.76803" lon="-9.09691">
        <ele>12.63</ele>
        <time>2019-05-10T08:05:09Z</time>
      </trkpt>
      <trkpt lat="38.76801" lon="-9.09691">
        <ele>12.63</ele>
        <time>2019-05-10T08:05:23Z</time>
      </trkpt>
      <trkpt lat="38.76799" lon="-9.09685">
        <ele>12.63</ele>
        <time>2019-05-10T08:05:36Z</time>
      </trkpt>
      <trkpt lat="38.76794" lon="-9.09678">
        <ele>12.63</ele>
        <time>2019-05-10T08:05:46Z</time>
      </trkpt>
      <trkpt lat="38.76791" lon="-9.09679">
        <ele>12.63</ele>
        <time>2019-05-10T08:05:56Z</time>
      </trkpt>
      <trkpt lat="38.76788" lon="-9.09674">
        <ele>13.12</ele>
        <time>2019-05-10T08:06:08Z</time>
      </trkpt>
      <trkpt lat="38.76761" lon="-9.09627">
        <ele>12.15</ele>
        <time>2019-05-10T08:06:29Z</time>
      </trkpt>
      <trkpt lat="38.76766" lon="-9.09622">
        <ele>12.63</ele>
        <time>2019-05-10T08:06:46Z</time>
      </trkpt>
      <trkpt lat="38.7677" lon="-9.09599">
        <ele>12.15</ele>
        <time>2019-05-10T08:07:00Z</time>
      </trkpt>
      <trkpt lat="38.76772" lon="-9.09578">
        <ele>12.15</ele>
        <time>2019-05-10T08:07:17Z</time>
      </trkpt>
      <trkpt lat="38.76771" lon="-9.09556">
        <ele>12.15</ele>
        <time>2019-05-10T08:07:41Z</time>
      </trkpt>
      <trkpt lat="38.76765" lon="-9.09514">
        <ele>11.67</ele>
        <time>2019-05-10T08:08:00Z</time>
      </trkpt>
      <trkpt lat="38.76747" lon="-9.09464">
        <ele>8.79</ele>
        <time>2019-05-10T08:08:11Z</time>
      </trkpt>
      <trkpt lat="38.76743" lon="-9.09459">
        <ele>7.35</ele>
        <time>2019-05-10T08:08:17Z</time>
      </trkpt>
      <trkpt lat="38.76741" lon="-9.09457">
        <ele>7.35</ele>
        <time>2019-05-10T08:08:29Z</time>
      </trkpt>
      <trkpt lat="38.76738" lon="-9.09458">
        <ele>7.35</ele>
        <time>2019-05-10T08:08:33Z</time>
      </trkpt>
      <trkpt lat="38.76736" lon="-9.09456">
        <ele>7.35</ele>
        <time>2019-05-10T08:08:35Z</time>
      </trkpt>
      <trkpt lat="38.76735" lon="-9.09451">
        <ele>7.83</ele>
        <time>2019-05-10T08:08:41Z</time>
      </trkpt>
      <trkpt lat="38.76739" lon="-9.09424">
        <ele>7.35</ele>
        <time>2019-05-10T08:08:56Z</time>
      </trkpt>
      <trkpt lat="38.7675" lon="-9.09435">
        <ele>7.35</ele>
        <time>2019-05-10T08:09:13Z</time>
      </trkpt>
      <trkpt lat="38.76764" lon="-9.09453">
        <ele>7.83</ele>
        <time>2019-05-10T08:09:28Z</time>
      </trkpt>
      <trkpt lat="38.76773" lon="-9.09438">
        <ele>7.83</ele>
        <time>2019-05-10T08:09:41Z</time>
      </trkpt>
      <trkpt lat="38.76773" lon="-9.09433">
        <ele>7.83</ele>
        <time>2019-05-10T08:09:46Z</time>
      </trkpt>
      <trkpt lat="38.76774" lon="-9.09429">
        <ele>7.83</ele>
        <time>2019-05-10T08:09:49Z</time>
      </trkpt>
      <trkpt lat="38.76777" lon="-9.09413">
        <ele>7.83</ele>
        <time>2019-05-10T08:10:01Z</time>
      </trkpt>
      <trkpt lat="38.76779" lon="-9.09393">
        <ele>7.35</ele>
        <time>2019-05-10T08:10:14Z</time>
      </trkpt>
      <trkpt lat="38.7678" lon="-9.09384">
        <ele>7.83</ele>
        <time>2019-05-10T08:10:20Z</time>
      </trkpt>
      <trkpt lat="38.7677" lon="-9.09361">
        <ele>7.35</ele>
        <time>2019-05-10T08:10:36Z</time>
      </trkpt>
      <trkpt lat="38.76771" lon="-9.09347">
        <ele>7.35</ele>
        <time>2019-05-10T08:10:48Z</time>
      </trkpt>
      <trkpt lat="38.76773" lon="-9.09324">
        <ele>7.83</ele>
        <time>2019-05-10T08:11:03Z</time>
      </trkpt>
      <trkpt lat="38.76774" lon="-9.09305">
        <ele>7.35</ele>
        <time>2019-05-10T08:11:17Z</time>
      </trkpt>
      <trkpt lat="38.76776" lon="-9.09284">
        <ele>7.83</ele>
        <time>2019-05-10T08:11:30Z</time>
      </trkpt>
      <trkpt lat="38.76776" lon="-9.0926">
        <ele>7.35</ele>
        <time>2019-05-10T08:11:46Z</time>
      </trkpt>
      <trkpt lat="38.76775" lon="-9.09242">
        <ele>7.83</ele>
        <time>2019-05-10T08:11:58Z</time>
      </trkpt>
      <trkpt lat="38.76774" lon="-9.09225">
        <ele>7.35</ele>
        <time>2019-05-10T08:12:10Z</time>
      </trkpt>
      <trkpt lat="38.7677" lon="-9.0921">
        <ele>6.87</ele>
        <time>2019-05-10T08:12:20Z</time>
      </trkpt>
      <trkpt lat="38.76771" lon="-9.09189">
        <ele>7.35</ele>
        <time>2019-05-10T08:12:35Z</time>
      </trkpt>
      <trkpt lat="38.7677" lon="-9.09183">
        <ele>7.35</ele>
        <time>2019-05-10T08:12:40Z</time>
      </trkpt>
      <trkpt lat="38.76768" lon="-9.09179">
        <ele>6.39</ele>
        <time>2019-05-10T08:12:42Z</time>
      </trkpt>
      <trkpt lat="38.76766" lon="-9.09158">
        <ele>6.87</ele>
        <time>2019-05-10T08:12:56Z</time>
      </trkpt>
      <trkpt lat="38.76761" lon="-9.09149">
        <ele>6.39</ele>
        <time>2019-05-10T08:13:01Z</time>
      </trkpt>
      <trkpt lat="38.76759" lon="-9.09131">
        <ele>6.39</ele>
        <time>2019-05-10T08:13:16Z</time>
      </trkpt>
      <trkpt lat="38.76752" lon="-9.09124">
        <ele>6.87</ele>
        <time>2019-05-10T08:13:27Z</time>
      </trkpt>
      <trkpt lat="38.76746" lon="-9.09132">
        <ele>6.39</ele>
        <time>2019-05-10T08:13:43Z</time>
      </trkpt>
      <trkpt lat="38.76753" lon="-9.09129">
        <ele>6.39</ele>
        <time>2019-05-10T08:13:55Z</time>
      </trkpt>
      <trkpt lat="38.76756" lon="-9.09128">
        <ele>6.87</ele>
        <time>2019-05-10T08:13:57Z</time>
      </trkpt>
      <trkpt lat="38.76777" lon="-9.09131">
        <ele>6.39</ele>
        <time>2019-05-10T08:14:11Z</time>
      </trkpt>
      <trkpt lat="38.76794" lon="-9.0913">
        <ele>5.91</ele>
        <time>2019-05-10T08:14:25Z</time>
      </trkpt>
      <trkpt lat="38.76811" lon="-9.0913">
        <ele>6.39</ele>
        <time>2019-05-10T08:14:37Z</time>
      </trkpt>
      <trkpt lat="38.76819" lon="-9.09129">
        <ele>6.39</ele>
        <time>2019-05-10T08:14:51Z</time>
      </trkpt>
      <trkpt lat="38.76835" lon="-9.09207">
        <ele>6.39</ele>
        <time>2019-05-10T08:15:09Z</time>
      </trkpt>
      <trkpt lat="38.76848" lon="-9.09205">
        <ele>6.39</ele>
        <time>2019-05-10T08:15:21Z</time>
      </trkpt>
      <trkpt lat="38.76856" lon="-9.09213">
        <ele>6.39</ele>
        <time>2019-05-10T08:15:35Z</time>
      </trkpt>
      <trkpt lat="38.76856" lon="-9.09214">
        <ele>6.39</ele>
        <time>2019-05-10T08:15:51Z</time>
      </trkpt>
      <trkpt lat="38.76855" lon="-9.09206">
        <ele>5.91</ele>
        <time>2019-05-10T08:16:03Z</time>
      </trkpt>
      <trkpt lat="38.76859" lon="-9.09203">
        <ele>5.91</ele>
        <time>2019-05-10T08:16:20Z</time>
      </trkpt>
      <trkpt lat="38.76862" lon="-9.09203">
        <ele>6.39</ele>
        <time>2019-05-10T08:16:38Z</time>
      </trkpt>
      <trkpt lat="38.76876" lon="-9.09203">
        <ele>6.39</ele>
        <time>2019-05-10T08:16:54Z</time>
      </trkpt>
      <trkpt lat="38.76875" lon="-9.09197">
        <ele>6.39</ele>
        <time>2019-05-10T08:17:08Z</time>
      </trkpt>
      <trkpt lat="38.76872" lon="-9.09201">
        <ele>5.91</ele>
        <time>2019-05-10T08:17:22Z</time>
      </trkpt>
      <trkpt lat="38.76886" lon="-9.09199">
        <ele>5.91</ele>
        <time>2019-05-10T08:17:34Z</time>
      </trkpt>
      <trkpt lat="38.7689" lon="-9.09193">
        <ele>5.42</ele>
        <time>2019-05-10T08:17:41Z</time>
      </trkpt>
      <trkpt lat="38.76898" lon="-9.09194">
        <ele>4.94</ele>
        <time>2019-05-10T08:17:58Z</time>
      </trkpt>
      <trkpt lat="38.76914" lon="-9.0919">
        <ele>5.42</ele>
        <time>2019-05-10T08:18:14Z</time>
      </trkpt>
      <trkpt lat="38.7693" lon="-9.09189">
        <ele>5.42</ele>
        <time>2019-05-10T08:18:30Z</time>
      </trkpt>
      <trkpt lat="38.76945" lon="-9.09187">
        <ele>4.46</ele>
        <time>2019-05-10T08:18:44Z</time>
      </trkpt>
      <trkpt lat="38.76955" lon="-9.09187">
        <ele>4.94</ele>
        <time>2019-05-10T08:18:58Z</time>
      </trkpt>
      <trkpt lat="38.76974" lon="-9.09186">
        <ele>4.94</ele>
        <time>2019-05-10T08:19:14Z</time>
      </trkpt>
      <trkpt lat="38.76993" lon="-9.09184">
        <ele>4.46</ele>
        <time>2019-05-10T08:19:30Z</time>
      </trkpt>
      <trkpt lat="38.77009" lon="-9.09183">
        <ele>4.46</ele>
        <time>2019-05-10T08:19:46Z</time>
      </trkpt>
      <trkpt lat="38.77026" lon="-9.0918">
        <ele>4.46</ele>
        <time>2019-05-10T08:20:01Z</time>
      </trkpt>
      <trkpt lat="38.7704" lon="-9.09182">
        <ele>4.46</ele>
        <time>2019-05-10T08:20:15Z</time>
      </trkpt>
      <trkpt lat="38.77057" lon="-9.09185">
        <ele>4.46</ele>
        <time>2019-05-10T08:20:30Z</time>
      </trkpt>
      <trkpt lat="38.7707" lon="-9.09189">
        <ele>3.98</ele>
        <time>2019-05-10T08:20:43Z</time>
      </trkpt>
      <trkpt lat="38.77074" lon="-9.09192">
        <ele>3.98</ele>
        <time>2019-05-10T08:20:57Z</time>
      </trkpt>
      <trkpt lat="38.77077" lon="-9.09188">
        <ele>4.46</ele>
        <time>2019-05-10T08:21:14Z</time>
      </trkpt>
      <trkpt lat="38.77085" lon="-9.09187">
        <ele>4.46</ele>
        <time>2019-05-10T08:21:26Z</time>
      </trkpt>
      <trkpt lat="38.77093" lon="-9.09187">
        <ele>3.98</ele>
        <time>2019-05-10T08:21:41Z</time>
      </trkpt>
      <trkpt lat="38.77106" lon="-9.09187">
        <ele>3.98</ele>
        <time>2019-05-10T08:21:54Z</time>
      </trkpt>
      <trkpt lat="38.77123" lon="-9.09186">
        <ele>3.98</ele>
        <time>2019-05-10T08:22:09Z</time>
      </trkpt>
      <trkpt lat="38.77138" lon="-9.09186">
        <ele>3.98</ele>
        <time>2019-05-10T08:22:22Z</time>
      </trkpt>
      <trkpt lat="38.77155" lon="-9.09183">
        <ele>3.5</ele>
        <time>2019-05-10T08:22:36Z</time>
      </trkpt>
      <trkpt lat="38.77161" lon="-9.09181">
        <ele>3.98</ele>
        <time>2019-05-10T08:22:41Z</time>
      </trkpt>
      <trkpt lat="38.77179" lon="-9.09179">
        <ele>3.98</ele>
        <time>2019-05-10T08:22:56Z</time>
      </trkpt>
      <trkpt lat="38.77194" lon="-9.09176">
        <ele>3.5</ele>
        <time>2019-05-10T08:23:08Z</time>
      </trkpt>
      <trkpt lat="38.77214" lon="-9.09174">
        <ele>3.5</ele>
        <time>2019-05-10T08:23:26Z</time>
      </trkpt>
      <trkpt lat="38.77218" lon="-9.09172">
        <ele>3.5</ele>
        <time>2019-05-10T08:23:31Z</time>
      </trkpt>
      <trkpt lat="38.77233" lon="-9.09175">
        <ele>3.98</ele>
        <time>2019-05-10T08:23:46Z</time>
      </trkpt>
      <trkpt lat="38.77252" lon="-9.09176">
        <ele>3.5</ele>
        <time>2019-05-10T08:24:03Z</time>
      </trkpt>
      <trkpt lat="38.77266" lon="-9.09175">
        <ele>3.5</ele>
        <time>2019-05-10T08:24:17Z</time>
      </trkpt>
      <trkpt lat="38.77282" lon="-9.09172">
        <ele>3.5</ele>
        <time>2019-05-10T08:24:33Z</time>
      </trkpt>
      <trkpt lat="38.77297" lon="-9.09167">
        <ele>3.5</ele>
        <time>2019-05-10T08:24:48Z</time>
      </trkpt>
      <trkpt lat="38.77321" lon="-9.09165">
        <ele>3.5</ele>
        <time>2019-05-10T08:25:05Z</time>
      </trkpt>
      <trkpt lat="38.77337" lon="-9.09162">
        <ele>3.98</ele>
        <time>2019-05-10T08:25:20Z</time>
      </trkpt>
      <trkpt lat="38.77345" lon="-9.09158">
        <ele>2.54</ele>
        <time>2019-05-10T08:25:33Z</time>
      </trkpt>
      <trkpt lat="38.77349" lon="-9.09155">
        <ele>3.02</ele>
        <time>2019-05-10T08:25:51Z</time>
      </trkpt>
      <trkpt lat="38.77367" lon="-9.09159">
        <ele>3.02</ele>
        <time>2019-05-10T08:26:05Z</time>
      </trkpt>
      <trkpt lat="38.77386" lon="-9.09159">
        <ele>3.5</ele>
        <time>2019-05-10T08:26:21Z</time>
      </trkpt>
      <trkpt lat="38.774" lon="-9.09161">
        <ele>3.02</ele>
        <time>2019-05-10T08:26:35Z</time>
      </trkpt>
      <trkpt lat="38.77405" lon="-9.09161">
        <ele>3.5</ele>
        <time>2019-05-10T08:26:39Z</time>
      </trkpt>
      <trkpt lat="38.77424" lon="-9.09159">
        <ele>3.5</ele>
        <time>2019-05-10T08:26:55Z</time>
      </trkpt>
      <trkpt lat="38.77439" lon="-9.09159">
        <ele>3.02</ele>
        <time>2019-05-10T08:27:09Z</time>
      </trkpt>
      <trkpt lat="38.77442" lon="-9.09159">
        <ele>3.02</ele>
        <time>2019-05-10T08:27:12Z</time>
      </trkpt>
      <trkpt lat="38.77458" lon="-9.09166">
        <ele>3.5</ele>
        <time>2019-05-10T08:27:26Z</time>
      </trkpt>
      <trkpt lat="38.77464" lon="-9.09165">
        <ele>3.5</ele>
        <time>2019-05-10T08:27:39Z</time>
      </trkpt>
      <trkpt lat="38.77468" lon="-9.09167">
        <ele>3.02</ele>
        <time>2019-05-10T08:27:51Z</time>
      </trkpt>
      <trkpt lat="38.77475" lon="-9.09167">
        <ele>3.5</ele>
        <time>2019-05-10T08:28:04Z</time>
      </trkpt>
      <trkpt lat="38.77479" lon="-9.09164">
        <ele>3.5</ele>
        <time>2019-05-10T08:28:09Z</time>
      </trkpt>
      <trkpt lat="38.77484" lon="-9.09161">
        <ele>3.5</ele>
        <time>2019-05-10T08:28:14Z</time>
      </trkpt>
      <trkpt lat="38.77488" lon="-9.09156">
        <ele>3.5</ele>
        <time>2019-05-10T08:28:19Z</time>
      </trkpt>
      <trkpt lat="38.77499" lon="-9.09149">
        <ele>3.5</ele>
        <time>2019-05-10T08:28:30Z</time>
      </trkpt>
      <trkpt lat="38.77509" lon="-9.09142">
        <ele>3.5</ele>
        <time>2019-05-10T08:28:41Z</time>
      </trkpt>
      <trkpt lat="38.7753" lon="-9.0914">
        <ele>3.5</ele>
        <time>2019-05-10T08:28:56Z</time>
      </trkpt>
      <trkpt lat="38.77531" lon="-9.09139">
        <ele>3.5</ele>
        <time>2019-05-10T08:28:58Z</time>
      </trkpt>
      <trkpt lat="38.77553" lon="-9.09137">
        <ele>3.02</ele>
        <time>2019-05-10T08:29:15Z</time>
      </trkpt>
      <trkpt lat="38.77559" lon="-9.09137">
        <ele>3.5</ele>
        <time>2019-05-10T08:29:20Z</time>
      </trkpt>
      <trkpt lat="38.77573" lon="-9.09136">
        <ele>3.02</ele>
        <time>2019-05-10T08:29:33Z</time>
      </trkpt>
      <trkpt lat="38.77592" lon="-9.09136">
        <ele>3.5</ele>
        <time>2019-05-10T08:29:49Z</time>
      </trkpt>
      <trkpt lat="38.77601" lon="-9.09134">
        <ele>2.54</ele>
        <time>2019-05-10T08:30:00Z</time>
      </trkpt>
      <trkpt lat="38.77617" lon="-9.09132">
        <ele>3.02</ele>
        <time>2019-05-10T08:30:16Z</time>
      </trkpt>
      <trkpt lat="38.77623" lon="-9.09132">
        <ele>3.02</ele>
        <time>2019-05-10T08:30:34Z</time>
      </trkpt>
      <trkpt lat="38.77635" lon="-9.09131">
        <ele>3.02</ele>
        <time>2019-05-10T08:30:52Z</time>
      </trkpt>
      <trkpt lat="38.77649" lon="-9.09131">
        <ele>3.02</ele>
        <time>2019-05-10T08:31:05Z</time>
      </trkpt>
      <trkpt lat="38.77666" lon="-9.09128">
        <ele>3.5</ele>
        <time>2019-05-10T08:31:20Z</time>
      </trkpt>
      <trkpt lat="38.77684" lon="-9.09128">
        <ele>3.5</ele>
        <time>2019-05-10T08:31:35Z</time>
      </trkpt>
      <trkpt lat="38.77705" lon="-9.09126">
        <ele>3.02</ele>
        <time>2019-05-10T08:31:51Z</time>
      </trkpt>
      <trkpt lat="38.7772" lon="-9.09125">
        <ele>3.5</ele>
        <time>2019-05-10T08:32:05Z</time>
      </trkpt>
      <trkpt lat="38.77737" lon="-9.09126">
        <ele>3.02</ele>
        <time>2019-05-10T08:32:20Z</time>
      </trkpt>
      <trkpt lat="38.7774" lon="-9.09126">
        <ele>3.02</ele>
        <time>2019-05-10T08:32:23Z</time>
      </trkpt>
      <trkpt lat="38.77748" lon="-9.09125">
        <ele>3.02</ele>
        <time>2019-05-10T08:32:36Z</time>
      </trkpt>
      <trkpt lat="38.77767" lon="-9.09123">
        <ele>3.02</ele>
        <time>2019-05-10T08:32:52Z</time>
      </trkpt>
      <trkpt lat="38.77786" lon="-9.09121">
        <ele>3.5</ele>
        <time>2019-05-10T08:33:08Z</time>
      </trkpt>
      <trkpt lat="38.77792" lon="-9.0912">
        <ele>3.02</ele>
        <time>2019-05-10T08:33:14Z</time>
      </trkpt>
      <trkpt lat="38.77805" lon="-9.09118">
        <ele>3.02</ele>
        <time>2019-05-10T08:33:24Z</time>
      </trkpt>
      <trkpt lat="38.77823" lon="-9.09118">
        <ele>3.02</ele>
        <time>2019-05-10T08:33:39Z</time>
      </trkpt>
      <trkpt lat="38.7783" lon="-9.09116">
        <ele>3.02</ele>
        <time>2019-05-10T08:33:52Z</time>
      </trkpt>
      <trkpt lat="38.77847" lon="-9.09114">
        <ele>3.5</ele>
        <time>2019-05-10T08:34:08Z</time>
      </trkpt>
      <trkpt lat="38.77851" lon="-9.09114">
        <ele>3.5</ele>
        <time>2019-05-10T08:34:24Z</time>
      </trkpt>
      <trkpt lat="38.77856" lon="-9.09114">
        <ele>3.02</ele>
        <time>2019-05-10T08:34:36Z</time>
      </trkpt>
      <trkpt lat="38.77877" lon="-9.09112">
        <ele>3.02</ele>
        <time>2019-05-10T08:34:53Z</time>
      </trkpt>
      <trkpt lat="38.77895" lon="-9.09111">
        <ele>3.02</ele>
        <time>2019-05-10T08:35:08Z</time>
      </trkpt>
      <trkpt lat="38.77913" lon="-9.0911">
        <ele>3.5</ele>
        <time>2019-05-10T08:35:22Z</time>
      </trkpt>
      <trkpt lat="38.77933" lon="-9.09109">
        <ele>3.02</ele>
        <time>2019-05-10T08:35:39Z</time>
      </trkpt>
      <trkpt lat="38.77948" lon="-9.09108">
        <ele>3.02</ele>
        <time>2019-05-10T08:35:52Z</time>
      </trkpt>
      <trkpt lat="38.77958" lon="-9.09107">
        <ele>3.02</ele>
        <time>2019-05-10T08:36:01Z</time>
      </trkpt>
      <trkpt lat="38.77977" lon="-9.09106">
        <ele>2.54</ele>
        <time>2019-05-10T08:36:16Z</time>
      </trkpt>
      <trkpt lat="38.77997" lon="-9.09104">
        <ele>2.54</ele>
        <time>2019-05-10T08:36:32Z</time>
      </trkpt>
      <trkpt lat="38.78008" lon="-9.09106">
        <ele>3.02</ele>
        <time>2019-05-10T08:36:45Z</time>
      </trkpt>
      <trkpt lat="38.78007" lon="-9.09108">
        <ele>3.02</ele>
        <time>2019-05-10T08:37:03Z</time>
      </trkpt>
      <trkpt lat="38.78008" lon="-9.09108">
        <ele>2.54</ele>
        <time>2019-05-10T08:37:16Z</time>
      </trkpt>
      <trkpt lat="38.78008" lon="-9.09108">
        <ele>2.54</ele>
        <time>2019-05-10T08:37:47Z</time>
      </trkpt>
      <trkpt lat="38.78008" lon="-9.09108">
        <ele>2.06</ele>
        <time>2019-05-10T08:38:11Z</time>
      </trkpt>
      <trkpt lat="38.78009" lon="-9.09107">
        <ele>2.54</ele>
        <time>2019-05-10T08:38:47Z</time>
      </trkpt>
      <trkpt lat="38.78009" lon="-9.09106">
        <ele>2.54</ele>
        <time>2019-05-10T08:39:14Z</time>
      </trkpt>
      <trkpt lat="38.78009" lon="-9.09106">
        <ele>2.54</ele>
        <time>2019-05-10T08:39:47Z</time>
      </trkpt>
      <trkpt lat="38.78009" lon="-9.09109">
        <ele>2.54</ele>
        <time>2019-05-10T08:40:16Z</time>
      </trkpt>
      <trkpt lat="38.78009" lon="-9.09108">
        <ele>2.06</ele>
        <time>2019-05-10T08:40:58Z</time>
      </trkpt>
      <trkpt lat="38.78009" lon="-9.09108">
        <ele>3.02</ele>
        <time>2019-05-10T08:41:31Z</time>
      </trkpt>
      <trkpt lat="38.78008" lon="-9.09108">
        <ele>2.54</ele>
        <time>2019-05-10T08:42:10Z</time>
      </trkpt>
      <trkpt lat="38.78009" lon="-9.09108">
        <ele>3.02</ele>
        <time>2019-05-10T08:42:45Z</time>
      </trkpt>
      <trkpt lat="38.78008" lon="-9.09109">
        <ele>2.54</ele>
        <time>2019-05-10T08:43:23Z</time>
      </trkpt>
      <trkpt lat="38.78008" lon="-9.09107">
        <ele>3.02</ele>
        <time>2019-05-10T08:44:02Z</time>
      </trkpt>
      <trkpt lat="38.78009" lon="-9.09107">
        <ele>2.54</ele>
        <time>2019-05-10T08:44:35Z</time>
      </trkpt>
      <trkpt lat="38.78009" lon="-9.09109">
        <ele>3.5</ele>
        <time>2019-05-10T08:45:00Z</time>
      </trkpt>
      <trkpt lat="38.78007" lon="-9.09109">
        <ele>1.58</ele>
        <time>2019-05-10T08:45:25Z</time>
      </trkpt>
      <trkpt lat="38.78007" lon="-9.0911">
        <ele>4.46</ele>
        <time>2019-05-10T08:45:26Z</time>
      </trkpt>
      <trkpt lat="38.78008" lon="-9.09109">
        <ele>3.98</ele>
        <time>2019-05-10T08:45:55Z</time>
      </trkpt>
      <trkpt lat="38.78018" lon="-9.09105">
        <ele>3.98</ele>
        <time>2019-05-10T08:46:02Z</time>
      </trkpt>
      <trkpt lat="38.78041" lon="-9.09098">
        <ele>3.02</ele>
        <time>2019-05-10T08:46:19Z</time>
      </trkpt>
      <trkpt lat="38.78065" lon="-9.09095">
        <ele>3.02</ele>
        <time>2019-05-10T08:46:37Z</time>
      </trkpt>
      <trkpt lat="38.78087" lon="-9.09096">
        <ele>3.02</ele>
        <time>2019-05-10T08:46:53Z</time>
      </trkpt>
      <trkpt lat="38.78108" lon="-9.09092">
        <ele>2.54</ele>
        <time>2019-05-10T08:47:09Z</time>
      </trkpt>
      <trkpt lat="38.78132" lon="-9.09093">
        <ele>2.54</ele>
        <time>2019-05-10T08:47:27Z</time>
      </trkpt>
      <trkpt lat="38.78143" lon="-9.09099">
        <ele>3.5</ele>
        <time>2019-05-10T08:47:40Z</time>
      </trkpt>
      <trkpt lat="38.78145" lon="-9.09098">
        <ele>3.02</ele>
        <time>2019-05-10T08:47:45Z</time>
      </trkpt>
      <trkpt lat="38.78149" lon="-9.09094">
        <ele>3.02</ele>
        <time>2019-05-10T08:47:50Z</time>
      </trkpt>
      <trkpt lat="38.78158" lon="-9.09089">
        <ele>3.5</ele>
        <time>2019-05-10T08:48:04Z</time>
      </trkpt>
      <trkpt lat="38.78163" lon="-9.09089">
        <ele>3.5</ele>
        <time>2019-05-10T08:48:12Z</time>
      </trkpt>
      <trkpt lat="38.78166" lon="-9.09089">
        <ele>3.5</ele>
        <time>2019-05-10T08:48:15Z</time>
      </trkpt>
      <trkpt lat="38.78185" lon="-9.09084">
        <ele>3.02</ele>
        <time>2019-05-10T08:48:31Z</time>
      </trkpt>
      <trkpt lat="38.78188" lon="-9.09085">
        <ele>3.5</ele>
        <time>2019-05-10T08:48:34Z</time>
      </trkpt>
      <trkpt lat="38.78207" lon="-9.09083">
        <ele>3.5</ele>
        <time>2019-05-10T08:48:50Z</time>
      </trkpt>
      <trkpt lat="38.78224" lon="-9.09081">
        <ele>3.5</ele>
        <time>2019-05-10T08:49:03Z</time>
      </trkpt>
      <trkpt lat="38.78247" lon="-9.0908">
        <ele>3.5</ele>
        <time>2019-05-10T08:49:19Z</time>
      </trkpt>
      <trkpt lat="38.78264" lon="-9.09079">
        <ele>2.54</ele>
        <time>2019-05-10T08:49:32Z</time>
      </trkpt>
      <trkpt lat="38.78284" lon="-9.09078">
        <ele>2.54</ele>
        <time>2019-05-10T08:49:46Z</time>
      </trkpt>
      <trkpt lat="38.78302" lon="-9.09076">
        <ele>2.54</ele>
        <time>2019-05-10T08:49:59Z</time>
      </trkpt>
      <trkpt lat="38.78325" lon="-9.09075">
        <ele>2.54</ele>
        <time>2019-05-10T08:50:16Z</time>
      </trkpt>
      <trkpt lat="38.78344" lon="-9.09073">
        <ele>2.54</ele>
        <time>2019-05-10T08:50:31Z</time>
      </trkpt>
      <trkpt lat="38.78361" lon="-9.09079">
        <ele>2.54</ele>
        <time>2019-05-10T08:50:45Z</time>
      </trkpt>
      <trkpt lat="38.78378" lon="-9.09088">
        <ele>3.5</ele>
        <time>2019-05-10T08:50:58Z</time>
      </trkpt>
      <trkpt lat="38.784" lon="-9.091">
        <ele>2.06</ele>
        <time>2019-05-10T08:51:15Z</time>
      </trkpt>
      <trkpt lat="38.78417" lon="-9.09111">
        <ele>2.54</ele>
        <time>2019-05-10T08:51:29Z</time>
      </trkpt>
      <trkpt lat="38.78433" lon="-9.09124">
        <ele>2.54</ele>
        <time>2019-05-10T08:51:42Z</time>
      </trkpt>
      <trkpt lat="38.78436" lon="-9.09126">
        <ele>2.06</ele>
        <time>2019-05-10T08:51:45Z</time>
      </trkpt>
      <trkpt lat="38.78451" lon="-9.0914">
        <ele>2.06</ele>
        <time>2019-05-10T08:52:00Z</time>
      </trkpt>
      <trkpt lat="38.78467" lon="-9.09155">
        <ele>2.54</ele>
        <time>2019-05-10T08:52:17Z</time>
      </trkpt>
      <trkpt lat="38.78476" lon="-9.09163">
        <ele>3.02</ele>
        <time>2019-05-10T08:52:31Z</time>
      </trkpt>
      <trkpt lat="38.78476" lon="-9.09164">
        <ele>2.54</ele>
        <time>2019-05-10T08:52:43Z</time>
      </trkpt>
      <trkpt lat="38.78474" lon="-9.0916">
        <ele>2.54</ele>
        <time>2019-05-10T08:53:01Z</time>
      </trkpt>
      <trkpt lat="38.78473" lon="-9.09159">
        <ele>3.02</ele>
        <time>2019-05-10T08:53:19Z</time>
      </trkpt>
      <trkpt lat="38.78474" lon="-9.0916">
        <ele>2.54</ele>
        <time>2019-05-10T08:53:36Z</time>
      </trkpt>
      <trkpt lat="38.78475" lon="-9.09164">
        <ele>2.54</ele>
        <time>2019-05-10T08:53:51Z</time>
      </trkpt>
      <trkpt lat="38.78477" lon="-9.09164">
        <ele>2.54</ele>
        <time>2019-05-10T08:54:08Z</time>
      </trkpt>
      <trkpt lat="38.78478" lon="-9.09165">
        <ele>2.54</ele>
        <time>2019-05-10T08:54:10Z</time>
      </trkpt>
      <trkpt lat="38.78483" lon="-9.09169">
        <ele>2.54</ele>
        <time>2019-05-10T08:54:18Z</time>
      </trkpt>
      <trkpt lat="38.78497" lon="-9.09186">
        <ele>3.5</ele>
        <time>2019-05-10T08:54:33Z</time>
      </trkpt>
      <trkpt lat="38.78511" lon="-9.09204">
        <ele>3.5</ele>
        <time>2019-05-10T08:54:48Z</time>
      </trkpt>
      <trkpt lat="38.78521" lon="-9.09214">
        <ele>3.5</ele>
        <time>2019-05-10T08:54:58Z</time>
      </trkpt>
      <trkpt lat="38.78526" lon="-9.09218">
        <ele>3.5</ele>
        <time>2019-05-10T08:55:04Z</time>
      </trkpt>
      <trkpt lat="38.78533" lon="-9.09221">
        <ele>3.98</ele>
        <time>2019-05-10T08:55:17Z</time>
      </trkpt>
      <trkpt lat="38.78546" lon="-9.09226">
        <ele>4.46</ele>
        <time>2019-05-10T08:55:31Z</time>
      </trkpt>
      <trkpt lat="38.78557" lon="-9.09228">
        <ele>4.94</ele>
        <time>2019-05-10T08:55:40Z</time>
      </trkpt>
      <trkpt lat="38.78573" lon="-9.09232">
        <ele>4.94</ele>
        <time>2019-05-10T08:55:53Z</time>
      </trkpt>
      <trkpt lat="38.78588" lon="-9.09233">
        <ele>5.42</ele>
        <time>2019-05-10T08:56:05Z</time>
      </trkpt>
      <trkpt lat="38.78606" lon="-9.09233">
        <ele>4.94</ele>
        <time>2019-05-10T08:56:22Z</time>
      </trkpt>
      <trkpt lat="38.78608" lon="-9.09234">
        <ele>5.42</ele>
        <time>2019-05-10T08:56:24Z</time>
      </trkpt>
      <trkpt lat="38.78628" lon="-9.09234">
        <ele>5.42</ele>
        <time>2019-05-10T08:56:42Z</time>
      </trkpt>
      <trkpt lat="38.78645" lon="-9.09233">
        <ele>4.94</ele>
        <time>2019-05-10T08:56:58Z</time>
      </trkpt>
      <trkpt lat="38.78663" lon="-9.09232">
        <ele>3.98</ele>
        <time>2019-05-10T08:57:13Z</time>
      </trkpt>
      <trkpt lat="38.78682" lon="-9.09228">
        <ele>3.02</ele>
        <time>2019-05-10T08:57:28Z</time>
      </trkpt>
      <trkpt lat="38.78689" lon="-9.09226">
        <ele>4.46</ele>
        <time>2019-05-10T08:57:34Z</time>
      </trkpt>
      <trkpt lat="38.78704" lon="-9.09223">
        <ele>3.5</ele>
        <time>2019-05-10T08:57:47Z</time>
      </trkpt>
      <trkpt lat="38.78708" lon="-9.09221">
        <ele>3.5</ele>
        <time>2019-05-10T08:57:51Z</time>
      </trkpt>
      <trkpt lat="38.78724" lon="-9.09215">
        <ele>3.98</ele>
        <time>2019-05-10T08:58:04Z</time>
      </trkpt>
      <trkpt lat="38.78741" lon="-9.09206">
        <ele>3.5</ele>
        <time>2019-05-10T08:58:20Z</time>
      </trkpt>
      <trkpt lat="38.78749" lon="-9.09203">
        <ele>3.5</ele>
        <time>2019-05-10T08:58:26Z</time>
      </trkpt>
      <trkpt lat="38.78767" lon="-9.09193">
        <ele>2.06</ele>
        <time>2019-05-10T08:58:43Z</time>
      </trkpt>
      <trkpt lat="38.78778" lon="-9.09185">
        <ele>2.54</ele>
        <time>2019-05-10T08:58:54Z</time>
      </trkpt>
      <trkpt lat="38.78784" lon="-9.09182">
        <ele>2.06</ele>
        <time>2019-05-10T08:58:59Z</time>
      </trkpt>
      <trkpt lat="38.78802" lon="-9.09173">
        <ele>2.06</ele>
        <time>2019-05-10T08:59:12Z</time>
      </trkpt>
      <trkpt lat="38.78815" lon="-9.09161">
        <ele>2.06</ele>
        <time>2019-05-10T08:59:27Z</time>
      </trkpt>
      <trkpt lat="38.78829" lon="-9.0915">
        <ele>1.1</ele>
        <time>2019-05-10T08:59:42Z</time>
      </trkpt>
      <trkpt lat="38.78846" lon="-9.09135">
        <ele>1.1</ele>
        <time>2019-05-10T08:59:59Z</time>
      </trkpt>
      <trkpt lat="38.78856" lon="-9.09127">
        <ele>1.1</ele>
        <time>2019-05-10T09:00:10Z</time>
      </trkpt>
      <trkpt lat="38.78865" lon="-9.09118">
        <ele>2.06</ele>
        <time>2019-05-10T09:00:19Z</time>
      </trkpt>
      <trkpt lat="38.78871" lon="-9.09112">
        <ele>1.58</ele>
        <time>2019-05-10T09:00:26Z</time>
      </trkpt>
      <trkpt lat="38.78874" lon="-9.0911">
        <ele>2.06</ele>
        <time>2019-05-10T09:00:29Z</time>
      </trkpt>
      <trkpt lat="38.78885" lon="-9.091">
        <ele>2.06</ele>
        <time>2019-05-10T09:00:45Z</time>
      </trkpt>
      <trkpt lat="38.78885" lon="-9.091">
        <ele>2.06</ele>
        <time>2019-05-10T09:00:52Z</time>
      </trkpt>
      <trkpt lat="38.78892" lon="-9.09093">
        <ele>1.58</ele>
        <time>2019-05-10T09:01:00Z</time>
      </trkpt>
      <trkpt lat="38.789" lon="-9.09091">
        <ele>2.06</ele>
        <time>2019-05-10T09:01:09Z</time>
      </trkpt>
      <trkpt lat="38.78905" lon="-9.09089">
        <ele>1.1</ele>
        <time>2019-05-10T09:01:14Z</time>
      </trkpt>
      <trkpt lat="38.78925" lon="-9.09085">
        <ele>1.58</ele>
        <time>2019-05-10T09:01:30Z</time>
      </trkpt>
      <trkpt lat="38.78943" lon="-9.09081">
        <ele>2.06</ele>
        <time>2019-05-10T09:01:46Z</time>
      </trkpt>
      <trkpt lat="38.78958" lon="-9.09078">
        <ele>1.58</ele>
        <time>2019-05-10T09:02:00Z</time>
      </trkpt>
      <trkpt lat="38.78977" lon="-9.09072">
        <ele>2.54</ele>
        <time>2019-05-10T09:02:16Z</time>
      </trkpt>
      <trkpt lat="38.78988" lon="-9.09068">
        <ele>2.06</ele>
        <time>2019-05-10T09:02:26Z</time>
      </trkpt>
      <trkpt lat="38.79006" lon="-9.09063">
        <ele>1.1</ele>
        <time>2019-05-10T09:02:41Z</time>
      </trkpt>
      <trkpt lat="38.79026" lon="-9.09055">
        <ele>1.1</ele>
        <time>2019-05-10T09:02:58Z</time>
      </trkpt>
      <trkpt lat="38.79043" lon="-9.09047">
        <ele>1.1</ele>
        <time>2019-05-10T09:03:13Z</time>
      </trkpt>
      <trkpt lat="38.79063" lon="-9.0904">
        <ele>1.58</ele>
        <time>2019-05-10T09:03:30Z</time>
      </trkpt>
      <trkpt lat="38.79076" lon="-9.09037">
        <ele>1.58</ele>
        <time>2019-05-10T09:03:41Z</time>
      </trkpt>
      <trkpt lat="38.79095" lon="-9.09036">
        <ele>1.58</ele>
        <time>2019-05-10T09:03:57Z</time>
      </trkpt>
      <trkpt lat="38.79115" lon="-9.09039">
        <ele>1.1</ele>
        <time>2019-05-10T09:04:14Z</time>
      </trkpt>
      <trkpt lat="38.79132" lon="-9.09043">
        <ele>1.1</ele>
        <time>2019-05-10T09:04:28Z</time>
      </trkpt>
      <trkpt lat="38.7915" lon="-9.09046">
        <ele>1.58</ele>
        <time>2019-05-10T09:04:44Z</time>
      </trkpt>
      <trkpt lat="38.79168" lon="-9.09049">
        <ele>1.1</ele>
        <time>2019-05-10T09:04:58Z</time>
      </trkpt>
      <trkpt lat="38.79185" lon="-9.09053">
        <ele>1.58</ele>
        <time>2019-05-10T09:05:12Z</time>
      </trkpt>
      <trkpt lat="38.79203" lon="-9.09063">
        <ele>1.58</ele>
        <time>2019-05-10T09:05:28Z</time>
      </trkpt>
      <trkpt lat="38.79213" lon="-9.09069">
        <ele>1.1</ele>
        <time>2019-05-10T09:05:37Z</time>
      </trkpt>
      <trkpt lat="38.79221" lon="-9.0907">
        <ele>1.1</ele>
        <time>2019-05-10T09:05:46Z</time>
      </trkpt>
      <trkpt lat="38.79225" lon="-9.09066">
        <ele>1.58</ele>
        <time>2019-05-10T09:05:51Z</time>
      </trkpt>
      <trkpt lat="38.79229" lon="-9.09065">
        <ele>1.1</ele>
        <time>2019-05-10T09:05:54Z</time>
      </trkpt>
      <trkpt lat="38.79248" lon="-9.09064">
        <ele>2.06</ele>
        <time>2019-05-10T09:06:09Z</time>
      </trkpt>
      <trkpt lat="38.79266" lon="-9.09062">
        <ele>1.1</ele>
        <time>2019-05-10T09:06:24Z</time>
      </trkpt>
      <trkpt lat="38.7928" lon="-9.09061">
        <ele>1.58</ele>
        <time>2019-05-10T09:06:37Z</time>
      </trkpt>
      <trkpt lat="38.79292" lon="-9.09061">
        <ele>1.58</ele>
        <time>2019-05-10T09:06:47Z</time>
      </trkpt>
      <trkpt lat="38.79311" lon="-9.09059">
        <ele>2.06</ele>
        <time>2019-05-10T09:07:04Z</time>
      </trkpt>
      <trkpt lat="38.79328" lon="-9.09059">
        <ele>1.58</ele>
        <time>2019-05-10T09:07:18Z</time>
      </trkpt>
      <trkpt lat="38.79347" lon="-9.09059">
        <ele>1.58</ele>
        <time>2019-05-10T09:07:33Z</time>
      </trkpt>
      <trkpt lat="38.79365" lon="-9.09059">
        <ele>1.58</ele>
        <time>2019-05-10T09:07:48Z</time>
      </trkpt>
      <trkpt lat="38.79383" lon="-9.09058">
        <ele>1.58</ele>
        <time>2019-05-10T09:08:02Z</time>
      </trkpt>
      <trkpt lat="38.79398" lon="-9.09059">
        <ele>1.1</ele>
        <time>2019-05-10T09:08:15Z</time>
      </trkpt>
      <trkpt lat="38.79402" lon="-9.09063">
        <ele>1.1</ele>
        <time>2019-05-10T09:08:19Z</time>
      </trkpt>
      <trkpt lat="38.79416" lon="-9.0908">
        <ele>1.1</ele>
        <time>2019-05-10T09:08:36Z</time>
      </trkpt>
      <trkpt lat="38.79418" lon="-9.09082">
        <ele>1.58</ele>
        <time>2019-05-10T09:08:38Z</time>
      </trkpt>
      <trkpt lat="38.79436" lon="-9.09084">
        <ele>2.06</ele>
        <time>2019-05-10T09:08:53Z</time>
      </trkpt>
      <trkpt lat="38.7945" lon="-9.09092">
        <ele>1.58</ele>
        <time>2019-05-10T09:09:06Z</time>
      </trkpt>
      <trkpt lat="38.79453" lon="-9.09096">
        <ele>1.58</ele>
        <time>2019-05-10T09:09:22Z</time>
      </trkpt>
      <trkpt lat="38.79453" lon="-9.09096">
        <ele>0.62</ele>
        <time>2019-05-10T09:09:37Z</time>
      </trkpt>
      <trkpt lat="38.79453" lon="-9.09097">
        <ele>0.14</ele>
        <time>2019-05-10T09:10:16Z</time>
      </trkpt>
      <trkpt lat="38.79454" lon="-9.09098">
        <ele>0.62</ele>
        <time>2019-05-10T09:10:52Z</time>
      </trkpt>
      <trkpt lat="38.79454" lon="-9.09097">
        <ele>1.1</ele>
        <time>2019-05-10T09:11:14Z</time>
      </trkpt>
      <trkpt lat="38.79453" lon="-9.09096">
        <ele>1.1</ele>
        <time>2019-05-10T09:11:44Z</time>
      </trkpt>
      <trkpt lat="38.79454" lon="-9.09096">
        <ele>1.1</ele>
        <time>2019-05-10T09:12:17Z</time>
      </trkpt>
      <trkpt lat="38.79454" lon="-9.09096">
        <ele>0.62</ele>
        <time>2019-05-10T09:12:42Z</time>
      </trkpt>
      <trkpt lat="38.79452" lon="-9.09096">
        <ele>1.58</ele>
        <time>2019-05-10T09:13:03Z</time>
      </trkpt>
      <trkpt lat="38.79452" lon="-9.09095">
        <ele>1.58</ele>
        <time>2019-05-10T09:13:06Z</time>
      </trkpt>
      <trkpt lat="38.79453" lon="-9.09095">
        <ele>2.06</ele>
        <time>2019-05-10T09:13:20Z</time>
      </trkpt>
      <trkpt lat="38.79456" lon="-9.09097">
        <ele>2.06</ele>
        <time>2019-05-10T09:13:40Z</time>
      </trkpt>
      <trkpt lat="38.7946" lon="-9.09101">
        <ele>1.58</ele>
        <time>2019-05-10T09:13:45Z</time>
      </trkpt>
      <trkpt lat="38.79475" lon="-9.09114">
        <ele>2.06</ele>
        <time>2019-05-10T09:14:02Z</time>
      </trkpt>
      <trkpt lat="38.79493" lon="-9.09119">
        <ele>2.06</ele>
        <time>2019-05-10T09:14:17Z</time>
      </trkpt>
      <trkpt lat="38.79514" lon="-9.09124">
        <ele>2.06</ele>
        <time>2019-05-10T09:14:34Z</time>
      </trkpt>
      <trkpt lat="38.79524" lon="-9.09125">
        <ele>2.06</ele>
        <time>2019-05-10T09:14:42Z</time>
      </trkpt>
      <trkpt lat="38.7953" lon="-9.09127">
        <ele>2.54</ele>
        <time>2019-05-10T09:14:47Z</time>
      </trkpt>
      <trkpt lat="38.79534" lon="-9.09129">
        <ele>1.58</ele>
        <time>2019-05-10T09:14:51Z</time>
      </trkpt>
      <trkpt lat="38.79552" lon="-9.09136">
        <ele>2.06</ele>
        <time>2019-05-10T09:15:07Z</time>
      </trkpt>
      <trkpt lat="38.79565" lon="-9.09146">
        <ele>2.54</ele>
        <time>2019-05-10T09:15:22Z</time>
      </trkpt>
      <trkpt lat="38.79573" lon="-9.09154">
        <ele>2.54</ele>
        <time>2019-05-10T09:15:37Z</time>
      </trkpt>
      <trkpt lat="38.79574" lon="-9.09155">
        <ele>2.54</ele>
        <time>2019-05-10T09:15:39Z</time>
      </trkpt>
      <trkpt lat="38.79578" lon="-9.0916">
        <ele>2.54</ele>
        <time>2019-05-10T09:15:45Z</time>
      </trkpt>
      <trkpt lat="38.79581" lon="-9.09166">
        <ele>2.06</ele>
        <time>2019-05-10T09:15:50Z</time>
      </trkpt>
      <trkpt lat="38.79585" lon="-9.09175">
        <ele>2.06</ele>
        <time>2019-05-10T09:15:58Z</time>
      </trkpt>
      <trkpt lat="38.79591" lon="-9.09195">
        <ele>2.54</ele>
        <time>2019-05-10T09:16:12Z</time>
      </trkpt>
      <trkpt lat="38.79593" lon="-9.09217">
        <ele>2.54</ele>
        <time>2019-05-10T09:16:27Z</time>
      </trkpt>
      <trkpt lat="38.79595" lon="-9.09241">
        <ele>2.06</ele>
        <time>2019-05-10T09:16:43Z</time>
      </trkpt>
      <trkpt lat="38.79597" lon="-9.09269">
        <ele>2.54</ele>
        <time>2019-05-10T09:17:01Z</time>
      </trkpt>
      <trkpt lat="38.79598" lon="-9.09297">
        <ele>2.54</ele>
        <time>2019-05-10T09:17:18Z</time>
      </trkpt>
      <trkpt lat="38.79601" lon="-9.09322">
        <ele>2.54</ele>
        <time>2019-05-10T09:17:35Z</time>
      </trkpt>
      <trkpt lat="38.79603" lon="-9.09347">
        <ele>2.54</ele>
        <time>2019-05-10T09:17:52Z</time>
      </trkpt>
      <trkpt lat="38.79604" lon="-9.09368">
        <ele>2.54</ele>
        <time>2019-05-10T09:18:06Z</time>
      </trkpt>
      <trkpt lat="38.79605" lon="-9.09388">
        <ele>2.06</ele>
        <time>2019-05-10T09:18:20Z</time>
      </trkpt>
      <trkpt lat="38.79606" lon="-9.09415">
        <ele>2.54</ele>
        <time>2019-05-10T09:18:37Z</time>
      </trkpt>
      <trkpt lat="38.79607" lon="-9.09439">
        <ele>2.54</ele>
        <time>2019-05-10T09:18:53Z</time>
      </trkpt>
      <trkpt lat="38.79608" lon="-9.09461">
        <ele>2.54</ele>
        <time>2019-05-10T09:19:08Z</time>
      </trkpt>
      <trkpt lat="38.79609" lon="-9.09481">
        <ele>3.02</ele>
        <time>2019-05-10T09:19:22Z</time>
      </trkpt>
      <trkpt lat="38.7961" lon="-9.09505">
        <ele>3.02</ele>
        <time>2019-05-10T09:19:37Z</time>
      </trkpt>
      <trkpt lat="38.79612" lon="-9.09526">
        <ele>2.54</ele>
        <time>2019-05-10T09:19:51Z</time>
      </trkpt>
      <trkpt lat="38.79612" lon="-9.09552">
        <ele>3.02</ele>
        <time>2019-05-10T09:20:07Z</time>
      </trkpt>
      <trkpt lat="38.79613" lon="-9.09577">
        <ele>3.02</ele>
        <time>2019-05-10T09:20:22Z</time>
      </trkpt>
      <trkpt lat="38.79614" lon="-9.09599">
        <ele>2.54</ele>
        <time>2019-05-10T09:20:37Z</time>
      </trkpt>
      <trkpt lat="38.79616" lon="-9.09622">
        <ele>3.5</ele>
        <time>2019-05-10T09:20:52Z</time>
      </trkpt>
      <trkpt lat="38.79616" lon="-9.09646">
        <ele>3.02</ele>
        <time>2019-05-10T09:21:07Z</time>
      </trkpt>
      <trkpt lat="38.79617" lon="-9.09656">
        <ele>3.02</ele>
        <time>2019-05-10T09:21:14Z</time>
      </trkpt>
      <trkpt lat="38.79616" lon="-9.09675">
        <ele>3.5</ele>
        <time>2019-05-10T09:21:27Z</time>
      </trkpt>
      <trkpt lat="38.79612" lon="-9.09694">
        <ele>3.98</ele>
        <time>2019-05-10T09:21:40Z</time>
      </trkpt>
      <trkpt lat="38.79613" lon="-9.09695">
        <ele>3.5</ele>
        <time>2019-05-10T09:21:41Z</time>
      </trkpt>
      <trkpt lat="38.7961" lon="-9.09716">
        <ele>3.98</ele>
        <time>2019-05-10T09:21:55Z</time>
      </trkpt>
      <trkpt lat="38.79608" lon="-9.09733">
        <ele>2.54</ele>
        <time>2019-05-10T09:22:06Z</time>
      </trkpt>
      <trkpt lat="38.79603" lon="-9.09753">
        <ele>3.5</ele>
        <time>2019-05-10T09:22:20Z</time>
      </trkpt>
      <trkpt lat="38.79599" lon="-9.09774">
        <ele>3.02</ele>
        <time>2019-05-10T09:22:35Z</time>
      </trkpt>
      <trkpt lat="38.79596" lon="-9.09792">
        <ele>3.5</ele>
        <time>2019-05-10T09:22:49Z</time>
      </trkpt>
      <trkpt lat="38.79593" lon="-9.09809">
        <ele>3.98</ele>
        <time>2019-05-10T09:23:00Z</time>
      </trkpt>
      <trkpt lat="38.79593" lon="-9.09817">
        <ele>3.98</ele>
        <time>2019-05-10T09:23:06Z</time>
      </trkpt>
      <trkpt lat="38.79594" lon="-9.09835">
        <ele>4.46</ele>
        <time>2019-05-10T09:23:18Z</time>
      </trkpt>
      <trkpt lat="38.79595" lon="-9.09839">
        <ele>4.46</ele>
        <time>2019-05-10T09:23:21Z</time>
      </trkpt>
      <trkpt lat="38.796" lon="-9.09858">
        <ele>3.98</ele>
        <time>2019-05-10T09:23:35Z</time>
      </trkpt>
      <trkpt lat="38.79603" lon="-9.09873">
        <ele>3.98</ele>
        <time>2019-05-10T09:23:51Z</time>
      </trkpt>
      <trkpt lat="38.79604" lon="-9.09893">
        <ele>3.5</ele>
        <time>2019-05-10T09:24:07Z</time>
      </trkpt>
      <trkpt lat="38.79607" lon="-9.09905">
        <ele>3.5</ele>
        <time>2019-05-10T09:24:13Z</time>
      </trkpt>
      <trkpt lat="38.79622" lon="-9.09911">
        <ele>3.5</ele>
        <time>2019-05-10T09:24:30Z</time>
      </trkpt>
      <trkpt lat="38.79631" lon="-9.09919">
        <ele>3.98</ele>
        <time>2019-05-10T09:24:43Z</time>
      </trkpt>
      <trkpt lat="38.79632" lon="-9.09931">
        <ele>3.02</ele>
        <time>2019-05-10T09:24:57Z</time>
      </trkpt>
      <trkpt lat="38.79638" lon="-9.09946">
        <ele>3.98</ele>
        <time>2019-05-10T09:25:05Z</time>
      </trkpt>
      <trkpt lat="38.79644" lon="-9.09972">
        <ele>5.42</ele>
        <time>2019-05-10T09:25:20Z</time>
      </trkpt>
      <trkpt lat="38.79645" lon="-9.09987">
        <ele>6.39</ele>
        <time>2019-05-10T09:25:33Z</time>
      </trkpt>
      <trkpt lat="38.79649" lon="-9.10001">
        <ele>6.39</ele>
        <time>2019-05-10T09:25:45Z</time>
      </trkpt>
      <trkpt lat="38.79653" lon="-9.10014">
        <ele>6.39</ele>
        <time>2019-05-10T09:25:56Z</time>
      </trkpt>
      <trkpt lat="38.79654" lon="-9.1002">
        <ele>5.91</ele>
        <time>2019-05-10T09:26:00Z</time>
      </trkpt>
      <trkpt lat="38.79662" lon="-9.10041">
        <ele>6.39</ele>
        <time>2019-05-10T09:26:17Z</time>
      </trkpt>
      <trkpt lat="38.79669" lon="-9.10061">
        <ele>4.94</ele>
        <time>2019-05-10T09:26:33Z</time>
      </trkpt>
      <trkpt lat="38.79674" lon="-9.10072">
        <ele>5.42</ele>
        <time>2019-05-10T09:26:42Z</time>
      </trkpt>
      <trkpt lat="38.79682" lon="-9.10087">
        <ele>4.94</ele>
        <time>2019-05-10T09:26:54Z</time>
      </trkpt>
      <trkpt lat="38.79689" lon="-9.1011">
        <ele>3.98</ele>
        <time>2019-05-10T09:27:09Z</time>
      </trkpt>
      <trkpt lat="38.79693" lon="-9.10124">
        <ele>3.98</ele>
        <time>2019-05-10T09:27:22Z</time>
      </trkpt>
      <trkpt lat="38.79696" lon="-9.10149">
        <ele>3.98</ele>
        <time>2019-05-10T09:27:39Z</time>
      </trkpt>
      <trkpt lat="38.79697" lon="-9.1016">
        <ele>3.5</ele>
        <time>2019-05-10T09:27:45Z</time>
      </trkpt>
      <trkpt lat="38.797" lon="-9.10183">
        <ele>3.02</ele>
        <time>2019-05-10T09:28:01Z</time>
      </trkpt>
      <trkpt lat="38.797" lon="-9.10186">
        <ele>3.5</ele>
        <time>2019-05-10T09:28:03Z</time>
      </trkpt>
      <trkpt lat="38.797" lon="-9.10193">
        <ele>3.5</ele>
        <time>2019-05-10T09:28:08Z</time>
      </trkpt>
      <trkpt lat="38.79704" lon="-9.10214">
        <ele>3.98</ele>
        <time>2019-05-10T09:28:23Z</time>
      </trkpt>
      <trkpt lat="38.79706" lon="-9.10222">
        <ele>3.5</ele>
        <time>2019-05-10T09:28:30Z</time>
      </trkpt>
      <trkpt lat="38.79704" lon="-9.10248">
        <ele>3.5</ele>
        <time>2019-05-10T09:28:47Z</time>
      </trkpt>
      <trkpt lat="38.79701" lon="-9.1026">
        <ele>3.98</ele>
        <time>2019-05-10T09:28:58Z</time>
      </trkpt>
      <trkpt lat="38.79701" lon="-9.10265">
        <ele>3.98</ele>
        <time>2019-05-10T09:29:01Z</time>
      </trkpt>
      <trkpt lat="38.79699" lon="-9.1029">
        <ele>4.46</ele>
        <time>2019-05-10T09:29:17Z</time>
      </trkpt>
      <trkpt lat="38.797" lon="-9.10312">
        <ele>3.98</ele>
        <time>2019-05-10T09:29:31Z</time>
      </trkpt>
      <trkpt lat="38.79701" lon="-9.10321">
        <ele>4.46</ele>
        <time>2019-05-10T09:29:37Z</time>
      </trkpt>
      <trkpt lat="38.79703" lon="-9.10336">
        <ele>3.98</ele>
        <time>2019-05-10T09:29:46Z</time>
      </trkpt>
      <trkpt lat="38.797" lon="-9.10359">
        <ele>3.5</ele>
        <time>2019-05-10T09:30:03Z</time>
      </trkpt>
      <trkpt lat="38.79698" lon="-9.10375">
        <ele>4.94</ele>
        <time>2019-05-10T09:30:18Z</time>
      </trkpt>
      <trkpt lat="38.79696" lon="-9.10376">
        <ele>3.98</ele>
        <time>2019-05-10T09:30:33Z</time>
      </trkpt>
      <trkpt lat="38.79694" lon="-9.1038">
        <ele>3.98</ele>
        <time>2019-05-10T09:30:48Z</time>
      </trkpt>
      <trkpt lat="38.79688" lon="-9.10392">
        <ele>3.98</ele>
        <time>2019-05-10T09:30:59Z</time>
      </trkpt>
      <trkpt lat="38.79676" lon="-9.10402">
        <ele>3.5</ele>
        <time>2019-05-10T09:31:14Z</time>
      </trkpt>
      <trkpt lat="38.79673" lon="-9.10407">
        <ele>3.5</ele>
        <time>2019-05-10T09:31:19Z</time>
      </trkpt>
      <trkpt lat="38.79666" lon="-9.1043">
        <ele>4.46</ele>
        <time>2019-05-10T09:31:34Z</time>
      </trkpt>
      <trkpt lat="38.79665" lon="-9.10452">
        <ele>4.94</ele>
        <time>2019-05-10T09:31:49Z</time>
      </trkpt>
      <trkpt lat="38.79669" lon="-9.10458">
        <ele>5.42</ele>
        <time>2019-05-10T09:31:57Z</time>
      </trkpt>
      <trkpt lat="38.79688" lon="-9.10463">
        <ele>6.39</ele>
        <time>2019-05-10T09:32:14Z</time>
      </trkpt>
      <trkpt lat="38.79697" lon="-9.10467">
        <ele>6.39</ele>
        <time>2019-05-10T09:32:24Z</time>
      </trkpt>
      <trkpt lat="38.79705" lon="-9.1047">
        <ele>6.39</ele>
        <time>2019-05-10T09:32:34Z</time>
      </trkpt>
      <trkpt lat="38.79709" lon="-9.1048">
        <ele>6.39</ele>
        <time>2019-05-10T09:32:41Z</time>
      </trkpt>
      <trkpt lat="38.79713" lon="-9.10484">
        <ele>6.39</ele>
        <time>2019-05-10T09:32:46Z</time>
      </trkpt>
      <trkpt lat="38.79731" lon="-9.1048">
        <ele>6.87</ele>
        <time>2019-05-10T09:33:03Z</time>
      </trkpt>
      <trkpt lat="38.79741" lon="-9.10477">
        <ele>6.87</ele>
        <time>2019-05-10T09:33:11Z</time>
      </trkpt>
      <trkpt lat="38.79764" lon="-9.10474">
        <ele>6.87</ele>
        <time>2019-05-10T09:33:29Z</time>
      </trkpt>
      <trkpt lat="38.79772" lon="-9.10475">
        <ele>5.91</ele>
        <time>2019-05-10T09:33:39Z</time>
      </trkpt>
      <trkpt lat="38.7977" lon="-9.10481">
        <ele>4.94</ele>
        <time>2019-05-10T09:33:44Z</time>
      </trkpt>
      <trkpt lat="38.79769" lon="-9.10492">
        <ele>3.98</ele>
        <time>2019-05-10T09:33:53Z</time>
      </trkpt>
      <trkpt lat="38.7977" lon="-9.10496">
        <ele>3.5</ele>
        <time>2019-05-10T09:33:56Z</time>
      </trkpt>
      <trkpt lat="38.79772" lon="-9.10501">
        <ele>3.98</ele>
        <time>2019-05-10T09:34:00Z</time>
      </trkpt>
      <trkpt lat="38.79773" lon="-9.10504">
        <ele>3.98</ele>
        <time>2019-05-10T09:34:03Z</time>
      </trkpt>
      <trkpt lat="38.7978" lon="-9.10514">
        <ele>4.46</ele>
        <time>2019-05-10T09:34:13Z</time>
      </trkpt>
      <trkpt lat="38.79783" lon="-9.10524">
        <ele>4.94</ele>
        <time>2019-05-10T09:34:20Z</time>
      </trkpt>
      <trkpt lat="38.79787" lon="-9.10532">
        <ele>4.46</ele>
        <time>2019-05-10T09:34:29Z</time>
      </trkpt>
      <trkpt lat="38.79788" lon="-9.10535">
        <ele>4.46</ele>
        <time>2019-05-10T09:34:31Z</time>
      </trkpt>
      <trkpt lat="38.79795" lon="-9.10543">
        <ele>4.46</ele>
        <time>2019-05-10T09:34:40Z</time>
      </trkpt>
      <trkpt lat="38.79799" lon="-9.10552">
        <ele>4.94</ele>
        <time>2019-05-10T09:34:52Z</time>
      </trkpt>
      <trkpt lat="38.79799" lon="-9.10555">
        <ele>4.94</ele>
        <time>2019-05-10T09:35:20Z</time>
      </trkpt>
      <trkpt lat="38.79808" lon="-9.1057">
        <ele>3.98</ele>
        <time>2019-05-10T09:35:33Z</time>
      </trkpt>
      <trkpt lat="38.79822" lon="-9.10586">
        <ele>3.5</ele>
        <time>2019-05-10T09:35:50Z</time>
      </trkpt>
      <trkpt lat="38.79825" lon="-9.10593">
        <ele>3.5</ele>
        <time>2019-05-10T09:35:55Z</time>
      </trkpt>
      <trkpt lat="38.79828" lon="-9.10599">
        <ele>3.5</ele>
        <time>2019-05-10T09:35:59Z</time>
      </trkpt>
      <trkpt lat="38.7984" lon="-9.1062">
        <ele>3.5</ele>
        <time>2019-05-10T09:36:15Z</time>
      </trkpt>
      <trkpt lat="38.79852" lon="-9.10638">
        <ele>3.5</ele>
        <time>2019-05-10T09:36:29Z</time>
      </trkpt>
      <trkpt lat="38.79855" lon="-9.10642">
        <ele>3.98</ele>
        <time>2019-05-10T09:36:33Z</time>
      </trkpt>
      <trkpt lat="38.79861" lon="-9.10646">
        <ele>3.98</ele>
        <time>2019-05-10T09:36:38Z</time>
      </trkpt>
      <trkpt lat="38.7988" lon="-9.10648">
        <ele>3.5</ele>
        <time>2019-05-10T09:36:54Z</time>
      </trkpt>
      <trkpt lat="38.79883" lon="-9.1065">
        <ele>3.5</ele>
        <time>2019-05-10T09:36:59Z</time>
      </trkpt>
      <trkpt lat="38.79895" lon="-9.10669">
        <ele>3.5</ele>
        <time>2019-05-10T09:37:15Z</time>
      </trkpt>
      <trkpt lat="38.79904" lon="-9.10688">
        <ele>3.5</ele>
        <time>2019-05-10T09:37:30Z</time>
      </trkpt>
      <trkpt lat="38.79914" lon="-9.10706">
        <ele>2.54</ele>
        <time>2019-05-10T09:37:44Z</time>
      </trkpt>
      <trkpt lat="38.79926" lon="-9.10724">
        <ele>3.5</ele>
        <time>2019-05-10T09:38:00Z</time>
      </trkpt>
      <trkpt lat="38.79931" lon="-9.10731">
        <ele>3.02</ele>
        <time>2019-05-10T09:38:06Z</time>
      </trkpt>
      <trkpt lat="38.79942" lon="-9.10747">
        <ele>3.5</ele>
        <time>2019-05-10T09:38:20Z</time>
      </trkpt>
      <trkpt lat="38.79953" lon="-9.10762">
        <ele>3.98</ele>
        <time>2019-05-10T09:38:34Z</time>
      </trkpt>
      <trkpt lat="38.79955" lon="-9.10764">
        <ele>3.98</ele>
        <time>2019-05-10T09:38:36Z</time>
      </trkpt>
      <trkpt lat="38.79967" lon="-9.10778">
        <ele>3.98</ele>
        <time>2019-05-10T09:38:50Z</time>
      </trkpt>
      <trkpt lat="38.79981" lon="-9.10794">
        <ele>3.02</ele>
        <time>2019-05-10T09:39:07Z</time>
      </trkpt>
      <trkpt lat="38.79993" lon="-9.10809">
        <ele>3.5</ele>
        <time>2019-05-10T09:39:21Z</time>
      </trkpt>
      <trkpt lat="38.80005" lon="-9.10822">
        <ele>3.5</ele>
        <time>2019-05-10T09:39:35Z</time>
      </trkpt>
      <trkpt lat="38.80016" lon="-9.10831">
        <ele>3.5</ele>
        <time>2019-05-10T09:39:47Z</time>
      </trkpt>
      <trkpt lat="38.80027" lon="-9.1083">
        <ele>3.02</ele>
        <time>2019-05-10T09:39:58Z</time>
      </trkpt>
      <trkpt lat="38.80029" lon="-9.10832">
        <ele>4.46</ele>
        <time>2019-05-10T09:40:00Z</time>
      </trkpt>
      <trkpt lat="38.80039" lon="-9.1085">
        <ele>3.02</ele>
        <time>2019-05-10T09:40:14Z</time>
      </trkpt>
      <trkpt lat="38.80041" lon="-9.10854">
        <ele>3.5</ele>
        <time>2019-05-10T09:40:17Z</time>
      </trkpt>
      <trkpt lat="38.80043" lon="-9.1086">
        <ele>3.5</ele>
        <time>2019-05-10T09:40:21Z</time>
      </trkpt>
      <trkpt lat="38.80052" lon="-9.10871">
        <ele>3.98</ele>
        <time>2019-05-10T09:40:34Z</time>
      </trkpt>
      <trkpt lat="38.80066" lon="-9.10886">
        <ele>3.5</ele>
        <time>2019-05-10T09:40:49Z</time>
      </trkpt>
      <trkpt lat="38.80082" lon="-9.10899">
        <ele>3.98</ele>
        <time>2019-05-10T09:41:04Z</time>
      </trkpt>
      <trkpt lat="38.80101" lon="-9.10909">
        <ele>3.5</ele>
        <time>2019-05-10T09:41:20Z</time>
      </trkpt>
      <trkpt lat="38.80118" lon="-9.10917">
        <ele>3.5</ele>
        <time>2019-05-10T09:41:35Z</time>
      </trkpt>
      <trkpt lat="38.80137" lon="-9.10929">
        <ele>3.5</ele>
        <time>2019-05-10T09:41:53Z</time>
      </trkpt>
      <trkpt lat="38.80144" lon="-9.10932">
        <ele>3.5</ele>
        <time>2019-05-10T09:42:04Z</time>
      </trkpt>
      <trkpt lat="38.80164" lon="-9.10934">
        <ele>3.5</ele>
        <time>2019-05-10T09:42:20Z</time>
      </trkpt>
      <trkpt lat="38.80182" lon="-9.10934">
        <ele>3.98</ele>
        <time>2019-05-10T09:42:36Z</time>
      </trkpt>
      <trkpt lat="38.80197" lon="-9.10933">
        <ele>3.02</ele>
        <time>2019-05-10T09:42:49Z</time>
      </trkpt>
      <trkpt lat="38.80203" lon="-9.10933">
        <ele>3.5</ele>
        <time>2019-05-10T09:42:54Z</time>
      </trkpt>
      <trkpt lat="38.80223" lon="-9.1093">
        <ele>3.02</ele>
        <time>2019-05-10T09:43:11Z</time>
      </trkpt>
      <trkpt lat="38.80238" lon="-9.10924">
        <ele>3.5</ele>
        <time>2019-05-10T09:43:25Z</time>
      </trkpt>
      <trkpt lat="38.80258" lon="-9.10918">
        <ele>3.98</ele>
        <time>2019-05-10T09:43:42Z</time>
      </trkpt>
      <trkpt lat="38.80264" lon="-9.10916">
        <ele>3.98</ele>
        <time>2019-05-10T09:43:47Z</time>
      </trkpt>
      <trkpt lat="38.80266" lon="-9.10915">
        <ele>3.98</ele>
        <time>2019-05-10T09:43:49Z</time>
      </trkpt>
      <trkpt lat="38.80281" lon="-9.10909">
        <ele>3.98</ele>
        <time>2019-05-10T09:44:03Z</time>
      </trkpt>
      <trkpt lat="38.80283" lon="-9.10907">
        <ele>3.5</ele>
        <time>2019-05-10T09:44:05Z</time>
      </trkpt>
      <trkpt lat="38.80301" lon="-9.10897">
        <ele>3.5</ele>
        <time>2019-05-10T09:44:21Z</time>
      </trkpt>
      <trkpt lat="38.80312" lon="-9.10889">
        <ele>3.5</ele>
        <time>2019-05-10T09:44:34Z</time>
      </trkpt>
      <trkpt lat="38.80319" lon="-9.10885">
        <ele>3.5</ele>
        <time>2019-05-10T09:44:40Z</time>
      </trkpt>
      <trkpt lat="38.80327" lon="-9.1088">
        <ele>3.98</ele>
        <time>2019-05-10T09:44:48Z</time>
      </trkpt>
      <trkpt lat="38.80345" lon="-9.10868">
        <ele>3.98</ele>
        <time>2019-05-10T09:45:05Z</time>
      </trkpt>
      <trkpt lat="38.80349" lon="-9.10865">
        <ele>3.98</ele>
        <time>2019-05-10T09:45:09Z</time>
      </trkpt>
      <trkpt lat="38.80351" lon="-9.10863">
        <ele>3.5</ele>
        <time>2019-05-10T09:45:11Z</time>
      </trkpt>
      <trkpt lat="38.80356" lon="-9.1086">
        <ele>3.98</ele>
        <time>2019-05-10T09:45:16Z</time>
      </trkpt>
      <trkpt lat="38.80371" lon="-9.10849">
        <ele>3.02</ele>
        <time>2019-05-10T09:45:30Z</time>
      </trkpt>
      <trkpt lat="38.80377" lon="-9.10846">
        <ele>3.5</ele>
        <time>2019-05-10T09:45:35Z</time>
      </trkpt>
      <trkpt lat="38.80383" lon="-9.10843">
        <ele>3.5</ele>
        <time>2019-05-10T09:45:40Z</time>
      </trkpt>
      <trkpt lat="38.80388" lon="-9.10839">
        <ele>3.98</ele>
        <time>2019-05-10T09:45:45Z</time>
      </trkpt>
      <trkpt lat="38.80393" lon="-9.10835">
        <ele>3.5</ele>
        <time>2019-05-10T09:45:50Z</time>
      </trkpt>
      <trkpt lat="38.80395" lon="-9.10833">
        <ele>3.5</ele>
        <time>2019-05-10T09:45:52Z</time>
      </trkpt>
      <trkpt lat="38.80399" lon="-9.10829">
        <ele>3.98</ele>
        <time>2019-05-10T09:45:57Z</time>
      </trkpt>
      <trkpt lat="38.80414" lon="-9.10811">
        <ele>3.5</ele>
        <time>2019-05-10T09:46:14Z</time>
      </trkpt>
      <trkpt lat="38.80431" lon="-9.10791">
        <ele>3.98</ele>
        <time>2019-05-10T09:46:33Z</time>
      </trkpt>
      <trkpt lat="38.80442" lon="-9.10775">
        <ele>3.02</ele>
        <time>2019-05-10T09:46:47Z</time>
      </trkpt>
      <trkpt lat="38.80455" lon="-9.10758">
        <ele>3.02</ele>
        <time>2019-05-10T09:47:03Z</time>
      </trkpt>
      <trkpt lat="38.80468" lon="-9.10739">
        <ele>4.46</ele>
        <time>2019-05-10T09:47:20Z</time>
      </trkpt>
      <trkpt lat="38.80479" lon="-9.10726">
        <ele>3.98</ele>
        <time>2019-05-10T09:47:33Z</time>
      </trkpt>
      <trkpt lat="38.80491" lon="-9.1071">
        <ele>4.46</ele>
        <time>2019-05-10T09:47:49Z</time>
      </trkpt>
      <trkpt lat="38.80493" lon="-9.1071">
        <ele>3.5</ele>
        <time>2019-05-10T09:48:04Z</time>
      </trkpt>
      <trkpt lat="38.80493" lon="-9.10709">
        <ele>3.98</ele>
        <time>2019-05-10T09:48:32Z</time>
      </trkpt>
      <trkpt lat="38.80493" lon="-9.10709">
        <ele>3.5</ele>
        <time>2019-05-10T09:49:04Z</time>
      </trkpt>
      <trkpt lat="38.80492" lon="-9.10709">
        <ele>3.98</ele>
        <time>2019-05-10T09:49:29Z</time>
      </trkpt>
      <trkpt lat="38.80493" lon="-9.10708">
        <ele>3.98</ele>
        <time>2019-05-10T09:49:51Z</time>
      </trkpt>
      <trkpt lat="38.80493" lon="-9.10708">
        <ele>4.46</ele>
        <time>2019-05-10T09:49:57Z</time>
      </trkpt>
      <trkpt lat="38.80495" lon="-9.10706">
        <ele>4.46</ele>
        <time>2019-05-10T09:50:11Z</time>
      </trkpt>
      <trkpt lat="38.80496" lon="-9.10706">
        <ele>4.46</ele>
        <time>2019-05-10T09:50:12Z</time>
      </trkpt>
      <trkpt lat="38.80501" lon="-9.107">
        <ele>4.46</ele>
        <time>2019-05-10T09:50:25Z</time>
      </trkpt>
      <trkpt lat="38.8051" lon="-9.10693">
        <ele>4.46</ele>
        <time>2019-05-10T09:50:36Z</time>
      </trkpt>
      <trkpt lat="38.80523" lon="-9.1068">
        <ele>4.46</ele>
        <time>2019-05-10T09:50:49Z</time>
      </trkpt>
      <trkpt lat="38.80541" lon="-9.10663">
        <ele>3.98</ele>
        <time>2019-05-10T09:51:06Z</time>
      </trkpt>
      <trkpt lat="38.80558" lon="-9.1065">
        <ele>4.46</ele>
        <time>2019-05-10T09:51:21Z</time>
      </trkpt>
      <trkpt lat="38.80575" lon="-9.1064">
        <ele>3.98</ele>
        <time>2019-05-10T09:51:36Z</time>
      </trkpt>
      <trkpt lat="38.80593" lon="-9.1063">
        <ele>3.98</ele>
        <time>2019-05-10T09:51:51Z</time>
      </trkpt>
      <trkpt lat="38.8061" lon="-9.10621">
        <ele>3.98</ele>
        <time>2019-05-10T09:52:06Z</time>
      </trkpt>
      <trkpt lat="38.80629" lon="-9.10614">
        <ele>3.5</ele>
        <time>2019-05-10T09:52:22Z</time>
      </trkpt>
      <trkpt lat="38.80648" lon="-9.1061">
        <ele>3.98</ele>
        <time>2019-05-10T09:52:37Z</time>
      </trkpt>
      <trkpt lat="38.80668" lon="-9.10604">
        <ele>3.98</ele>
        <time>2019-05-10T09:52:53Z</time>
      </trkpt>
      <trkpt lat="38.8068" lon="-9.10602">
        <ele>3.98</ele>
        <time>2019-05-10T09:53:03Z</time>
      </trkpt>
      <trkpt lat="38.80688" lon="-9.10601">
        <ele>3.98</ele>
        <time>2019-05-10T09:53:09Z</time>
      </trkpt>
      <trkpt lat="38.80705" lon="-9.10597">
        <ele>4.46</ele>
        <time>2019-05-10T09:53:23Z</time>
      </trkpt>
      <trkpt lat="38.80724" lon="-9.10594">
        <ele>3.98</ele>
        <time>2019-05-10T09:53:38Z</time>
      </trkpt>
      <trkpt lat="38.80737" lon="-9.10592">
        <ele>4.46</ele>
        <time>2019-05-10T09:53:49Z</time>
      </trkpt>
      <trkpt lat="38.8074" lon="-9.10592">
        <ele>3.98</ele>
        <time>2019-05-10T09:53:51Z</time>
      </trkpt>
      <trkpt lat="38.80757" lon="-9.10588">
        <ele>4.46</ele>
        <time>2019-05-10T09:54:04Z</time>
      </trkpt>
      <trkpt lat="38.80762" lon="-9.10587">
        <ele>4.46</ele>
        <time>2019-05-10T09:54:08Z</time>
      </trkpt>
      <trkpt lat="38.80771" lon="-9.10586">
        <ele>3.98</ele>
        <time>2019-05-10T09:54:15Z</time>
      </trkpt>
      <trkpt lat="38.80791" lon="-9.10587">
        <ele>4.46</ele>
        <time>2019-05-10T09:54:31Z</time>
      </trkpt>
      <trkpt lat="38.80811" lon="-9.10589">
        <ele>3.98</ele>
        <time>2019-05-10T09:54:47Z</time>
      </trkpt>
      <trkpt lat="38.80831" lon="-9.1059">
        <ele>3.98</ele>
        <time>2019-05-10T09:55:02Z</time>
      </trkpt>
      <trkpt lat="38.80847" lon="-9.10591">
        <ele>3.98</ele>
        <time>2019-05-10T09:55:15Z</time>
      </trkpt>
      <trkpt lat="38.80848" lon="-9.10591">
        <ele>3.5</ele>
        <time>2019-05-10T09:55:16Z</time>
      </trkpt>
      <trkpt lat="38.80868" lon="-9.10593">
        <ele>4.46</ele>
        <time>2019-05-10T09:55:31Z</time>
      </trkpt>
      <trkpt lat="38.80889" lon="-9.10597">
        <ele>3.98</ele>
        <time>2019-05-10T09:55:47Z</time>
      </trkpt>
      <trkpt lat="38.80907" lon="-9.106">
        <ele>3.98</ele>
        <time>2019-05-10T09:56:01Z</time>
      </trkpt>
      <trkpt lat="38.80927" lon="-9.10608">
        <ele>3.5</ele>
        <time>2019-05-10T09:56:17Z</time>
      </trkpt>
      <trkpt lat="38.80935" lon="-9.10612">
        <ele>4.46</ele>
        <time>2019-05-10T09:56:24Z</time>
      </trkpt>
      <trkpt lat="38.80955" lon="-9.10619">
        <ele>3.5</ele>
        <time>2019-05-10T09:56:40Z</time>
      </trkpt>
      <trkpt lat="38.80975" lon="-9.1063">
        <ele>3.5</ele>
        <time>2019-05-10T09:56:56Z</time>
      </trkpt>
      <trkpt lat="38.80995" lon="-9.10638">
        <ele>3.98</ele>
        <time>2019-05-10T09:57:12Z</time>
      </trkpt>
      <trkpt lat="38.81013" lon="-9.10648">
        <ele>3.5</ele>
        <time>2019-05-10T09:57:27Z</time>
      </trkpt>
      <trkpt lat="38.81033" lon="-9.10661">
        <ele>3.5</ele>
        <time>2019-05-10T09:57:45Z</time>
      </trkpt>
      <trkpt lat="38.81052" lon="-9.10672">
        <ele>3.98</ele>
        <time>2019-05-10T09:58:02Z</time>
      </trkpt>
      <trkpt lat="38.81068" lon="-9.10683">
        <ele>4.46</ele>
        <time>2019-05-10T09:58:16Z</time>
      </trkpt>
      <trkpt lat="38.81087" lon="-9.10696">
        <ele>3.98</ele>
        <time>2019-05-10T09:58:33Z</time>
      </trkpt>
      <trkpt lat="38.81105" lon="-9.10711">
        <ele>4.94</ele>
        <time>2019-05-10T09:58:50Z</time>
      </trkpt>
      <trkpt lat="38.8112" lon="-9.10724">
        <ele>3.98</ele>
        <time>2019-05-10T09:59:05Z</time>
      </trkpt>
      <trkpt lat="38.81135" lon="-9.10739">
        <ele>3.5</ele>
        <time>2019-05-10T09:59:20Z</time>
      </trkpt>
      <trkpt lat="38.81154" lon="-9.10756">
        <ele>4.46</ele>
        <time>2019-05-10T09:59:37Z</time>
      </trkpt>
      <trkpt lat="38.8117" lon="-9.10772">
        <ele>3.98</ele>
        <time>2019-05-10T09:59:53Z</time>
      </trkpt>
      <trkpt lat="38.81178" lon="-9.10789">
        <ele>4.46</ele>
        <time>2019-05-10T10:00:06Z</time>
      </trkpt>
      <trkpt lat="38.81186" lon="-9.10807">
        <ele>3.5</ele>
        <time>2019-05-10T10:00:18Z</time>
      </trkpt>
      <trkpt lat="38.81193" lon="-9.10826">
        <ele>4.46</ele>
        <time>2019-05-10T10:00:31Z</time>
      </trkpt>
      <trkpt lat="38.81194" lon="-9.10827">
        <ele>3.5</ele>
        <time>2019-05-10T10:00:32Z</time>
      </trkpt>
      <trkpt lat="38.81204" lon="-9.1085">
        <ele>4.46</ele>
        <time>2019-05-10T10:00:49Z</time>
      </trkpt>
      <trkpt lat="38.81208" lon="-9.10858">
        <ele>4.46</ele>
        <time>2019-05-10T10:01:02Z</time>
      </trkpt>
      <trkpt lat="38.81208" lon="-9.10859">
        <ele>4.46</ele>
        <time>2019-05-10T10:01:30Z</time>
      </trkpt>
      <trkpt lat="38.81213" lon="-9.10871">
        <ele>3.98</ele>
        <time>2019-05-10T10:01:43Z</time>
      </trkpt>
      <trkpt lat="38.81221" lon="-9.10889">
        <ele>3.98</ele>
        <time>2019-05-10T10:01:58Z</time>
      </trkpt>
      <trkpt lat="38.81225" lon="-9.10901">
        <ele>4.46</ele>
        <time>2019-05-10T10:02:13Z</time>
      </trkpt>
      <trkpt lat="38.81225" lon="-9.10897">
        <ele>4.94</ele>
        <time>2019-05-10T10:02:47Z</time>
      </trkpt>
      <trkpt lat="38.81225" lon="-9.109">
        <ele>4.94</ele>
        <time>2019-05-10T10:03:12Z</time>
      </trkpt>
      <trkpt lat="38.81226" lon="-9.109">
        <ele>4.46</ele>
        <time>2019-05-10T10:03:30Z</time>
      </trkpt>
      <trkpt lat="38.81227" lon="-9.10902">
        <ele>4.46</ele>
        <time>2019-05-10T10:03:32Z</time>
      </trkpt>
      <trkpt lat="38.8123" lon="-9.10907">
        <ele>4.94</ele>
        <time>2019-05-10T10:03:36Z</time>
      </trkpt>
      <trkpt lat="38.81239" lon="-9.10929">
        <ele>5.42</ele>
        <time>2019-05-10T10:03:52Z</time>
      </trkpt>
      <trkpt lat="38.81243" lon="-9.1094">
        <ele>4.46</ele>
        <time>2019-05-10T10:04:03Z</time>
      </trkpt>
      <trkpt lat="38.8125" lon="-9.10958">
        <ele>5.42</ele>
        <time>2019-05-10T10:04:16Z</time>
      </trkpt>
      <trkpt lat="38.81253" lon="-9.10964">
        <ele>5.42</ele>
        <time>2019-05-10T10:04:20Z</time>
      </trkpt>
      <trkpt lat="38.81264" lon="-9.10985">
        <ele>4.94</ele>
        <time>2019-05-10T10:04:37Z</time>
      </trkpt>
      <trkpt lat="38.81269" lon="-9.10996">
        <ele>4.94</ele>
        <time>2019-05-10T10:04:47Z</time>
      </trkpt>
      <trkpt lat="38.8127" lon="-9.10998">
        <ele>5.42</ele>
        <time>2019-05-10T10:04:49Z</time>
      </trkpt>
      <trkpt lat="38.81282" lon="-9.11018">
        <ele>4.94</ele>
        <time>2019-05-10T10:05:05Z</time>
      </trkpt>
      <trkpt lat="38.81284" lon="-9.11022">
        <ele>4.94</ele>
        <time>2019-05-10T10:05:08Z</time>
      </trkpt>
      <trkpt lat="38.81291" lon="-9.11038">
        <ele>4.46</ele>
        <time>2019-05-10T10:05:20Z</time>
      </trkpt>
      <trkpt lat="38.813" lon="-9.11049">
        <ele>4.94</ele>
        <time>2019-05-10T10:05:33Z</time>
      </trkpt>
      <trkpt lat="38.81303" lon="-9.11051">
        <ele>5.42</ele>
        <time>2019-05-10T10:05:36Z</time>
      </trkpt>
      <trkpt lat="38.81315" lon="-9.11068">
        <ele>4.94</ele>
        <time>2019-05-10T10:05:51Z</time>
      </trkpt>
      <trkpt lat="38.81329" lon="-9.11079">
        <ele>4.94</ele>
        <time>2019-05-10T10:06:05Z</time>
      </trkpt>
      <trkpt lat="38.81341" lon="-9.11087">
        <ele>4.46</ele>
        <time>2019-05-10T10:06:19Z</time>
      </trkpt>
      <trkpt lat="38.81353" lon="-9.11098">
        <ele>4.94</ele>
        <time>2019-05-10T10:06:32Z</time>
      </trkpt>
      <trkpt lat="38.81362" lon="-9.11103">
        <ele>4.94</ele>
        <time>2019-05-10T10:06:40Z</time>
      </trkpt>
      <trkpt lat="38.81381" lon="-9.11114">
        <ele>3.98</ele>
        <time>2019-05-10T10:06:57Z</time>
      </trkpt>
      <trkpt lat="38.81385" lon="-9.11114">
        <ele>4.46</ele>
        <time>2019-05-10T10:07:03Z</time>
      </trkpt>
      <trkpt lat="38.81392" lon="-9.11114">
        <ele>4.94</ele>
        <time>2019-05-10T10:07:16Z</time>
      </trkpt>
      <trkpt lat="38.81393" lon="-9.11112">
        <ele>4.94</ele>
        <time>2019-05-10T10:07:39Z</time>
      </trkpt>
      <trkpt lat="38.81393" lon="-9.11109">
        <ele>4.94</ele>
        <time>2019-05-10T10:08:13Z</time>
      </trkpt>
      <trkpt lat="38.81392" lon="-9.11111">
        <ele>4.46</ele>
        <time>2019-05-10T10:08:42Z</time>
      </trkpt>
      <trkpt lat="38.81391" lon="-9.11112">
        <ele>4.94</ele>
        <time>2019-05-10T10:09:07Z</time>
      </trkpt>
      <trkpt lat="38.81392" lon="-9.11114">
        <ele>3.98</ele>
        <time>2019-05-10T10:09:40Z</time>
      </trkpt>
      <trkpt lat="38.81392" lon="-9.11115">
        <ele>4.46</ele>
        <time>2019-05-10T10:09:56Z</time>
      </trkpt>
      <trkpt lat="38.81393" lon="-9.11112">
        <ele>4.46</ele>
        <time>2019-05-10T10:10:18Z</time>
      </trkpt>
      <trkpt lat="38.81392" lon="-9.11112">
        <ele>3.98</ele>
        <time>2019-05-10T10:10:45Z</time>
      </trkpt>
      <trkpt lat="38.81392" lon="-9.11111">
        <ele>3.98</ele>
        <time>2019-05-10T10:11:05Z</time>
      </trkpt>
      <trkpt lat="38.81394" lon="-9.11114">
        <ele>4.46</ele>
        <time>2019-05-10T10:11:35Z</time>
      </trkpt>
      <trkpt lat="38.81394" lon="-9.11112">
        <ele>3.98</ele>
        <time>2019-05-10T10:12:04Z</time>
      </trkpt>
      <trkpt lat="38.81394" lon="-9.11112">
        <ele>4.46</ele>
        <time>2019-05-10T10:12:27Z</time>
      </trkpt>
      <trkpt lat="38.81392" lon="-9.11115">
        <ele>3.98</ele>
        <time>2019-05-10T10:12:47Z</time>
      </trkpt>
      <trkpt lat="38.81392" lon="-9.11116">
        <ele>3.98</ele>
        <time>2019-05-10T10:13:09Z</time>
      </trkpt>
      <trkpt lat="38.81392" lon="-9.11114">
        <ele>3.98</ele>
        <time>2019-05-10T10:13:31Z</time>
      </trkpt>
      <trkpt lat="38.81394" lon="-9.11112">
        <ele>4.94</ele>
        <time>2019-05-10T10:13:46Z</time>
      </trkpt>
      <trkpt lat="38.81393" lon="-9.11113">
        <ele>3.5</ele>
        <time>2019-05-10T10:14:01Z</time>
      </trkpt>
      <trkpt lat="38.81392" lon="-9.11115">
        <ele>3.5</ele>
        <time>2019-05-10T10:14:32Z</time>
      </trkpt>
      <trkpt lat="38.81393" lon="-9.11113">
        <ele>4.46</ele>
        <time>2019-05-10T10:14:45Z</time>
      </trkpt>
      <trkpt lat="38.81392" lon="-9.11112">
        <ele>4.46</ele>
        <time>2019-05-10T10:14:58Z</time>
      </trkpt>
      <trkpt lat="38.81394" lon="-9.1111">
        <ele>4.46</ele>
        <time>2019-05-10T10:15:21Z</time>
      </trkpt>
      <trkpt lat="38.81395" lon="-9.11112">
        <ele>4.94</ele>
        <time>2019-05-10T10:15:38Z</time>
      </trkpt>
      <trkpt lat="38.81394" lon="-9.11113">
        <ele>4.94</ele>
        <time>2019-05-10T10:15:59Z</time>
      </trkpt>
      <trkpt lat="38.81393" lon="-9.11113">
        <ele>4.46</ele>
        <time>2019-05-10T10:16:17Z</time>
      </trkpt>
      <trkpt lat="38.81393" lon="-9.11114">
        <ele>4.46</ele>
        <time>2019-05-10T10:16:34Z</time>
      </trkpt>
      <trkpt lat="38.81393" lon="-9.11115">
        <ele>4.94</ele>
        <time>2019-05-10T10:16:52Z</time>
      </trkpt>
      <trkpt lat="38.81394" lon="-9.11116">
        <ele>3.98</ele>
        <time>2019-05-10T10:16:54Z</time>
      </trkpt>
      <trkpt lat="38.81408" lon="-9.11122">
        <ele>3.98</ele>
        <time>2019-05-10T10:17:09Z</time>
      </trkpt>
      <trkpt lat="38.81424" lon="-9.11126">
        <ele>3.98</ele>
        <time>2019-05-10T10:17:24Z</time>
      </trkpt>
      <trkpt lat="38.81437" lon="-9.1113">
        <ele>4.94</ele>
        <time>2019-05-10T10:17:40Z</time>
      </trkpt>
      <trkpt lat="38.81438" lon="-9.1113">
        <ele>4.94</ele>
        <time>2019-05-10T10:17:42Z</time>
      </trkpt>
      <trkpt lat="38.81445" lon="-9.11134">
        <ele>4.94</ele>
        <time>2019-05-10T10:17:49Z</time>
      </trkpt>
      <trkpt lat="38.81452" lon="-9.11137">
        <ele>4.94</ele>
        <time>2019-05-10T10:17:55Z</time>
      </trkpt>
      <trkpt lat="38.8146" lon="-9.1114">
        <ele>4.46</ele>
        <time>2019-05-10T10:18:08Z</time>
      </trkpt>
      <trkpt lat="38.81476" lon="-9.11145">
        <ele>4.46</ele>
        <time>2019-05-10T10:18:22Z</time>
      </trkpt>
      <trkpt lat="38.81493" lon="-9.11147">
        <ele>4.94</ele>
        <time>2019-05-10T10:18:36Z</time>
      </trkpt>
      <trkpt lat="38.815" lon="-9.11147">
        <ele>4.94</ele>
        <time>2019-05-10T10:18:41Z</time>
      </trkpt>
      <trkpt lat="38.81502" lon="-9.11147">
        <ele>4.94</ele>
        <time>2019-05-10T10:18:43Z</time>
      </trkpt>
      <trkpt lat="38.81504" lon="-9.11147">
        <ele>5.42</ele>
        <time>2019-05-10T10:18:45Z</time>
      </trkpt>
      <trkpt lat="38.81506" lon="-9.11148">
        <ele>4.94</ele>
        <time>2019-05-10T10:18:47Z</time>
      </trkpt>
      <trkpt lat="38.8151" lon="-9.11148">
        <ele>5.42</ele>
        <time>2019-05-10T10:18:50Z</time>
      </trkpt>
      <trkpt lat="38.81529" lon="-9.11149">
        <ele>5.42</ele>
        <time>2019-05-10T10:19:05Z</time>
      </trkpt>
      <trkpt lat="38.81543" lon="-9.11149">
        <ele>5.91</ele>
        <time>2019-05-10T10:19:16Z</time>
      </trkpt>
      <trkpt lat="38.81551" lon="-9.1115">
        <ele>5.42</ele>
        <time>2019-05-10T10:19:23Z</time>
      </trkpt>
      <trkpt lat="38.81557" lon="-9.11148">
        <ele>6.39</ele>
        <time>2019-05-10T10:19:27Z</time>
      </trkpt>
      <trkpt lat="38.8158" lon="-9.11146">
        <ele>4.94</ele>
        <time>2019-05-10T10:19:45Z</time>
      </trkpt>
      <trkpt lat="38.81584" lon="-9.11145">
        <ele>5.42</ele>
        <time>2019-05-10T10:19:49Z</time>
      </trkpt>
      <trkpt lat="38.81604" lon="-9.1114">
        <ele>5.42</ele>
        <time>2019-05-10T10:20:05Z</time>
      </trkpt>
      <trkpt lat="38.81618" lon="-9.11136">
        <ele>5.42</ele>
        <time>2019-05-10T10:20:17Z</time>
      </trkpt>
      <trkpt lat="38.81634" lon="-9.1113">
        <ele>5.91</ele>
        <time>2019-05-10T10:20:31Z</time>
      </trkpt>
      <trkpt lat="38.81652" lon="-9.11122">
        <ele>5.42</ele>
        <time>2019-05-10T10:20:46Z</time>
      </trkpt>
      <trkpt lat="38.81655" lon="-9.11121">
        <ele>5.42</ele>
        <time>2019-05-10T10:20:52Z</time>
      </trkpt>
      <trkpt lat="38.81666" lon="-9.11115">
        <ele>5.42</ele>
        <time>2019-05-10T10:21:03Z</time>
      </trkpt>
      <trkpt lat="38.81682" lon="-9.11109">
        <ele>4.94</ele>
        <time>2019-05-10T10:21:17Z</time>
      </trkpt>
      <trkpt lat="38.817" lon="-9.11102">
        <ele>4.46</ele>
        <time>2019-05-10T10:21:32Z</time>
      </trkpt>
      <trkpt lat="38.81716" lon="-9.11095">
        <ele>4.94</ele>
        <time>2019-05-10T10:21:46Z</time>
      </trkpt>
      <trkpt lat="38.8172" lon="-9.11093">
        <ele>5.42</ele>
        <time>2019-05-10T10:21:50Z</time>
      </trkpt>
      <trkpt lat="38.81738" lon="-9.11085">
        <ele>5.42</ele>
        <time>2019-05-10T10:22:05Z</time>
      </trkpt>
      <trkpt lat="38.81754" lon="-9.11079">
        <ele>4.94</ele>
        <time>2019-05-10T10:22:18Z</time>
      </trkpt>
      <trkpt lat="38.81769" lon="-9.11071">
        <ele>4.94</ele>
        <time>2019-05-10T10:22:32Z</time>
      </trkpt>
      <trkpt lat="38.81786" lon="-9.11063">
        <ele>4.94</ele>
        <time>2019-05-10T10:22:46Z</time>
      </trkpt>
      <trkpt lat="38.81805" lon="-9.11054">
        <ele>4.94</ele>
        <time>2019-05-10T10:23:03Z</time>
      </trkpt>
      <trkpt lat="38.81826" lon="-9.11047">
        <ele>4.46</ele>
        <time>2019-05-10T10:23:20Z</time>
      </trkpt>
      <trkpt lat="38.81843" lon="-9.11044">
        <ele>4.94</ele>
        <time>2019-05-10T10:23:35Z</time>
      </trkpt>
      <trkpt lat="38.81864" lon="-9.11042">
        <ele>4.94</ele>
        <time>2019-05-10T10:23:52Z</time>
      </trkpt>
      <trkpt lat="38.81867" lon="-9.11042">
        <ele>5.42</ele>
        <time>2019-05-10T10:23:55Z</time>
      </trkpt>
      <trkpt lat="38.81881" lon="-9.1104">
        <ele>5.42</ele>
        <time>2019-05-10T10:24:06Z</time>
      </trkpt>
      <trkpt lat="38.81893" lon="-9.1104">
        <ele>4.46</ele>
        <time>2019-05-10T10:24:16Z</time>
      </trkpt>
      <trkpt lat="38.81912" lon="-9.1104">
        <ele>5.42</ele>
        <time>2019-05-10T10:24:31Z</time>
      </trkpt>
      <trkpt lat="38.81917" lon="-9.1104">
        <ele>4.46</ele>
        <time>2019-05-10T10:24:44Z</time>
      </trkpt>
      <trkpt lat="38.81935" lon="-9.11043">
        <ele>4.94</ele>
        <time>2019-05-10T10:24:59Z</time>
      </trkpt>
      <trkpt lat="38.81952" lon="-9.11046">
        <ele>4.94</ele>
        <time>2019-05-10T10:25:14Z</time>
      </trkpt>
      <trkpt lat="38.81969" lon="-9.11051">
        <ele>4.94</ele>
        <time>2019-05-10T10:25:28Z</time>
      </trkpt>
      <trkpt lat="38.81985" lon="-9.11055">
        <ele>5.42</ele>
        <time>2019-05-10T10:25:42Z</time>
      </trkpt>
      <trkpt lat="38.81999" lon="-9.11059">
        <ele>4.94</ele>
        <time>2019-05-10T10:25:53Z</time>
      </trkpt>
      <trkpt lat="38.82018" lon="-9.11067">
        <ele>5.42</ele>
        <time>2019-05-10T10:26:09Z</time>
      </trkpt>
      <trkpt lat="38.82024" lon="-9.1107">
        <ele>4.94</ele>
        <time>2019-05-10T10:26:14Z</time>
      </trkpt>
      <trkpt lat="38.8204" lon="-9.11078">
        <ele>4.94</ele>
        <time>2019-05-10T10:26:28Z</time>
      </trkpt>
      <trkpt lat="38.82043" lon="-9.11079">
        <ele>4.94</ele>
        <time>2019-05-10T10:26:31Z</time>
      </trkpt>
      <trkpt lat="38.8206" lon="-9.11088">
        <ele>4.94</ele>
        <time>2019-05-10T10:26:47Z</time>
      </trkpt>
      <trkpt lat="38.82062" lon="-9.11088">
        <ele>4.94</ele>
        <time>2019-05-10T10:27:04Z</time>
      </trkpt>
      <trkpt lat="38.82062" lon="-9.11088">
        <ele>4.94</ele>
        <time>2019-05-10T10:27:10Z</time>
      </trkpt>
      <trkpt lat="38.82078" lon="-9.11099">
        <ele>4.94</ele>
        <time>2019-05-10T10:27:26Z</time>
      </trkpt>
      <trkpt lat="38.82093" lon="-9.11109">
        <ele>5.42</ele>
        <time>2019-05-10T10:27:40Z</time>
      </trkpt>
      <trkpt lat="38.82107" lon="-9.11119">
        <ele>5.42</ele>
        <time>2019-05-10T10:27:54Z</time>
      </trkpt>
      <trkpt lat="38.82121" lon="-9.11132">
        <ele>5.91</ele>
        <time>2019-05-10T10:28:09Z</time>
      </trkpt>
      <trkpt lat="38.82128" lon="-9.11135">
        <ele>5.91</ele>
        <time>2019-05-10T10:28:15Z</time>
      </trkpt>
      <trkpt lat="38.82135" lon="-9.11141">
        <ele>5.91</ele>
        <time>2019-05-10T10:28:22Z</time>
      </trkpt>
      <trkpt lat="38.82146" lon="-9.11149">
        <ele>4.94</ele>
        <time>2019-05-10T10:28:33Z</time>
      </trkpt>
      <trkpt lat="38.82161" lon="-9.11159">
        <ele>5.42</ele>
        <time>2019-05-10T10:28:48Z</time>
      </trkpt>
      <trkpt lat="38.82172" lon="-9.11169">
        <ele>5.91</ele>
        <time>2019-05-10T10:29:00Z</time>
      </trkpt>
      <trkpt lat="38.82173" lon="-9.1117">
        <ele>5.91</ele>
        <time>2019-05-10T10:29:01Z</time>
      </trkpt>
      <trkpt lat="38.82185" lon="-9.11181">
        <ele>5.42</ele>
        <time>2019-05-10T10:29:13Z</time>
      </trkpt>
      <trkpt lat="38.82186" lon="-9.11181">
        <ele>5.42</ele>
        <time>2019-05-10T10:29:14Z</time>
      </trkpt>
      <trkpt lat="38.82191" lon="-9.11185">
        <ele>5.91</ele>
        <time>2019-05-10T10:29:19Z</time>
      </trkpt>
      <trkpt lat="38.82192" lon="-9.11187">
        <ele>5.91</ele>
        <time>2019-05-10T10:29:21Z</time>
      </trkpt>
      <trkpt lat="38.82198" lon="-9.1119">
        <ele>5.91</ele>
        <time>2019-05-10T10:29:26Z</time>
      </trkpt>
      <trkpt lat="38.822" lon="-9.11192">
        <ele>5.91</ele>
        <time>2019-05-10T10:29:28Z</time>
      </trkpt>
      <trkpt lat="38.82214" lon="-9.11204">
        <ele>5.42</ele>
        <time>2019-05-10T10:29:43Z</time>
      </trkpt>
      <trkpt lat="38.82215" lon="-9.11204">
        <ele>5.91</ele>
        <time>2019-05-10T10:29:44Z</time>
      </trkpt>
      <trkpt lat="38.82218" lon="-9.11206">
        <ele>5.42</ele>
        <time>2019-05-10T10:29:47Z</time>
      </trkpt>
      <trkpt lat="38.82233" lon="-9.11217">
        <ele>5.42</ele>
        <time>2019-05-10T10:30:01Z</time>
      </trkpt>
      <trkpt lat="38.82245" lon="-9.11225">
        <ele>6.39</ele>
        <time>2019-05-10T10:30:12Z</time>
      </trkpt>
      <trkpt lat="38.8226" lon="-9.11239">
        <ele>6.39</ele>
        <time>2019-05-10T10:30:28Z</time>
      </trkpt>
      <trkpt lat="38.82275" lon="-9.11252">
        <ele>6.39</ele>
        <time>2019-05-10T10:30:43Z</time>
      </trkpt>
      <trkpt lat="38.82292" lon="-9.11265">
        <ele>5.91</ele>
        <time>2019-05-10T10:30:59Z</time>
      </trkpt>
      <trkpt lat="38.82298" lon="-9.11272">
        <ele>6.39</ele>
        <time>2019-05-10T10:31:06Z</time>
      </trkpt>
      <trkpt lat="38.82309" lon="-9.11288">
        <ele>5.91</ele>
        <time>2019-05-10T10:31:20Z</time>
      </trkpt>
      <trkpt lat="38.82316" lon="-9.11296">
        <ele>6.39</ele>
        <time>2019-05-10T10:31:28Z</time>
      </trkpt>
      <trkpt lat="38.8232" lon="-9.11304">
        <ele>5.91</ele>
        <time>2019-05-10T10:31:43Z</time>
      </trkpt>
      <trkpt lat="38.82322" lon="-9.11305">
        <ele>6.39</ele>
        <time>2019-05-10T10:31:56Z</time>
      </trkpt>
      <trkpt lat="38.82331" lon="-9.11317">
        <ele>5.91</ele>
        <time>2019-05-10T10:32:10Z</time>
      </trkpt>
      <trkpt lat="38.82335" lon="-9.11315">
        <ele>4.94</ele>
        <time>2019-05-10T10:32:30Z</time>
      </trkpt>
      <trkpt lat="38.82336" lon="-9.11315">
        <ele>5.42</ele>
        <time>2019-05-10T10:32:31Z</time>
      </trkpt>
      <trkpt lat="38.82342" lon="-9.11308">
        <ele>4.94</ele>
        <time>2019-05-10T10:32:46Z</time>
      </trkpt>
      <trkpt lat="38.82348" lon="-9.11297">
        <ele>5.91</ele>
        <time>2019-05-10T10:33:01Z</time>
      </trkpt>
      <trkpt lat="38.82358" lon="-9.11287">
        <ele>5.42</ele>
        <time>2019-05-10T10:33:15Z</time>
      </trkpt>
      <trkpt lat="38.82361" lon="-9.11287">
        <ele>5.42</ele>
        <time>2019-05-10T10:33:19Z</time>
      </trkpt>
      <trkpt lat="38.82372" lon="-9.1129">
        <ele>5.42</ele>
        <time>2019-05-10T10:33:28Z</time>
      </trkpt>
      <trkpt lat="38.82391" lon="-9.11301">
        <ele>4.94</ele>
        <time>2019-05-10T10:33:45Z</time>
      </trkpt>
      <trkpt lat="38.82403" lon="-9.11307">
        <ele>5.42</ele>
        <time>2019-05-10T10:33:58Z</time>
      </trkpt>
      <trkpt lat="38.82413" lon="-9.11315">
        <ele>4.46</ele>
        <time>2019-05-10T10:34:11Z</time>
      </trkpt>
      <trkpt lat="38.82423" lon="-9.11326">
        <ele>3.98</ele>
        <time>2019-05-10T10:34:23Z</time>
      </trkpt>
      <trkpt lat="38.82439" lon="-9.11343">
        <ele>3.98</ele>
        <time>2019-05-10T10:34:40Z</time>
      </trkpt>
      <trkpt lat="38.82453" lon="-9.11358">
        <ele>4.94</ele>
        <time>2019-05-10T10:34:55Z</time>
      </trkpt>
      <trkpt lat="38.82465" lon="-9.1137">
        <ele>4.46</ele>
        <time>2019-05-10T10:35:08Z</time>
      </trkpt>
      <trkpt lat="38.82469" lon="-9.11373">
        <ele>4.46</ele>
        <time>2019-05-10T10:35:23Z</time>
      </trkpt>
      <trkpt lat="38.82475" lon="-9.11379">
        <ele>3.98</ele>
        <time>2019-05-10T10:35:36Z</time>
      </trkpt>
      <trkpt lat="38.82478" lon="-9.11383">
        <ele>3.98</ele>
        <time>2019-05-10T10:35:56Z</time>
      </trkpt>
      <trkpt lat="38.82491" lon="-9.11395">
        <ele>3.5</ele>
        <time>2019-05-10T10:36:09Z</time>
      </trkpt>
      <trkpt lat="38.82493" lon="-9.11398">
        <ele>3.98</ele>
        <time>2019-05-10T10:36:11Z</time>
      </trkpt>
      <trkpt lat="38.82507" lon="-9.11412">
        <ele>4.46</ele>
        <time>2019-05-10T10:36:26Z</time>
      </trkpt>
      <trkpt lat="38.82523" lon="-9.11427">
        <ele>4.46</ele>
        <time>2019-05-10T10:36:41Z</time>
      </trkpt>
      <trkpt lat="38.82538" lon="-9.11441">
        <ele>3.5</ele>
        <time>2019-05-10T10:36:56Z</time>
      </trkpt>
      <trkpt lat="38.82551" lon="-9.11456">
        <ele>3.02</ele>
        <time>2019-05-10T10:37:10Z</time>
      </trkpt>
      <trkpt lat="38.82567" lon="-9.11468">
        <ele>3.98</ele>
        <time>2019-05-10T10:37:25Z</time>
      </trkpt>
      <trkpt lat="38.82574" lon="-9.11473">
        <ele>3.5</ele>
        <time>2019-05-10T10:37:32Z</time>
      </trkpt>
      <trkpt lat="38.82576" lon="-9.11476">
        <ele>4.46</ele>
        <time>2019-05-10T10:37:35Z</time>
      </trkpt>
      <trkpt lat="38.82588" lon="-9.11488">
        <ele>4.46</ele>
        <time>2019-05-10T10:37:49Z</time>
      </trkpt>
      <trkpt lat="38.8259" lon="-9.1149">
        <ele>3.98</ele>
        <time>2019-05-10T10:37:51Z</time>
      </trkpt>
      <trkpt lat="38.82604" lon="-9.115">
        <ele>4.94</ele>
        <time>2019-05-10T10:38:06Z</time>
      </trkpt>
      <trkpt lat="38.82607" lon="-9.11501">
        <ele>4.46</ele>
        <time>2019-05-10T10:38:21Z</time>
      </trkpt>
      <trkpt lat="38.82618" lon="-9.11506">
        <ele>5.42</ele>
        <time>2019-05-10T10:38:33Z</time>
      </trkpt>
      <trkpt lat="38.82619" lon="-9.11507">
        <ele>5.42</ele>
        <time>2019-05-10T10:38:34Z</time>
      </trkpt>
      <trkpt lat="38.82626" lon="-9.11514">
        <ele>5.42</ele>
        <time>2019-05-10T10:38:42Z</time>
      </trkpt>
      <trkpt lat="38.82642" lon="-9.11523">
        <ele>3.98</ele>
        <time>2019-05-10T10:38:56Z</time>
      </trkpt>
      <trkpt lat="38.82656" lon="-9.1153">
        <ele>4.46</ele>
        <time>2019-05-10T10:39:09Z</time>
      </trkpt>
      <trkpt lat="38.82665" lon="-9.11537">
        <ele>4.94</ele>
        <time>2019-05-10T10:39:22Z</time>
      </trkpt>
      <trkpt lat="38.82671" lon="-9.11542">
        <ele>4.94</ele>
        <time>2019-05-10T10:39:31Z</time>
      </trkpt>
      <trkpt lat="38.82673" lon="-9.11544">
        <ele>4.46</ele>
        <time>2019-05-10T10:39:34Z</time>
      </trkpt>
      <trkpt lat="38.82677" lon="-9.11544">
        <ele>4.94</ele>
        <time>2019-05-10T10:39:37Z</time>
      </trkpt>
      <trkpt lat="38.82693" lon="-9.11559">
        <ele>4.46</ele>
        <time>2019-05-10T10:39:53Z</time>
      </trkpt>
      <trkpt lat="38.82696" lon="-9.11561">
        <ele>3.98</ele>
        <time>2019-05-10T10:39:55Z</time>
      </trkpt>
      <trkpt lat="38.82704" lon="-9.11566">
        <ele>3.98</ele>
        <time>2019-05-10T10:40:02Z</time>
      </trkpt>
      <trkpt lat="38.82717" lon="-9.1157">
        <ele>4.46</ele>
        <time>2019-05-10T10:40:14Z</time>
      </trkpt>
      <trkpt lat="38.8272" lon="-9.11572">
        <ele>3.98</ele>
        <time>2019-05-10T10:40:17Z</time>
      </trkpt>
      <trkpt lat="38.82739" lon="-9.1157">
        <ele>4.46</ele>
        <time>2019-05-10T10:40:33Z</time>
      </trkpt>
      <trkpt lat="38.82746" lon="-9.11571">
        <ele>3.98</ele>
        <time>2019-05-10T10:40:39Z</time>
      </trkpt>
      <trkpt lat="38.82759" lon="-9.11571">
        <ele>3.98</ele>
        <time>2019-05-10T10:40:52Z</time>
      </trkpt>
      <trkpt lat="38.82768" lon="-9.11573">
        <ele>3.98</ele>
        <time>2019-05-10T10:41:06Z</time>
      </trkpt>
      <trkpt lat="38.82771" lon="-9.11575">
        <ele>3.98</ele>
        <time>2019-05-10T10:41:09Z</time>
      </trkpt>
      <trkpt lat="38.82776" lon="-9.11576">
        <ele>4.94</ele>
        <time>2019-05-10T10:41:13Z</time>
      </trkpt>
      <trkpt lat="38.82794" lon="-9.11575">
        <ele>4.46</ele>
        <time>2019-05-10T10:41:29Z</time>
      </trkpt>
      <trkpt lat="38.82797" lon="-9.11575">
        <ele>4.94</ele>
        <time>2019-05-10T10:41:32Z</time>
      </trkpt>
      <trkpt lat="38.82816" lon="-9.11572">
        <ele>5.42</ele>
        <time>2019-05-10T10:41:48Z</time>
      </trkpt>
      <trkpt lat="38.82824" lon="-9.11572">
        <ele>4.94</ele>
        <time>2019-05-10T10:41:57Z</time>
      </trkpt>
      <trkpt lat="38.82828" lon="-9.11571">
        <ele>4.46</ele>
        <time>2019-05-10T10:42:01Z</time>
      </trkpt>
      <trkpt lat="38.82844" lon="-9.11571">
        <ele>5.42</ele>
        <time>2019-05-10T10:42:14Z</time>
      </trkpt>
      <trkpt lat="38.8285" lon="-9.11571">
        <ele>4.94</ele>
        <time>2019-05-10T10:42:19Z</time>
      </trkpt>
      <trkpt lat="38.82856" lon="-9.1157">
        <ele>5.42</ele>
        <time>2019-05-10T10:42:24Z</time>
      </trkpt>
      <trkpt lat="38.82873" lon="-9.11569">
        <ele>5.42</ele>
        <time>2019-05-10T10:42:37Z</time>
      </trkpt>
      <trkpt lat="38.82891" lon="-9.11566">
        <ele>4.94</ele>
        <time>2019-05-10T10:42:52Z</time>
      </trkpt>
      <trkpt lat="38.829" lon="-9.11564">
        <ele>5.42</ele>
        <time>2019-05-10T10:42:59Z</time>
      </trkpt>
      <trkpt lat="38.82919" lon="-9.11559">
        <ele>4.46</ele>
        <time>2019-05-10T10:43:16Z</time>
      </trkpt>
      <trkpt lat="38.82932" lon="-9.11557">
        <ele>4.94</ele>
        <time>2019-05-10T10:43:30Z</time>
      </trkpt>
      <trkpt lat="38.82939" lon="-9.11554">
        <ele>4.94</ele>
        <time>2019-05-10T10:43:37Z</time>
      </trkpt>
      <trkpt lat="38.82952" lon="-9.11553">
        <ele>5.42</ele>
        <time>2019-05-10T10:43:49Z</time>
      </trkpt>
      <trkpt lat="38.82953" lon="-9.11553">
        <ele>5.42</ele>
        <time>2019-05-10T10:43:50Z</time>
      </trkpt>
      <trkpt lat="38.8296" lon="-9.11554">
        <ele>5.42</ele>
        <time>2019-05-10T10:44:03Z</time>
      </trkpt>
      <trkpt lat="38.82977" lon="-9.1155">
        <ele>5.91</ele>
        <time>2019-05-10T10:44:18Z</time>
      </trkpt>
      <trkpt lat="38.82985" lon="-9.11548">
        <ele>6.39</ele>
        <time>2019-05-10T10:44:25Z</time>
      </trkpt>
      <trkpt lat="38.83004" lon="-9.11546">
        <ele>6.39</ele>
        <time>2019-05-10T10:44:41Z</time>
      </trkpt>
      <trkpt lat="38.83024" lon="-9.11541">
        <ele>5.91</ele>
        <time>2019-05-10T10:44:57Z</time>
      </trkpt>
      <trkpt lat="38.83041" lon="-9.11533">
        <ele>5.91</ele>
        <time>2019-05-10T10:45:12Z</time>
      </trkpt>
      <trkpt lat="38.83058" lon="-9.11526">
        <ele>6.87</ele>
        <time>2019-05-10T10:45:28Z</time>
      </trkpt>
      <trkpt lat="38.83074" lon="-9.1152">
        <ele>6.87</ele>
        <time>2019-05-10T10:45:42Z</time>
      </trkpt>
      <trkpt lat="38.83079" lon="-9.11518">
        <ele>7.35</ele>
        <time>2019-05-10T10:45:46Z</time>
      </trkpt>
      <trkpt lat="38.83097" lon="-9.11511">
        <ele>6.87</ele>
        <time>2019-05-10T10:46:02Z</time>
      </trkpt>
      <trkpt lat="38.83107" lon="-9.11505">
        <ele>6.87</ele>
        <time>2019-05-10T10:46:14Z</time>
      </trkpt>
      <trkpt lat="38.83122" lon="-9.11497">
        <ele>7.83</ele>
        <time>2019-05-10T10:46:28Z</time>
      </trkpt>
      <trkpt lat="38.83134" lon="-9.11492">
        <ele>7.83</ele>
        <time>2019-05-10T10:46:43Z</time>
      </trkpt>
      <trkpt lat="38.83148" lon="-9.11488">
        <ele>8.79</ele>
        <time>2019-05-10T10:46:56Z</time>
      </trkpt>
      <trkpt lat="38.83164" lon="-9.11482">
        <ele>8.31</ele>
        <time>2019-05-10T10:47:10Z</time>
      </trkpt>
      <trkpt lat="38.83178" lon="-9.11478">
        <ele>8.31</ele>
        <time>2019-05-10T10:47:23Z</time>
      </trkpt>
      <trkpt lat="38.83187" lon="-9.11477">
        <ele>8.79</ele>
        <time>2019-05-10T10:47:37Z</time>
      </trkpt>
      <trkpt lat="38.83199" lon="-9.11474">
        <ele>8.79</ele>
        <time>2019-05-10T10:47:54Z</time>
      </trkpt>
      <trkpt lat="38.83204" lon="-9.11472">
        <ele>9.27</ele>
        <time>2019-05-10T10:48:00Z</time>
      </trkpt>
      <trkpt lat="38.83207" lon="-9.11472">
        <ele>9.75</ele>
        <time>2019-05-10T10:48:03Z</time>
      </trkpt>
      <trkpt lat="38.83218" lon="-9.11472">
        <ele>9.75</ele>
        <time>2019-05-10T10:48:19Z</time>
      </trkpt>
      <trkpt lat="38.83224" lon="-9.11471">
        <ele>9.75</ele>
        <time>2019-05-10T10:48:38Z</time>
      </trkpt>
      <trkpt lat="38.83238" lon="-9.11468">
        <ele>9.75</ele>
        <time>2019-05-10T10:48:54Z</time>
      </trkpt>
      <trkpt lat="38.83242" lon="-9.11468">
        <ele>10.23</ele>
        <time>2019-05-10T10:48:57Z</time>
      </trkpt>
      <trkpt lat="38.83245" lon="-9.11469">
        <ele>9.75</ele>
        <time>2019-05-10T10:49:00Z</time>
      </trkpt>
      <trkpt lat="38.83257" lon="-9.11467">
        <ele>9.75</ele>
        <time>2019-05-10T10:49:10Z</time>
      </trkpt>
      <trkpt lat="38.83276" lon="-9.11465">
        <ele>9.75</ele>
        <time>2019-05-10T10:49:25Z</time>
      </trkpt>
      <trkpt lat="38.83293" lon="-9.11462">
        <ele>9.75</ele>
        <time>2019-05-10T10:49:39Z</time>
      </trkpt>
      <trkpt lat="38.8331" lon="-9.11458">
        <ele>9.27</ele>
        <time>2019-05-10T10:49:54Z</time>
      </trkpt>
      <trkpt lat="38.8333" lon="-9.11453">
        <ele>8.79</ele>
        <time>2019-05-10T10:50:10Z</time>
      </trkpt>
      <trkpt lat="38.83349" lon="-9.11449">
        <ele>9.27</ele>
        <time>2019-05-10T10:50:25Z</time>
      </trkpt>
      <trkpt lat="38.8337" lon="-9.11449">
        <ele>8.79</ele>
        <time>2019-05-10T10:50:41Z</time>
      </trkpt>
      <trkpt lat="38.8339" lon="-9.1145">
        <ele>8.79</ele>
        <time>2019-05-10T10:50:57Z</time>
      </trkpt>
      <trkpt lat="38.83409" lon="-9.11453">
        <ele>8.79</ele>
        <time>2019-05-10T10:51:12Z</time>
      </trkpt>
      <trkpt lat="38.83427" lon="-9.11457">
        <ele>8.31</ele>
        <time>2019-05-10T10:51:27Z</time>
      </trkpt>
      <trkpt lat="38.83442" lon="-9.1146">
        <ele>8.79</ele>
        <time>2019-05-10T10:51:42Z</time>
      </trkpt>
      <trkpt lat="38.83461" lon="-9.11464">
        <ele>8.31</ele>
        <time>2019-05-10T10:51:58Z</time>
      </trkpt>
      <trkpt lat="38.83478" lon="-9.11467">
        <ele>8.31</ele>
        <time>2019-05-10T10:52:12Z</time>
      </trkpt>
      <trkpt lat="38.835" lon="-9.11471">
        <ele>9.27</ele>
        <time>2019-05-10T10:52:29Z</time>
      </trkpt>
      <trkpt lat="38.83518" lon="-9.11474">
        <ele>9.27</ele>
        <time>2019-05-10T10:52:45Z</time>
      </trkpt>
      <trkpt lat="38.83526" lon="-9.11478">
        <ele>8.79</ele>
        <time>2019-05-10T10:52:59Z</time>
      </trkpt>
      <trkpt lat="38.83546" lon="-9.11484">
        <ele>9.27</ele>
        <time>2019-05-10T10:53:16Z</time>
      </trkpt>
      <trkpt lat="38.83565" lon="-9.11486">
        <ele>8.79</ele>
        <time>2019-05-10T10:53:32Z</time>
      </trkpt>
      <trkpt lat="38.83583" lon="-9.11484">
        <ele>8.31</ele>
        <time>2019-05-10T10:53:48Z</time>
      </trkpt>
      <trkpt lat="38.83594" lon="-9.11483">
        <ele>7.83</ele>
        <time>2019-05-10T10:53:56Z</time>
      </trkpt>
      <trkpt lat="38.83602" lon="-9.11482">
        <ele>8.31</ele>
        <time>2019-05-10T10:54:03Z</time>
      </trkpt>
      <trkpt lat="38.83604" lon="-9.11482">
        <ele>8.31</ele>
        <time>2019-05-10T10:54:05Z</time>
      </trkpt>
      <trkpt lat="38.83625" lon="-9.11479">
        <ele>8.31</ele>
        <time>2019-05-10T10:54:21Z</time>
      </trkpt>
      <trkpt lat="38.8364" lon="-9.11477">
        <ele>8.31</ele>
        <time>2019-05-10T10:54:35Z</time>
      </trkpt>
      <trkpt lat="38.83644" lon="-9.11477">
        <ele>8.31</ele>
        <time>2019-05-10T10:54:45Z</time>
      </trkpt>
      <trkpt lat="38.83662" lon="-9.11471">
        <ele>8.79</ele>
        <time>2019-05-10T10:55:00Z</time>
      </trkpt>
      <trkpt lat="38.83679" lon="-9.11468">
        <ele>8.79</ele>
        <time>2019-05-10T10:55:15Z</time>
      </trkpt>
      <trkpt lat="38.83692" lon="-9.11463">
        <ele>9.27</ele>
        <time>2019-05-10T10:55:27Z</time>
      </trkpt>
      <trkpt lat="38.83713" lon="-9.11455">
        <ele>9.75</ele>
        <time>2019-05-10T10:55:45Z</time>
      </trkpt>
      <trkpt lat="38.83726" lon="-9.11445">
        <ele>10.23</ele>
        <time>2019-05-10T10:55:58Z</time>
      </trkpt>
      <trkpt lat="38.83732" lon="-9.1144">
        <ele>9.75</ele>
        <time>2019-05-10T10:56:04Z</time>
      </trkpt>
      <trkpt lat="38.83745" lon="-9.11424">
        <ele>10.23</ele>
        <time>2019-05-10T10:56:19Z</time>
      </trkpt>
      <trkpt lat="38.8376" lon="-9.11407">
        <ele>10.23</ele>
        <time>2019-05-10T10:56:35Z</time>
      </trkpt>
      <trkpt lat="38.83774" lon="-9.1139">
        <ele>10.23</ele>
        <time>2019-05-10T10:56:51Z</time>
      </trkpt>
      <trkpt lat="38.83792" lon="-9.11378">
        <ele>9.75</ele>
        <time>2019-05-10T10:57:07Z</time>
      </trkpt>
      <trkpt lat="38.83811" lon="-9.11371">
        <ele>9.27</ele>
        <time>2019-05-10T10:57:22Z</time>
      </trkpt>
      <trkpt lat="38.83827" lon="-9.11367">
        <ele>9.75</ele>
        <time>2019-05-10T10:57:36Z</time>
      </trkpt>
      <trkpt lat="38.83834" lon="-9.11367">
        <ele>9.27</ele>
        <time>2019-05-10T10:57:49Z</time>
      </trkpt>
      <trkpt lat="38.83835" lon="-9.11366">
        <ele>8.79</ele>
        <time>2019-05-10T10:57:52Z</time>
      </trkpt>
      <trkpt lat="38.83845" lon="-9.11366">
        <ele>8.79</ele>
        <time>2019-05-10T10:58:02Z</time>
      </trkpt>
      <trkpt lat="38.83861" lon="-9.11367">
        <ele>9.27</ele>
        <time>2019-05-10T10:58:16Z</time>
      </trkpt>
      <trkpt lat="38.8388" lon="-9.1137">
        <ele>8.31</ele>
        <time>2019-05-10T10:58:32Z</time>
      </trkpt>
      <trkpt lat="38.83898" lon="-9.11369">
        <ele>8.79</ele>
        <time>2019-05-10T10:58:46Z</time>
      </trkpt>
      <trkpt lat="38.83912" lon="-9.11367">
        <ele>9.27</ele>
        <time>2019-05-10T10:59:01Z</time>
      </trkpt>
      <trkpt lat="38.83929" lon="-9.11366">
        <ele>9.75</ele>
        <time>2019-05-10T10:59:16Z</time>
      </trkpt>
      <trkpt lat="38.83945" lon="-9.11365">
        <ele>9.75</ele>
        <time>2019-05-10T10:59:30Z</time>
      </trkpt>
      <trkpt lat="38.83964" lon="-9.11361">
        <ele>9.75</ele>
        <time>2019-05-10T10:59:46Z</time>
      </trkpt>
      <trkpt lat="38.83976" lon="-9.11359">
        <ele>9.75</ele>
        <time>2019-05-10T10:59:56Z</time>
      </trkpt>
      <trkpt lat="38.83994" lon="-9.11358">
        <ele>10.23</ele>
        <time>2019-05-10T11:00:12Z</time>
      </trkpt>
      <trkpt lat="38.84014" lon="-9.11356">
        <ele>10.23</ele>
        <time>2019-05-10T11:00:29Z</time>
      </trkpt>
      <trkpt lat="38.8403" lon="-9.11355">
        <ele>11.19</ele>
        <time>2019-05-10T11:00:43Z</time>
      </trkpt>
      <trkpt lat="38.84051" lon="-9.11354">
        <ele>10.71</ele>
        <time>2019-05-10T11:01:01Z</time>
      </trkpt>
      <trkpt lat="38.84067" lon="-9.11352">
        <ele>9.75</ele>
        <time>2019-05-10T11:01:15Z</time>
      </trkpt>
      <trkpt lat="38.84085" lon="-9.11349">
        <ele>8.79</ele>
        <time>2019-05-10T11:01:31Z</time>
      </trkpt>
      <trkpt lat="38.84104" lon="-9.11344">
        <ele>8.79</ele>
        <time>2019-05-10T11:01:47Z</time>
      </trkpt>
      <trkpt lat="38.84121" lon="-9.11337">
        <ele>8.79</ele>
        <time>2019-05-10T11:02:01Z</time>
      </trkpt>
      <trkpt lat="38.84137" lon="-9.11327">
        <ele>8.31</ele>
        <time>2019-05-10T11:02:17Z</time>
      </trkpt>
      <trkpt lat="38.84152" lon="-9.11318">
        <ele>8.79</ele>
        <time>2019-05-10T11:02:31Z</time>
      </trkpt>
      <trkpt lat="38.84168" lon="-9.11309">
        <ele>8.79</ele>
        <time>2019-05-10T11:02:47Z</time>
      </trkpt>
      <trkpt lat="38.8417" lon="-9.11309">
        <ele>9.27</ele>
        <time>2019-05-10T11:02:49Z</time>
      </trkpt>
      <trkpt lat="38.84178" lon="-9.11305">
        <ele>10.23</ele>
        <time>2019-05-10T11:02:56Z</time>
      </trkpt>
      <trkpt lat="38.84196" lon="-9.11305">
        <ele>10.23</ele>
        <time>2019-05-10T11:03:12Z</time>
      </trkpt>
      <trkpt lat="38.84216" lon="-9.11308">
        <ele>8.79</ele>
        <time>2019-05-10T11:03:29Z</time>
      </trkpt>
      <trkpt lat="38.84221" lon="-9.11312">
        <ele>8.79</ele>
        <time>2019-05-10T11:03:34Z</time>
      </trkpt>
      <trkpt lat="38.84226" lon="-9.11313">
        <ele>9.27</ele>
        <time>2019-05-10T11:03:38Z</time>
      </trkpt>
      <trkpt lat="38.84245" lon="-9.11324">
        <ele>7.83</ele>
        <time>2019-05-10T11:03:56Z</time>
      </trkpt>
      <trkpt lat="38.84262" lon="-9.11335">
        <ele>7.83</ele>
        <time>2019-05-10T11:04:11Z</time>
      </trkpt>
      <trkpt lat="38.84277" lon="-9.11349">
        <ele>6.87</ele>
        <time>2019-05-10T11:04:27Z</time>
      </trkpt>
      <trkpt lat="38.84293" lon="-9.11364">
        <ele>6.87</ele>
        <time>2019-05-10T11:04:43Z</time>
      </trkpt>
      <trkpt lat="38.84294" lon="-9.11365">
        <ele>6.87</ele>
        <time>2019-05-10T11:04:44Z</time>
      </trkpt>
      <trkpt lat="38.84298" lon="-9.11369">
        <ele>6.87</ele>
        <time>2019-05-10T11:04:48Z</time>
      </trkpt>
      <trkpt lat="38.84311" lon="-9.1138">
        <ele>7.35</ele>
        <time>2019-05-10T11:05:02Z</time>
      </trkpt>
      <trkpt lat="38.84324" lon="-9.1139">
        <ele>6.87</ele>
        <time>2019-05-10T11:05:16Z</time>
      </trkpt>
      <trkpt lat="38.84339" lon="-9.11402">
        <ele>7.35</ele>
        <time>2019-05-10T11:05:33Z</time>
      </trkpt>
      <trkpt lat="38.84355" lon="-9.11416">
        <ele>6.87</ele>
        <time>2019-05-10T11:05:50Z</time>
      </trkpt>
      <trkpt lat="38.84372" lon="-9.11431">
        <ele>7.35</ele>
        <time>2019-05-10T11:06:07Z</time>
      </trkpt>
      <trkpt lat="38.8439" lon="-9.11439">
        <ele>6.87</ele>
        <time>2019-05-10T11:06:23Z</time>
      </trkpt>
      <trkpt lat="38.84403" lon="-9.11436">
        <ele>7.35</ele>
        <time>2019-05-10T11:06:38Z</time>
      </trkpt>
      <trkpt lat="38.84405" lon="-9.11435">
        <ele>7.83</ele>
        <time>2019-05-10T11:06:40Z</time>
      </trkpt>
      <trkpt lat="38.8441" lon="-9.11431">
        <ele>7.83</ele>
        <time>2019-05-10T11:06:46Z</time>
      </trkpt>
      <trkpt lat="38.84423" lon="-9.1142">
        <ele>7.35</ele>
        <time>2019-05-10T11:07:00Z</time>
      </trkpt>
      <trkpt lat="38.84429" lon="-9.11415">
        <ele>7.35</ele>
        <time>2019-05-10T11:07:09Z</time>
      </trkpt>
      <trkpt lat="38.84434" lon="-9.11411">
        <ele>7.83</ele>
        <time>2019-05-10T11:07:14Z</time>
      </trkpt>
      <trkpt lat="38.84452" lon="-9.11398">
        <ele>6.87</ele>
        <time>2019-05-10T11:07:31Z</time>
      </trkpt>
      <trkpt lat="38.84468" lon="-9.11389">
        <ele>6.87</ele>
        <time>2019-05-10T11:07:46Z</time>
      </trkpt>
      <trkpt lat="38.84471" lon="-9.11387">
        <ele>6.87</ele>
        <time>2019-05-10T11:07:49Z</time>
      </trkpt>
      <trkpt lat="38.84485" lon="-9.11381">
        <ele>7.83</ele>
        <time>2019-05-10T11:08:02Z</time>
      </trkpt>
      <trkpt lat="38.84499" lon="-9.11371">
        <ele>7.83</ele>
        <time>2019-05-10T11:08:16Z</time>
      </trkpt>
      <trkpt lat="38.84514" lon="-9.11361">
        <ele>8.31</ele>
        <time>2019-05-10T11:08:30Z</time>
      </trkpt>
      <trkpt lat="38.8453" lon="-9.11352">
        <ele>8.31</ele>
        <time>2019-05-10T11:08:45Z</time>
      </trkpt>
      <trkpt lat="38.84547" lon="-9.11344">
        <ele>7.83</ele>
        <time>2019-05-10T11:09:01Z</time>
      </trkpt>
      <trkpt lat="38.84549" lon="-9.11343">
        <ele>8.31</ele>
        <time>2019-05-10T11:09:03Z</time>
      </trkpt>
      <trkpt lat="38.84562" lon="-9.11336">
        <ele>7.83</ele>
        <time>2019-05-10T11:09:14Z</time>
      </trkpt>
      <trkpt lat="38.84579" lon="-9.1132">
        <ele>8.79</ele>
        <time>2019-05-10T11:09:31Z</time>
      </trkpt>
      <trkpt lat="38.84589" lon="-9.11304">
        <ele>9.27</ele>
        <time>2019-05-10T11:09:46Z</time>
      </trkpt>
      <trkpt lat="38.84596" lon="-9.11291">
        <ele>9.27</ele>
        <time>2019-05-10T11:09:59Z</time>
      </trkpt>
      <trkpt lat="38.84597" lon="-9.11289">
        <ele>9.27</ele>
        <time>2019-05-10T11:10:01Z</time>
      </trkpt>
      <trkpt lat="38.846" lon="-9.11274">
        <ele>8.79</ele>
        <time>2019-05-10T11:10:11Z</time>
      </trkpt>
      <trkpt lat="38.84604" lon="-9.11262">
        <ele>9.27</ele>
        <time>2019-05-10T11:10:26Z</time>
      </trkpt>
      <trkpt lat="38.84613" lon="-9.1125">
        <ele>8.79</ele>
        <time>2019-05-10T11:10:40Z</time>
      </trkpt>
      <trkpt lat="38.84622" lon="-9.11243">
        <ele>8.79</ele>
        <time>2019-05-10T11:10:54Z</time>
      </trkpt>
      <trkpt lat="38.84631" lon="-9.11234">
        <ele>8.31</ele>
        <time>2019-05-10T11:11:03Z</time>
      </trkpt>
      <trkpt lat="38.84646" lon="-9.11218">
        <ele>8.31</ele>
        <time>2019-05-10T11:11:19Z</time>
      </trkpt>
      <trkpt lat="38.84664" lon="-9.11202">
        <ele>8.31</ele>
        <time>2019-05-10T11:11:37Z</time>
      </trkpt>
      <trkpt lat="38.84682" lon="-9.11188">
        <ele>7.83</ele>
        <time>2019-05-10T11:11:54Z</time>
      </trkpt>
      <trkpt lat="38.84699" lon="-9.11177">
        <ele>8.31</ele>
        <time>2019-05-10T11:12:10Z</time>
      </trkpt>
      <trkpt lat="38.84711" lon="-9.11169">
        <ele>8.79</ele>
        <time>2019-05-10T11:12:25Z</time>
      </trkpt>
      <trkpt lat="38.84721" lon="-9.11162">
        <ele>8.79</ele>
        <time>2019-05-10T11:12:39Z</time>
      </trkpt>
      <trkpt lat="38.84738" lon="-9.11152">
        <ele>8.79</ele>
        <time>2019-05-10T11:12:55Z</time>
      </trkpt>
      <trkpt lat="38.84745" lon="-9.11151">
        <ele>8.31</ele>
        <time>2019-05-10T11:13:06Z</time>
      </trkpt>
      <trkpt lat="38.8476" lon="-9.11146">
        <ele>8.79</ele>
        <time>2019-05-10T11:13:19Z</time>
      </trkpt>
      <trkpt lat="38.84777" lon="-9.11139">
        <ele>8.79</ele>
        <time>2019-05-10T11:13:34Z</time>
      </trkpt>
      <trkpt lat="38.84794" lon="-9.11131">
        <ele>9.27</ele>
        <time>2019-05-10T11:13:50Z</time>
      </trkpt>
      <trkpt lat="38.84804" lon="-9.11128">
        <ele>9.27</ele>
        <time>2019-05-10T11:14:03Z</time>
      </trkpt>
      <trkpt lat="38.84806" lon="-9.11128">
        <ele>9.27</ele>
        <time>2019-05-10T11:14:05Z</time>
      </trkpt>
      <trkpt lat="38.84818" lon="-9.11123">
        <ele>9.75</ele>
        <time>2019-05-10T11:14:17Z</time>
      </trkpt>
      <trkpt lat="38.8483" lon="-9.11115">
        <ele>9.27</ele>
        <time>2019-05-10T11:14:30Z</time>
      </trkpt>
      <trkpt lat="38.84842" lon="-9.1111">
        <ele>9.75</ele>
        <time>2019-05-10T11:14:41Z</time>
      </trkpt>
      <trkpt lat="38.84862" lon="-9.11104">
        <ele>8.79</ele>
        <time>2019-05-10T11:14:57Z</time>
      </trkpt>
      <trkpt lat="38.84872" lon="-9.11101">
        <ele>9.27</ele>
        <time>2019-05-10T11:15:08Z</time>
      </trkpt>
      <trkpt lat="38.84887" lon="-9.11097">
        <ele>8.79</ele>
        <time>2019-05-10T11:15:22Z</time>
      </trkpt>
      <trkpt lat="38.84898" lon="-9.11092">
        <ele>8.79</ele>
        <time>2019-05-10T11:15:32Z</time>
      </trkpt>
      <trkpt lat="38.84908" lon="-9.11088">
        <ele>9.27</ele>
        <time>2019-05-10T11:15:40Z</time>
      </trkpt>
      <trkpt lat="38.84913" lon="-9.11088">
        <ele>8.31</ele>
        <time>2019-05-10T11:15:44Z</time>
      </trkpt>
      <trkpt lat="38.8493" lon="-9.11086">
        <ele>8.79</ele>
        <time>2019-05-10T11:15:59Z</time>
      </trkpt>
      <trkpt lat="38.84948" lon="-9.11087">
        <ele>7.83</ele>
        <time>2019-05-10T11:16:14Z</time>
      </trkpt>
      <trkpt lat="38.84967" lon="-9.11088">
        <ele>9.27</ele>
        <time>2019-05-10T11:16:30Z</time>
      </trkpt>
      <trkpt lat="38.84972" lon="-9.11088">
        <ele>8.79</ele>
        <time>2019-05-10T11:16:35Z</time>
      </trkpt>
      <trkpt lat="38.84977" lon="-9.11089">
        <ele>8.31</ele>
        <time>2019-05-10T11:16:39Z</time>
      </trkpt>
      <trkpt lat="38.84997" lon="-9.11091">
        <ele>8.31</ele>
        <time>2019-05-10T11:16:55Z</time>
      </trkpt>
      <trkpt lat="38.85013" lon="-9.11092">
        <ele>9.27</ele>
        <time>2019-05-10T11:17:09Z</time>
      </trkpt>
      <trkpt lat="38.8502" lon="-9.11093">
        <ele>9.27</ele>
        <time>2019-05-10T11:17:20Z</time>
      </trkpt>
      <trkpt lat="38.85022" lon="-9.11092">
        <ele>8.31</ele>
        <time>2019-05-10T11:17:22Z</time>
      </trkpt>
      <trkpt lat="38.85027" lon="-9.11093">
        <ele>9.27</ele>
        <time>2019-05-10T11:17:26Z</time>
      </trkpt>
      <trkpt lat="38.85034" lon="-9.11092">
        <ele>9.27</ele>
        <time>2019-05-10T11:17:32Z</time>
      </trkpt>
      <trkpt lat="38.85055" lon="-9.1109">
        <ele>9.27</ele>
        <time>2019-05-10T11:17:49Z</time>
      </trkpt>
      <trkpt lat="38.85058" lon="-9.1109">
        <ele>9.27</ele>
        <time>2019-05-10T11:17:52Z</time>
      </trkpt>
      <trkpt lat="38.85074" lon="-9.11083">
        <ele>8.79</ele>
        <time>2019-05-10T11:18:06Z</time>
      </trkpt>
      <trkpt lat="38.85086" lon="-9.11077">
        <ele>8.79</ele>
        <time>2019-05-10T11:18:19Z</time>
      </trkpt>
      <trkpt lat="38.85103" lon="-9.11065">
        <ele>8.79</ele>
        <time>2019-05-10T11:18:35Z</time>
      </trkpt>
      <trkpt lat="38.85114" lon="-9.11057">
        <ele>9.27</ele>
        <time>2019-05-10T11:18:46Z</time>
      </trkpt>
      <trkpt lat="38.85131" lon="-9.11043">
        <ele>8.79</ele>
        <time>2019-05-10T11:19:04Z</time>
      </trkpt>
      <trkpt lat="38.85151" lon="-9.11025">
        <ele>9.27</ele>
        <time>2019-05-10T11:19:24Z</time>
      </trkpt>
      <trkpt lat="38.85164" lon="-9.11009">
        <ele>9.27</ele>
        <time>2019-05-10T11:19:40Z</time>
      </trkpt>
      <trkpt lat="38.8518" lon="-9.1099">
        <ele>9.27</ele>
        <time>2019-05-10T11:19:58Z</time>
      </trkpt>
      <trkpt lat="38.85184" lon="-9.10982">
        <ele>8.79</ele>
        <time>2019-05-10T11:20:04Z</time>
      </trkpt>
      <trkpt lat="38.85194" lon="-9.10961">
        <ele>8.79</ele>
        <time>2019-05-10T11:20:20Z</time>
      </trkpt>
      <trkpt lat="38.85204" lon="-9.10935">
        <ele>8.79</ele>
        <time>2019-05-10T11:20:38Z</time>
      </trkpt>
      <trkpt lat="38.85213" lon="-9.10921">
        <ele>9.27</ele>
        <time>2019-05-10T11:20:53Z</time>
      </trkpt>
      <trkpt lat="38.85226" lon="-9.10905">
        <ele>9.27</ele>
        <time>2019-05-10T11:21:08Z</time>
      </trkpt>
      <trkpt lat="38.85242" lon="-9.10888">
        <ele>9.27</ele>
        <time>2019-05-10T11:21:25Z</time>
      </trkpt>
      <trkpt lat="38.85259" lon="-9.10875">
        <ele>9.27</ele>
        <time>2019-05-10T11:21:42Z</time>
      </trkpt>
      <trkpt lat="38.85271" lon="-9.10868">
        <ele>9.27</ele>
        <time>2019-05-10T11:21:58Z</time>
      </trkpt>
      <trkpt lat="38.85276" lon="-9.10865">
        <ele>9.27</ele>
        <time>2019-05-10T11:22:17Z</time>
      </trkpt>
      <trkpt lat="38.85285" lon="-9.10863">
        <ele>9.75</ele>
        <time>2019-05-10T11:22:31Z</time>
      </trkpt>
      <trkpt lat="38.85291" lon="-9.1086">
        <ele>9.75</ele>
        <time>2019-05-10T11:22:46Z</time>
      </trkpt>
      <trkpt lat="38.85305" lon="-9.10852">
        <ele>9.75</ele>
        <time>2019-05-10T11:23:00Z</time>
      </trkpt>
      <trkpt lat="38.85321" lon="-9.10845">
        <ele>10.23</ele>
        <time>2019-05-10T11:23:15Z</time>
      </trkpt>
      <trkpt lat="38.85338" lon="-9.10839">
        <ele>10.71</ele>
        <time>2019-05-10T11:23:29Z</time>
      </trkpt>
      <trkpt lat="38.85353" lon="-9.10832">
        <ele>10.23</ele>
        <time>2019-05-10T11:23:43Z</time>
      </trkpt>
      <trkpt lat="38.85362" lon="-9.10826">
        <ele>10.23</ele>
        <time>2019-05-10T11:23:56Z</time>
      </trkpt>
      <trkpt lat="38.85374" lon="-9.10815">
        <ele>10.23</ele>
        <time>2019-05-10T11:24:08Z</time>
      </trkpt>
      <trkpt lat="38.85387" lon="-9.10802">
        <ele>10.23</ele>
        <time>2019-05-10T11:24:23Z</time>
      </trkpt>
      <trkpt lat="38.85393" lon="-9.10796">
        <ele>10.23</ele>
        <time>2019-05-10T11:24:29Z</time>
      </trkpt>
      <trkpt lat="38.85403" lon="-9.10786">
        <ele>10.23</ele>
        <time>2019-05-10T11:24:40Z</time>
      </trkpt>
      <trkpt lat="38.85417" lon="-9.10773">
        <ele>10.71</ele>
        <time>2019-05-10T11:24:56Z</time>
      </trkpt>
      <trkpt lat="38.85434" lon="-9.10764">
        <ele>10.71</ele>
        <time>2019-05-10T11:25:12Z</time>
      </trkpt>
      <trkpt lat="38.85436" lon="-9.10764">
        <ele>10.23</ele>
        <time>2019-05-10T11:25:14Z</time>
      </trkpt>
      <trkpt lat="38.85452" lon="-9.10758">
        <ele>11.19</ele>
        <time>2019-05-10T11:25:29Z</time>
      </trkpt>
      <trkpt lat="38.85467" lon="-9.10754">
        <ele>10.71</ele>
        <time>2019-05-10T11:25:42Z</time>
      </trkpt>
      <trkpt lat="38.85485" lon="-9.1075">
        <ele>10.71</ele>
        <time>2019-05-10T11:25:58Z</time>
      </trkpt>
      <trkpt lat="38.85502" lon="-9.10746">
        <ele>11.19</ele>
        <time>2019-05-10T11:26:13Z</time>
      </trkpt>
      <trkpt lat="38.85523" lon="-9.10741">
        <ele>10.71</ele>
        <time>2019-05-10T11:26:29Z</time>
      </trkpt>
      <trkpt lat="38.85538" lon="-9.1074">
        <ele>10.71</ele>
        <time>2019-05-10T11:26:42Z</time>
      </trkpt>
      <trkpt lat="38.85555" lon="-9.10737">
        <ele>12.15</ele>
        <time>2019-05-10T11:26:57Z</time>
      </trkpt>
      <trkpt lat="38.85571" lon="-9.10732">
        <ele>11.19</ele>
        <time>2019-05-10T11:27:11Z</time>
      </trkpt>
      <trkpt lat="38.85574" lon="-9.1073">
        <ele>11.19</ele>
        <time>2019-05-10T11:27:14Z</time>
      </trkpt>
      <trkpt lat="38.85592" lon="-9.10715">
        <ele>11.19</ele>
        <time>2019-05-10T11:27:31Z</time>
      </trkpt>
      <trkpt lat="38.85598" lon="-9.10701">
        <ele>11.67</ele>
        <time>2019-05-10T11:27:44Z</time>
      </trkpt>
      <trkpt lat="38.85598" lon="-9.107">
        <ele>11.19</ele>
        <time>2019-05-10T11:27:46Z</time>
      </trkpt>
      <trkpt lat="38.85599" lon="-9.10698">
        <ele>11.19</ele>
        <time>2019-05-10T11:27:48Z</time>
      </trkpt>
      <trkpt lat="38.85602" lon="-9.10692">
        <ele>11.67</ele>
        <time>2019-05-10T11:27:53Z</time>
      </trkpt>
      <trkpt lat="38.85605" lon="-9.1067">
        <ele>11.67</ele>
        <time>2019-05-10T11:28:09Z</time>
      </trkpt>
      <trkpt lat="38.85611" lon="-9.10652">
        <ele>12.15</ele>
        <time>2019-05-10T11:28:22Z</time>
      </trkpt>
      <trkpt lat="38.85615" lon="-9.10634">
        <ele>12.15</ele>
        <time>2019-05-10T11:28:36Z</time>
      </trkpt>
      <trkpt lat="38.85622" lon="-9.10619">
        <ele>12.15</ele>
        <time>2019-05-10T11:28:48Z</time>
      </trkpt>
      <trkpt lat="38.85626" lon="-9.106">
        <ele>12.15</ele>
        <time>2019-05-10T11:29:01Z</time>
      </trkpt>
      <trkpt lat="38.8563" lon="-9.10586">
        <ele>12.63</ele>
        <time>2019-05-10T11:29:12Z</time>
      </trkpt>
      <trkpt lat="38.85637" lon="-9.1056">
        <ele>12.15</ele>
        <time>2019-05-10T11:29:29Z</time>
      </trkpt>
      <trkpt lat="38.85645" lon="-9.1054">
        <ele>12.63</ele>
        <time>2019-05-10T11:29:44Z</time>
      </trkpt>
      <trkpt lat="38.85648" lon="-9.10533">
        <ele>12.63</ele>
        <time>2019-05-10T11:29:57Z</time>
      </trkpt>
      <trkpt lat="38.85656" lon="-9.10512">
        <ele>13.12</ele>
        <time>2019-05-10T11:30:12Z</time>
      </trkpt>
      <trkpt lat="38.85664" lon="-9.10489">
        <ele>13.6</ele>
        <time>2019-05-10T11:30:29Z</time>
      </trkpt>
      <trkpt lat="38.85671" lon="-9.10472">
        <ele>13.12</ele>
        <time>2019-05-10T11:30:41Z</time>
      </trkpt>
      <trkpt lat="38.85675" lon="-9.10465">
        <ele>13.6</ele>
        <time>2019-05-10T11:30:46Z</time>
      </trkpt>
      <trkpt lat="38.85681" lon="-9.10447">
        <ele>13.6</ele>
        <time>2019-05-10T11:30:59Z</time>
      </trkpt>
      <trkpt lat="38.85683" lon="-9.10442">
        <ele>14.08</ele>
        <time>2019-05-10T11:31:03Z</time>
      </trkpt>
      <trkpt lat="38.85686" lon="-9.10432">
        <ele>13.12</ele>
        <time>2019-05-10T11:31:12Z</time>
      </trkpt>
      <trkpt lat="38.85684" lon="-9.10421">
        <ele>13.6</ele>
        <time>2019-05-10T11:31:18Z</time>
      </trkpt>
      <trkpt lat="38.85684" lon="-9.10415">
        <ele>14.08</ele>
        <time>2019-05-10T11:31:22Z</time>
      </trkpt>
      <trkpt lat="38.85696" lon="-9.10394">
        <ele>14.08</ele>
        <time>2019-05-10T11:31:38Z</time>
      </trkpt>
      <trkpt lat="38.85707" lon="-9.10371">
        <ele>13.6</ele>
        <time>2019-05-10T11:31:54Z</time>
      </trkpt>
      <trkpt lat="38.85715" lon="-9.10347">
        <ele>13.6</ele>
        <time>2019-05-10T11:32:11Z</time>
      </trkpt>
      <trkpt lat="38.85719" lon="-9.10322">
        <ele>14.08</ele>
        <time>2019-05-10T11:32:28Z</time>
      </trkpt>
      <trkpt lat="38.85723" lon="-9.103">
        <ele>14.56</ele>
        <time>2019-05-10T11:32:45Z</time>
      </trkpt>
      <trkpt lat="38.85723" lon="-9.10296">
        <ele>15.04</ele>
        <time>2019-05-10T11:32:48Z</time>
      </trkpt>
      <trkpt lat="38.85719" lon="-9.10277">
        <ele>15.04</ele>
        <time>2019-05-10T11:33:01Z</time>
      </trkpt>
      <trkpt lat="38.85717" lon="-9.10262">
        <ele>15.52</ele>
        <time>2019-05-10T11:33:14Z</time>
      </trkpt>
      <trkpt lat="38.85716" lon="-9.1025">
        <ele>16</ele>
        <time>2019-05-10T11:33:23Z</time>
      </trkpt>
      <trkpt lat="38.85716" lon="-9.10247">
        <ele>16</ele>
        <time>2019-05-10T11:33:25Z</time>
      </trkpt>
      <trkpt lat="38.85716" lon="-9.10224">
        <ele>16</ele>
        <time>2019-05-10T11:33:41Z</time>
      </trkpt>
      <trkpt lat="38.85718" lon="-9.10202">
        <ele>16.96</ele>
        <time>2019-05-10T11:33:56Z</time>
      </trkpt>
      <trkpt lat="38.85718" lon="-9.102">
        <ele>16.48</ele>
        <time>2019-05-10T11:33:57Z</time>
      </trkpt>
      <trkpt lat="38.85723" lon="-9.10177">
        <ele>16.96</ele>
        <time>2019-05-10T11:34:12Z</time>
      </trkpt>
      <trkpt lat="38.85728" lon="-9.10156">
        <ele>16.96</ele>
        <time>2019-05-10T11:34:28Z</time>
      </trkpt>
      <trkpt lat="38.85737" lon="-9.10134">
        <ele>17.44</ele>
        <time>2019-05-10T11:34:43Z</time>
      </trkpt>
      <trkpt lat="38.85742" lon="-9.10116">
        <ele>17.44</ele>
        <time>2019-05-10T11:34:56Z</time>
      </trkpt>
      <trkpt lat="38.85745" lon="-9.10109">
        <ele>17.92</ele>
        <time>2019-05-10T11:35:05Z</time>
      </trkpt>
      <trkpt lat="38.85747" lon="-9.10107">
        <ele>17.44</ele>
        <time>2019-05-10T11:35:09Z</time>
      </trkpt>
      <trkpt lat="38.85753" lon="-9.10086">
        <ele>18.4</ele>
        <time>2019-05-10T11:35:24Z</time>
      </trkpt>
      <trkpt lat="38.85758" lon="-9.10063">
        <ele>19.36</ele>
        <time>2019-05-10T11:35:39Z</time>
      </trkpt>
      <trkpt lat="38.85761" lon="-9.10042">
        <ele>19.84</ele>
        <time>2019-05-10T11:35:54Z</time>
      </trkpt>
      <trkpt lat="38.85766" lon="-9.10019">
        <ele>21.29</ele>
        <time>2019-05-10T11:36:12Z</time>
      </trkpt>
      <trkpt lat="38.8577" lon="-9.09998">
        <ele>22.25</ele>
        <time>2019-05-10T11:36:27Z</time>
      </trkpt>
      <trkpt lat="38.85781" lon="-9.09981">
        <ele>22.25</ele>
        <time>2019-05-10T11:36:42Z</time>
      </trkpt>
      <trkpt lat="38.85789" lon="-9.09978">
        <ele>22.25</ele>
        <time>2019-05-10T11:36:49Z</time>
      </trkpt>
      <trkpt lat="38.85793" lon="-9.09966">
        <ele>22.25</ele>
        <time>2019-05-10T11:36:58Z</time>
      </trkpt>
      <trkpt lat="38.85797" lon="-9.09956">
        <ele>21.77</ele>
        <time>2019-05-10T11:37:16Z</time>
      </trkpt>
      <trkpt lat="38.85796" lon="-9.09956">
        <ele>21.77</ele>
        <time>2019-05-10T11:37:31Z</time>
      </trkpt>
      <trkpt lat="38.85793" lon="-9.09947">
        <ele>21.77</ele>
        <time>2019-05-10T11:37:47Z</time>
      </trkpt>
      <trkpt lat="38.8579" lon="-9.09936">
        <ele>22.73</ele>
        <time>2019-05-10T11:37:56Z</time>
      </trkpt>
      <trkpt lat="38.85789" lon="-9.09926">
        <ele>21.77</ele>
        <time>2019-05-10T11:38:03Z</time>
      </trkpt>
      <trkpt lat="38.85791" lon="-9.09919">
        <ele>22.25</ele>
        <time>2019-05-10T11:38:09Z</time>
      </trkpt>
      <trkpt lat="38.85803" lon="-9.099">
        <ele>20.81</ele>
        <time>2019-05-10T11:38:26Z</time>
      </trkpt>
      <trkpt lat="38.85816" lon="-9.09884">
        <ele>20.32</ele>
        <time>2019-05-10T11:38:42Z</time>
      </trkpt>
      <trkpt lat="38.85832" lon="-9.09867">
        <ele>19.84</ele>
        <time>2019-05-10T11:38:59Z</time>
      </trkpt>
      <trkpt lat="38.85844" lon="-9.09849">
        <ele>18.4</ele>
        <time>2019-05-10T11:39:15Z</time>
      </trkpt>
      <trkpt lat="38.85857" lon="-9.09831">
        <ele>18.88</ele>
        <time>2019-05-10T11:39:32Z</time>
      </trkpt>
      <trkpt lat="38.85871" lon="-9.0981">
        <ele>19.36</ele>
        <time>2019-05-10T11:39:50Z</time>
      </trkpt>
      <trkpt lat="38.85884" lon="-9.09788">
        <ele>19.36</ele>
        <time>2019-05-10T11:40:07Z</time>
      </trkpt>
      <trkpt lat="38.85889" lon="-9.09777">
        <ele>19.84</ele>
        <time>2019-05-10T11:40:20Z</time>
      </trkpt>
      <trkpt lat="38.85902" lon="-9.09757">
        <ele>20.32</ele>
        <time>2019-05-10T11:40:36Z</time>
      </trkpt>
      <trkpt lat="38.85914" lon="-9.09737">
        <ele>20.32</ele>
        <time>2019-05-10T11:40:53Z</time>
      </trkpt>
      <trkpt lat="38.85925" lon="-9.09714">
        <ele>21.29</ele>
        <time>2019-05-10T11:41:11Z</time>
      </trkpt>
      <trkpt lat="38.85927" lon="-9.0971">
        <ele>21.29</ele>
        <time>2019-05-10T11:41:14Z</time>
      </trkpt>
      <trkpt lat="38.85935" lon="-9.09687">
        <ele>21.77</ele>
        <time>2019-05-10T11:41:31Z</time>
      </trkpt>
      <trkpt lat="38.85939" lon="-9.09667">
        <ele>22.73</ele>
        <time>2019-05-10T11:41:45Z</time>
      </trkpt>
      <trkpt lat="38.85944" lon="-9.09643">
        <ele>23.69</ele>
        <time>2019-05-10T11:42:02Z</time>
      </trkpt>
      <trkpt lat="38.85948" lon="-9.09621">
        <ele>24.17</ele>
        <time>2019-05-10T11:42:18Z</time>
      </trkpt>
      <trkpt lat="38.85953" lon="-9.09598">
        <ele>24.65</ele>
        <time>2019-05-10T11:42:34Z</time>
      </trkpt>
      <trkpt lat="38.85956" lon="-9.0959">
        <ele>24.17</ele>
        <time>2019-05-10T11:42:41Z</time>
      </trkpt>
      <trkpt lat="38.85958" lon="-9.09586">
        <ele>24.65</ele>
        <time>2019-05-10T11:42:44Z</time>
      </trkpt>
      <trkpt lat="38.85972" lon="-9.09563">
        <ele>25.61</ele>
        <time>2019-05-10T11:43:03Z</time>
      </trkpt>
      <trkpt lat="38.85974" lon="-9.09559">
        <ele>25.61</ele>
        <time>2019-05-10T11:43:06Z</time>
      </trkpt>
      <trkpt lat="38.85985" lon="-9.09544">
        <ele>25.61</ele>
        <time>2019-05-10T11:43:19Z</time>
      </trkpt>
      <trkpt lat="38.85994" lon="-9.0953">
        <ele>25.61</ele>
        <time>2019-05-10T11:43:31Z</time>
      </trkpt>
      <trkpt lat="38.8601" lon="-9.09513">
        <ele>25.61</ele>
        <time>2019-05-10T11:43:49Z</time>
      </trkpt>
      <trkpt lat="38.86021" lon="-9.09503">
        <ele>25.61</ele>
        <time>2019-05-10T11:44:04Z</time>
      </trkpt>
      <trkpt lat="38.86024" lon="-9.09496">
        <ele>26.09</ele>
        <time>2019-05-10T11:44:20Z</time>
      </trkpt>
      <trkpt lat="38.86032" lon="-9.09488">
        <ele>25.61</ele>
        <time>2019-05-10T11:44:30Z</time>
      </trkpt>
      <trkpt lat="38.86049" lon="-9.09472">
        <ele>25.13</ele>
        <time>2019-05-10T11:44:46Z</time>
      </trkpt>
      <trkpt lat="38.86063" lon="-9.09458">
        <ele>25.61</ele>
        <time>2019-05-10T11:45:01Z</time>
      </trkpt>
      <trkpt lat="38.86075" lon="-9.09448">
        <ele>25.61</ele>
        <time>2019-05-10T11:45:12Z</time>
      </trkpt>
      <trkpt lat="38.86076" lon="-9.09446">
        <ele>25.13</ele>
        <time>2019-05-10T11:45:14Z</time>
      </trkpt>
      <trkpt lat="38.86094" lon="-9.09428">
        <ele>26.09</ele>
        <time>2019-05-10T11:45:32Z</time>
      </trkpt>
      <trkpt lat="38.86105" lon="-9.09413">
        <ele>26.57</ele>
        <time>2019-05-10T11:45:47Z</time>
      </trkpt>
      <trkpt lat="38.86113" lon="-9.09396">
        <ele>26.57</ele>
        <time>2019-05-10T11:46:02Z</time>
      </trkpt>
      <trkpt lat="38.86114" lon="-9.09396">
        <ele>27.05</ele>
        <time>2019-05-10T11:46:23Z</time>
      </trkpt>
      <trkpt lat="38.86125" lon="-9.09386">
        <ele>27.05</ele>
        <time>2019-05-10T11:46:36Z</time>
      </trkpt>
      <trkpt lat="38.86132" lon="-9.09379">
        <ele>27.05</ele>
        <time>2019-05-10T11:46:51Z</time>
      </trkpt>
      <trkpt lat="38.86134" lon="-9.09378">
        <ele>27.53</ele>
        <time>2019-05-10T11:47:06Z</time>
      </trkpt>
      <trkpt lat="38.86144" lon="-9.09364">
        <ele>28.5</ele>
        <time>2019-05-10T11:47:20Z</time>
      </trkpt>
      <trkpt lat="38.86157" lon="-9.09351">
        <ele>28.5</ele>
        <time>2019-05-10T11:47:34Z</time>
      </trkpt>
      <trkpt lat="38.86171" lon="-9.09338">
        <ele>28.5</ele>
        <time>2019-05-10T11:47:49Z</time>
      </trkpt>
      <trkpt lat="38.86181" lon="-9.09326">
        <ele>29.46</ele>
        <time>2019-05-10T11:48:01Z</time>
      </trkpt>
      <trkpt lat="38.86195" lon="-9.09315">
        <ele>29.94</ele>
        <time>2019-05-10T11:48:14Z</time>
      </trkpt>
      <trkpt lat="38.86204" lon="-9.093">
        <ele>29.46</ele>
        <time>2019-05-10T11:48:28Z</time>
      </trkpt>
      <trkpt lat="38.86217" lon="-9.09285">
        <ele>29.94</ele>
        <time>2019-05-10T11:48:44Z</time>
      </trkpt>
      <trkpt lat="38.8623" lon="-9.09278">
        <ele>30.42</ele>
        <time>2019-05-10T11:48:56Z</time>
      </trkpt>
      <trkpt lat="38.86231" lon="-9.09277">
        <ele>30.42</ele>
        <time>2019-05-10T11:48:58Z</time>
      </trkpt>
      <trkpt lat="38.86244" lon="-9.09264">
        <ele>30.42</ele>
        <time>2019-05-10T11:49:12Z</time>
      </trkpt>
      <trkpt lat="38.86257" lon="-9.0925">
        <ele>30.42</ele>
        <time>2019-05-10T11:49:27Z</time>
      </trkpt>
      <trkpt lat="38.86265" lon="-9.09245">
        <ele>29.94</ele>
        <time>2019-05-10T11:49:39Z</time>
      </trkpt>
      <trkpt lat="38.86274" lon="-9.09243">
        <ele>30.42</ele>
        <time>2019-05-10T11:50:00Z</time>
      </trkpt>
      <trkpt lat="38.86276" lon="-9.09236">
        <ele>30.9</ele>
        <time>2019-05-10T11:50:11Z</time>
      </trkpt>
      <trkpt lat="38.86275" lon="-9.09238">
        <ele>30.9</ele>
        <time>2019-05-10T11:50:26Z</time>
      </trkpt>
      <trkpt lat="38.86273" lon="-9.09238">
        <ele>30.9</ele>
        <time>2019-05-10T11:50:40Z</time>
      </trkpt>
      <trkpt lat="38.86276" lon="-9.09236">
        <ele>30.9</ele>
        <time>2019-05-10T11:50:59Z</time>
      </trkpt>
      <trkpt lat="38.8628" lon="-9.09234">
        <ele>30.9</ele>
        <time>2019-05-10T11:51:13Z</time>
      </trkpt>
      <trkpt lat="38.86282" lon="-9.09233">
        <ele>30.9</ele>
        <time>2019-05-10T11:51:35Z</time>
      </trkpt>
      <trkpt lat="38.8629" lon="-9.09223">
        <ele>31.38</ele>
        <time>2019-05-10T11:51:53Z</time>
      </trkpt>
      <trkpt lat="38.86292" lon="-9.09218">
        <ele>31.38</ele>
        <time>2019-05-10T11:51:58Z</time>
      </trkpt>
      <trkpt lat="38.86299" lon="-9.09201">
        <ele>31.86</ele>
        <time>2019-05-10T11:52:14Z</time>
      </trkpt>
      <trkpt lat="38.86299" lon="-9.09195">
        <ele>31.86</ele>
        <time>2019-05-10T11:52:31Z</time>
      </trkpt>
      <trkpt lat="38.86294" lon="-9.0918">
        <ele>32.34</ele>
        <time>2019-05-10T11:52:45Z</time>
      </trkpt>
      <trkpt lat="38.86293" lon="-9.09175">
        <ele>33.78</ele>
        <time>2019-05-10T11:53:02Z</time>
      </trkpt>
      <trkpt lat="38.86291" lon="-9.09176">
        <ele>33.3</ele>
        <time>2019-05-10T11:53:18Z</time>
      </trkpt>
      <trkpt lat="38.86289" lon="-9.09174">
        <ele>31.86</ele>
        <time>2019-05-10T11:53:33Z</time>
      </trkpt>
      <trkpt lat="38.86296" lon="-9.09177">
        <ele>31.86</ele>
        <time>2019-05-10T11:53:51Z</time>
      </trkpt>
      <trkpt lat="38.86292" lon="-9.09176">
        <ele>32.82</ele>
        <time>2019-05-10T11:54:26Z</time>
      </trkpt>
      <trkpt lat="38.86289" lon="-9.09177">
        <ele>32.82</ele>
        <time>2019-05-10T11:55:00Z</time>
      </trkpt>
      <trkpt lat="38.86289" lon="-9.0918">
        <ele>32.34</ele>
        <time>2019-05-10T11:55:30Z</time>
      </trkpt>
      <trkpt lat="38.86287" lon="-9.0918">
        <ele>32.82</ele>
        <time>2019-05-10T11:55:57Z</time>
      </trkpt>
      <trkpt lat="38.86285" lon="-9.09183">
        <ele>32.82</ele>
        <time>2019-05-10T11:56:18Z</time>
      </trkpt>
      <trkpt lat="38.86286" lon="-9.09185">
        <ele>32.82</ele>
        <time>2019-05-10T11:56:48Z</time>
      </trkpt>
      <trkpt lat="38.8629" lon="-9.09187">
        <ele>32.82</ele>
        <time>2019-05-10T11:57:06Z</time>
      </trkpt>
      <trkpt lat="38.86291" lon="-9.09184">
        <ele>33.3</ele>
        <time>2019-05-10T11:57:18Z</time>
      </trkpt>
      <trkpt lat="38.8629" lon="-9.09184">
        <ele>33.78</ele>
        <time>2019-05-10T11:57:33Z</time>
      </trkpt>
      <trkpt lat="38.86282" lon="-9.09181">
        <ele>33.78</ele>
        <time>2019-05-10T11:57:59Z</time>
      </trkpt>
      <trkpt lat="38.86283" lon="-9.09182">
        <ele>33.78</ele>
        <time>2019-05-10T11:58:31Z</time>
      </trkpt>
      <trkpt lat="38.86287" lon="-9.09186">
        <ele>33.78</ele>
        <time>2019-05-10T11:59:03Z</time>
      </trkpt>
      <trkpt lat="38.86287" lon="-9.09183">
        <ele>34.74</ele>
        <time>2019-05-10T11:59:30Z</time>
      </trkpt>
      <trkpt lat="38.86287" lon="-9.09181">
        <ele>35.23</ele>
        <time>2019-05-10T12:00:03Z</time>
      </trkpt>
      <trkpt lat="38.86286" lon="-9.09183">
        <ele>35.23</ele>
        <time>2019-05-10T12:00:31Z</time>
      </trkpt>
      <trkpt lat="38.86287" lon="-9.09185">
        <ele>35.23</ele>
        <time>2019-05-10T12:00:55Z</time>
      </trkpt>
      <trkpt lat="38.86289" lon="-9.09185">
        <ele>36.19</ele>
        <time>2019-05-10T12:01:18Z</time>
      </trkpt>
      <trkpt lat="38.86289" lon="-9.09185">
        <ele>35.23</ele>
        <time>2019-05-10T12:01:40Z</time>
      </trkpt>
      <trkpt lat="38.8629" lon="-9.09185">
        <ele>36.19</ele>
        <time>2019-05-10T12:02:01Z</time>
      </trkpt>
      <trkpt lat="38.86293" lon="-9.09186">
        <ele>36.67</ele>
        <time>2019-05-10T12:02:34Z</time>
      </trkpt>
      <trkpt lat="38.86285" lon="-9.09183">
        <ele>36.19</ele>
        <time>2019-05-10T12:02:59Z</time>
      </trkpt>
      <trkpt lat="38.86283" lon="-9.09179">
        <ele>36.19</ele>
        <time>2019-05-10T12:03:28Z</time>
      </trkpt>
      <trkpt lat="38.86284" lon="-9.0918">
        <ele>36.19</ele>
        <time>2019-05-10T12:04:05Z</time>
      </trkpt>
      <trkpt lat="38.86282" lon="-9.09182">
        <ele>36.67</ele>
        <time>2019-05-10T12:04:30Z</time>
      </trkpt>
      <trkpt lat="38.8628" lon="-9.09181">
        <ele>37.15</ele>
        <time>2019-05-10T12:04:55Z</time>
      </trkpt>
      <trkpt lat="38.86279" lon="-9.09183">
        <ele>36.67</ele>
        <time>2019-05-10T12:05:23Z</time>
      </trkpt>
      <trkpt lat="38.86279" lon="-9.09184">
        <ele>37.63</ele>
        <time>2019-05-10T12:05:55Z</time>
      </trkpt>
      <trkpt lat="38.86283" lon="-9.09182">
        <ele>38.11</ele>
        <time>2019-05-10T12:06:21Z</time>
      </trkpt>
      <trkpt lat="38.86281" lon="-9.09181">
        <ele>37.63</ele>
        <time>2019-05-10T12:06:54Z</time>
      </trkpt>
      <trkpt lat="38.86284" lon="-9.09177">
        <ele>37.63</ele>
        <time>2019-05-10T12:07:25Z</time>
      </trkpt>
      <trkpt lat="38.86284" lon="-9.09177">
        <ele>38.11</ele>
        <time>2019-05-10T12:07:59Z</time>
      </trkpt>
      <trkpt lat="38.86283" lon="-9.09182">
        <ele>38.59</ele>
        <time>2019-05-10T12:08:31Z</time>
      </trkpt>
      <trkpt lat="38.86283" lon="-9.09181">
        <ele>38.59</ele>
        <time>2019-05-10T12:09:06Z</time>
      </trkpt>
      <trkpt lat="38.86283" lon="-9.0918">
        <ele>38.59</ele>
        <time>2019-05-10T12:09:31Z</time>
      </trkpt>
      <trkpt lat="38.86285" lon="-9.09182">
        <ele>40.03</ele>
        <time>2019-05-10T12:10:10Z</time>
      </trkpt>
      <trkpt lat="38.86285" lon="-9.09179">
        <ele>39.07</ele>
        <time>2019-05-10T12:10:41Z</time>
      </trkpt>
      <trkpt lat="38.86287" lon="-9.09179">
        <ele>40.03</ele>
        <time>2019-05-10T12:11:17Z</time>
      </trkpt>
      <trkpt lat="38.86284" lon="-9.0918">
        <ele>40.99</ele>
        <time>2019-05-10T12:11:50Z</time>
      </trkpt>
      <trkpt lat="38.8628" lon="-9.0918">
        <ele>40.99</ele>
        <time>2019-05-10T12:12:25Z</time>
      </trkpt>
      <trkpt lat="38.86279" lon="-9.09179">
        <ele>40.99</ele>
        <time>2019-05-10T12:12:48Z</time>
      </trkpt>
      <trkpt lat="38.8628" lon="-9.09175">
        <ele>41.47</ele>
        <time>2019-05-10T12:13:16Z</time>
      </trkpt>
      <trkpt lat="38.8628" lon="-9.09177">
        <ele>41.95</ele>
        <time>2019-05-10T12:13:49Z</time>
      </trkpt>
      <trkpt lat="38.86281" lon="-9.09177">
        <ele>41.47</ele>
        <time>2019-05-10T12:14:23Z</time>
      </trkpt>
      <trkpt lat="38.86282" lon="-9.0918">
        <ele>42.44</ele>
        <time>2019-05-10T12:14:48Z</time>
      </trkpt>
      <trkpt lat="38.86282" lon="-9.09183">
        <ele>42.44</ele>
        <time>2019-05-10T12:15:22Z</time>
      </trkpt>
      <trkpt lat="38.86282" lon="-9.09184">
        <ele>43.4</ele>
        <time>2019-05-10T12:15:57Z</time>
      </trkpt>
      <trkpt lat="38.86282" lon="-9.09181">
        <ele>43.4</ele>
        <time>2019-05-10T12:16:22Z</time>
      </trkpt>
      <trkpt lat="38.86281" lon="-9.09182">
        <ele>43.88</ele>
        <time>2019-05-10T12:16:49Z</time>
      </trkpt>
      <trkpt lat="38.86282" lon="-9.09181">
        <ele>44.36</ele>
        <time>2019-05-10T12:17:06Z</time>
      </trkpt>
      <trkpt lat="38.86281" lon="-9.09179">
        <ele>43.4</ele>
        <time>2019-05-10T12:17:28Z</time>
      </trkpt>
      <trkpt lat="38.86281" lon="-9.0918">
        <ele>44.36</ele>
        <time>2019-05-10T12:17:49Z</time>
      </trkpt>
      <trkpt lat="38.8628" lon="-9.09182">
        <ele>44.84</ele>
        <time>2019-05-10T12:18:10Z</time>
      </trkpt>
      <trkpt lat="38.86286" lon="-9.09182">
        <ele>45.32</ele>
        <time>2019-05-10T12:18:28Z</time>
      </trkpt>
      <trkpt lat="38.86286" lon="-9.0918">
        <ele>45.32</ele>
        <time>2019-05-10T12:18:41Z</time>
      </trkpt>
      <trkpt lat="38.86287" lon="-9.09179">
        <ele>44.84</ele>
        <time>2019-05-10T12:19:01Z</time>
      </trkpt>
      <trkpt lat="38.86282" lon="-9.09179">
        <ele>46.28</ele>
        <time>2019-05-10T12:19:25Z</time>
      </trkpt>
      <trkpt lat="38.86283" lon="-9.09181">
        <ele>45.32</ele>
        <time>2019-05-10T12:19:44Z</time>
      </trkpt>
      <trkpt lat="38.86288" lon="-9.09183">
        <ele>44.36</ele>
        <time>2019-05-10T12:19:56Z</time>
      </trkpt>
      <trkpt lat="38.86289" lon="-9.09183">
        <ele>44.36</ele>
        <time>2019-05-10T12:20:01Z</time>
      </trkpt>
      <trkpt lat="38.86291" lon="-9.09182">
        <ele>45.32</ele>
        <time>2019-05-10T12:20:15Z</time>
      </trkpt>
      <trkpt lat="38.86288" lon="-9.0918">
        <ele>44.84</ele>
        <time>2019-05-10T12:20:46Z</time>
      </trkpt>
      <trkpt lat="38.86284" lon="-9.09179">
        <ele>44.36</ele>
        <time>2019-05-10T12:21:09Z</time>
      </trkpt>
      <trkpt lat="38.86282" lon="-9.09179">
        <ele>44.84</ele>
        <time>2019-05-10T12:21:42Z</time>
      </trkpt>
      <trkpt lat="38.86282" lon="-9.09178">
        <ele>44.36</ele>
        <time>2019-05-10T12:22:13Z</time>
      </trkpt>
      <trkpt lat="38.86284" lon="-9.09176">
        <ele>45.32</ele>
        <time>2019-05-10T12:22:42Z</time>
      </trkpt>
      <trkpt lat="38.86284" lon="-9.09178">
        <ele>45.32</ele>
        <time>2019-05-10T12:23:17Z</time>
      </trkpt>
      <trkpt lat="38.86285" lon="-9.09179">
        <ele>45.32</ele>
        <time>2019-05-10T12:23:48Z</time>
      </trkpt>
      <trkpt lat="38.86284" lon="-9.09179">
        <ele>45.32</ele>
        <time>2019-05-10T12:24:34Z</time>
      </trkpt>
      <trkpt lat="38.86285" lon="-9.09181">
        <ele>44.36</ele>
        <time>2019-05-10T12:25:17Z</time>
      </trkpt>
      <trkpt lat="38.86281" lon="-9.0918">
        <ele>44.36</ele>
        <time>2019-05-10T12:25:51Z</time>
      </trkpt>
      <trkpt lat="38.86281" lon="-9.09185">
        <ele>45.8</ele>
        <time>2019-05-10T12:26:22Z</time>
      </trkpt>
      <trkpt lat="38.86282" lon="-9.09184">
        <ele>46.28</ele>
        <time>2019-05-10T12:26:40Z</time>
      </trkpt>
      <trkpt lat="38.86282" lon="-9.09184">
        <ele>45.8</ele>
        <time>2019-05-10T12:26:59Z</time>
      </trkpt>
      <trkpt lat="38.86281" lon="-9.09186">
        <ele>45.8</ele>
        <time>2019-05-10T12:27:26Z</time>
      </trkpt>
      <trkpt lat="38.86283" lon="-9.09188">
        <ele>46.28</ele>
        <time>2019-05-10T12:28:05Z</time>
      </trkpt>
      <trkpt lat="38.86283" lon="-9.09185">
        <ele>46.76</ele>
        <time>2019-05-10T12:28:21Z</time>
      </trkpt>
      <trkpt lat="38.86285" lon="-9.09182">
        <ele>46.76</ele>
        <time>2019-05-10T12:28:52Z</time>
      </trkpt>
      <trkpt lat="38.86286" lon="-9.09179">
        <ele>46.28</ele>
        <time>2019-05-10T12:29:23Z</time>
      </trkpt>
      <trkpt lat="38.86284" lon="-9.09179">
        <ele>46.28</ele>
        <time>2019-05-10T12:29:45Z</time>
      </trkpt>
      <trkpt lat="38.86286" lon="-9.0918">
        <ele>47.24</ele>
        <time>2019-05-10T12:30:11Z</time>
      </trkpt>
      <trkpt lat="38.86286" lon="-9.09184">
        <ele>47.72</ele>
        <time>2019-05-10T12:30:41Z</time>
      </trkpt>
      <trkpt lat="38.86289" lon="-9.0918">
        <ele>47.72</ele>
        <time>2019-05-10T12:31:05Z</time>
      </trkpt>
      <trkpt lat="38.86285" lon="-9.09183">
        <ele>46.76</ele>
        <time>2019-05-10T12:31:45Z</time>
      </trkpt>
      <trkpt lat="38.86285" lon="-9.09182">
        <ele>46.76</ele>
        <time>2019-05-10T12:32:19Z</time>
      </trkpt>
      <trkpt lat="38.86286" lon="-9.09182">
        <ele>46.76</ele>
        <time>2019-05-10T12:32:52Z</time>
      </trkpt>
      <trkpt lat="38.86285" lon="-9.09182">
        <ele>46.76</ele>
        <time>2019-05-10T12:33:19Z</time>
      </trkpt>
      <trkpt lat="38.86287" lon="-9.09182">
        <ele>46.28</ele>
        <time>2019-05-10T12:33:44Z</time>
      </trkpt>
      <trkpt lat="38.86287" lon="-9.09186">
        <ele>46.28</ele>
        <time>2019-05-10T12:34:21Z</time>
      </trkpt>
      <trkpt lat="38.86291" lon="-9.09182">
        <ele>46.76</ele>
        <time>2019-05-10T12:34:50Z</time>
      </trkpt>
      <trkpt lat="38.86291" lon="-9.09179">
        <ele>46.28</ele>
        <time>2019-05-10T12:35:13Z</time>
      </trkpt>
      <trkpt lat="38.86291" lon="-9.0918">
        <ele>45.8</ele>
        <time>2019-05-10T12:35:30Z</time>
      </trkpt>
      <trkpt lat="38.86292" lon="-9.09181">
        <ele>46.28</ele>
        <time>2019-05-10T12:35:52Z</time>
      </trkpt>
      <trkpt lat="38.86291" lon="-9.09178">
        <ele>45.8</ele>
        <time>2019-05-10T12:36:12Z</time>
      </trkpt>
      <trkpt lat="38.86292" lon="-9.09175">
        <ele>45.8</ele>
        <time>2019-05-10T12:36:40Z</time>
      </trkpt>
      <trkpt lat="38.8629" lon="-9.09176">
        <ele>45.8</ele>
        <time>2019-05-10T12:37:14Z</time>
      </trkpt>
      <trkpt lat="38.8629" lon="-9.09177">
        <ele>45.8</ele>
        <time>2019-05-10T12:37:45Z</time>
      </trkpt>
      <trkpt lat="38.8629" lon="-9.09179">
        <ele>45.32</ele>
        <time>2019-05-10T12:38:15Z</time>
      </trkpt>
      <trkpt lat="38.86291" lon="-9.09178">
        <ele>45.32</ele>
        <time>2019-05-10T12:38:53Z</time>
      </trkpt>
      <trkpt lat="38.86291" lon="-9.0918">
        <ele>45.32</ele>
        <time>2019-05-10T12:39:22Z</time>
      </trkpt>
      <trkpt lat="38.8629" lon="-9.09179">
        <ele>45.8</ele>
        <time>2019-05-10T12:40:00Z</time>
      </trkpt>
      <trkpt lat="38.86292" lon="-9.09179">
        <ele>45.32</ele>
        <time>2019-05-10T12:40:24Z</time>
      </trkpt>
      <trkpt lat="38.86291" lon="-9.09176">
        <ele>45.32</ele>
        <time>2019-05-10T12:40:56Z</time>
      </trkpt>
      <trkpt lat="38.86291" lon="-9.09179">
        <ele>46.28</ele>
        <time>2019-05-10T12:41:14Z</time>
      </trkpt>
      <trkpt lat="38.8629" lon="-9.09181">
        <ele>44.36</ele>
        <time>2019-05-10T12:41:34Z</time>
      </trkpt>
      <trkpt lat="38.86289" lon="-9.09182">
        <ele>45.8</ele>
        <time>2019-05-10T12:41:52Z</time>
      </trkpt>
      <trkpt lat="38.86288" lon="-9.09183">
        <ele>45.8</ele>
        <time>2019-05-10T12:42:14Z</time>
      </trkpt>
      <trkpt lat="38.86288" lon="-9.09183">
        <ele>45.8</ele>
        <time>2019-05-10T12:42:37Z</time>
      </trkpt>
      <trkpt lat="38.86287" lon="-9.09181">
        <ele>45.8</ele>
        <time>2019-05-10T12:42:57Z</time>
      </trkpt>
      <trkpt lat="38.8629" lon="-9.09181">
        <ele>45.32</ele>
        <time>2019-05-10T12:43:17Z</time>
      </trkpt>
      <trkpt lat="38.86291" lon="-9.0918">
        <ele>45.32</ele>
        <time>2019-05-10T12:43:36Z</time>
      </trkpt>
      <trkpt lat="38.86291" lon="-9.09179">
        <ele>44.84</ele>
        <time>2019-05-10T12:44:07Z</time>
      </trkpt>
      <trkpt lat="38.8629" lon="-9.09178">
        <ele>45.32</ele>
        <time>2019-05-10T12:44:28Z</time>
      </trkpt>
      <trkpt lat="38.86291" lon="-9.09179">
        <ele>44.84</ele>
        <time>2019-05-10T12:44:42Z</time>
      </trkpt>
      <trkpt lat="38.86291" lon="-9.09182">
        <ele>45.32</ele>
        <time>2019-05-10T12:45:01Z</time>
      </trkpt>
      <trkpt lat="38.86291" lon="-9.09182">
        <ele>43.88</ele>
        <time>2019-05-10T12:45:04Z</time>
      </trkpt>
      <trkpt lat="38.86291" lon="-9.0918">
        <ele>45.32</ele>
        <time>2019-05-10T12:45:23Z</time>
      </trkpt>
      <trkpt lat="38.86291" lon="-9.09181">
        <ele>45.32</ele>
        <time>2019-05-10T12:45:45Z</time>
      </trkpt>
      <trkpt lat="38.86289" lon="-9.09179">
        <ele>45.32</ele>
        <time>2019-05-10T12:46:07Z</time>
      </trkpt>
      <trkpt lat="38.8629" lon="-9.0918">
        <ele>45.32</ele>
        <time>2019-05-10T12:46:23Z</time>
      </trkpt>
      <trkpt lat="38.86289" lon="-9.0918">
        <ele>45.8</ele>
        <time>2019-05-10T12:46:41Z</time>
      </trkpt>
      <trkpt lat="38.86292" lon="-9.09183">
        <ele>44.84</ele>
        <time>2019-05-10T12:46:52Z</time>
      </trkpt>
      <trkpt lat="38.86297" lon="-9.09204">
        <ele>43.4</ele>
        <time>2019-05-10T12:47:11Z</time>
      </trkpt>
      <trkpt lat="38.86296" lon="-9.09205">
        <ele>43.88</ele>
        <time>2019-05-10T12:47:13Z</time>
      </trkpt>
      <trkpt lat="38.86289" lon="-9.09219">
        <ele>42.92</ele>
        <time>2019-05-10T12:47:26Z</time>
      </trkpt>
      <trkpt lat="38.86296" lon="-9.09225">
        <ele>43.4</ele>
        <time>2019-05-10T12:47:40Z</time>
      </trkpt>
      <trkpt lat="38.86299" lon="-9.09228">
        <ele>42.92</ele>
        <time>2019-05-10T12:47:45Z</time>
      </trkpt>
      <trkpt lat="38.86309" lon="-9.09234">
        <ele>42.92</ele>
        <time>2019-05-10T12:47:59Z</time>
      </trkpt>
      <trkpt lat="38.8632" lon="-9.09238">
        <ele>41.95</ele>
        <time>2019-05-10T12:48:14Z</time>
      </trkpt>
      <trkpt lat="38.86323" lon="-9.09238">
        <ele>41.47</ele>
        <time>2019-05-10T12:48:17Z</time>
      </trkpt>
      <trkpt lat="38.86329" lon="-9.09233">
        <ele>41.47</ele>
        <time>2019-05-10T12:48:22Z</time>
      </trkpt>
      <trkpt lat="38.86336" lon="-9.09218">
        <ele>42.92</ele>
        <time>2019-05-10T12:48:34Z</time>
      </trkpt>
      <trkpt lat="38.86336" lon="-9.09217">
        <ele>42.92</ele>
        <time>2019-05-10T12:48:35Z</time>
      </trkpt>
      <trkpt lat="38.86347" lon="-9.09196">
        <ele>43.88</ele>
        <time>2019-05-10T12:48:53Z</time>
      </trkpt>
      <trkpt lat="38.86349" lon="-9.09187">
        <ele>43.4</ele>
        <time>2019-05-10T12:49:01Z</time>
      </trkpt>
      <trkpt lat="38.86352" lon="-9.09182">
        <ele>43.88</ele>
        <time>2019-05-10T12:49:05Z</time>
      </trkpt>
      <trkpt lat="38.86356" lon="-9.09158">
        <ele>44.36</ele>
        <time>2019-05-10T12:49:22Z</time>
      </trkpt>
      <trkpt lat="38.86358" lon="-9.09143">
        <ele>44.36</ele>
        <time>2019-05-10T12:49:36Z</time>
      </trkpt>
      <trkpt lat="38.86361" lon="-9.09128">
        <ele>45.32</ele>
        <time>2019-05-10T12:49:48Z</time>
      </trkpt>
      <trkpt lat="38.86364" lon="-9.09119">
        <ele>45.32</ele>
        <time>2019-05-10T12:49:55Z</time>
      </trkpt>
      <trkpt lat="38.86376" lon="-9.09104">
        <ele>46.28</ele>
        <time>2019-05-10T12:50:09Z</time>
      </trkpt>
      <trkpt lat="38.86385" lon="-9.09088">
        <ele>47.24</ele>
        <time>2019-05-10T12:50:23Z</time>
      </trkpt>
      <trkpt lat="38.86395" lon="-9.0907">
        <ele>47.24</ele>
        <time>2019-05-10T12:50:38Z</time>
      </trkpt>
      <trkpt lat="38.86398" lon="-9.09061">
        <ele>47.72</ele>
        <time>2019-05-10T12:50:54Z</time>
      </trkpt>
      <trkpt lat="38.86403" lon="-9.0905">
        <ele>47.72</ele>
        <time>2019-05-10T12:51:04Z</time>
      </trkpt>
      <trkpt lat="38.86407" lon="-9.09044">
        <ele>48.2</ele>
        <time>2019-05-10T12:51:09Z</time>
      </trkpt>
      <trkpt lat="38.86413" lon="-9.09032">
        <ele>48.68</ele>
        <time>2019-05-10T12:51:19Z</time>
      </trkpt>
      <trkpt lat="38.86422" lon="-9.09016">
        <ele>49.16</ele>
        <time>2019-05-10T12:51:33Z</time>
      </trkpt>
      <trkpt lat="38.86427" lon="-9.09007">
        <ele>49.65</ele>
        <time>2019-05-10T12:51:41Z</time>
      </trkpt>
      <trkpt lat="38.86438" lon="-9.08989">
        <ele>49.65</ele>
        <time>2019-05-10T12:51:57Z</time>
      </trkpt>
      <trkpt lat="38.86438" lon="-9.08987">
        <ele>50.13</ele>
        <time>2019-05-10T12:51:58Z</time>
      </trkpt>
      <trkpt lat="38.86442" lon="-9.08981">
        <ele>49.65</ele>
        <time>2019-05-10T12:52:03Z</time>
      </trkpt>
      <trkpt lat="38.86443" lon="-9.08978">
        <ele>50.13</ele>
        <time>2019-05-10T12:52:06Z</time>
      </trkpt>
      <trkpt lat="38.86455" lon="-9.08958">
        <ele>50.13</ele>
        <time>2019-05-10T12:52:22Z</time>
      </trkpt>
      <trkpt lat="38.86457" lon="-9.08955">
        <ele>49.65</ele>
        <time>2019-05-10T12:52:24Z</time>
      </trkpt>
      <trkpt lat="38.86458" lon="-9.08953">
        <ele>49.65</ele>
        <time>2019-05-10T12:52:26Z</time>
      </trkpt>
      <trkpt lat="38.86463" lon="-9.08948">
        <ele>50.13</ele>
        <time>2019-05-10T12:52:31Z</time>
      </trkpt>
      <trkpt lat="38.86466" lon="-9.08944">
        <ele>50.13</ele>
        <time>2019-05-10T12:52:35Z</time>
      </trkpt>
      <trkpt lat="38.86477" lon="-9.0893">
        <ele>50.13</ele>
        <time>2019-05-10T12:52:50Z</time>
      </trkpt>
      <trkpt lat="38.86482" lon="-9.08927">
        <ele>50.13</ele>
        <time>2019-05-10T12:52:55Z</time>
      </trkpt>
      <trkpt lat="38.86497" lon="-9.08915">
        <ele>50.13</ele>
        <time>2019-05-10T12:53:11Z</time>
      </trkpt>
      <trkpt lat="38.86504" lon="-9.0891">
        <ele>50.61</ele>
        <time>2019-05-10T12:53:18Z</time>
      </trkpt>
      <trkpt lat="38.86518" lon="-9.089">
        <ele>50.61</ele>
        <time>2019-05-10T12:53:33Z</time>
      </trkpt>
      <trkpt lat="38.86532" lon="-9.08889">
        <ele>51.57</ele>
        <time>2019-05-10T12:53:47Z</time>
      </trkpt>
      <trkpt lat="38.86535" lon="-9.08888">
        <ele>51.09</ele>
        <time>2019-05-10T12:53:50Z</time>
      </trkpt>
      <trkpt lat="38.8655" lon="-9.08877">
        <ele>51.09</ele>
        <time>2019-05-10T12:54:07Z</time>
      </trkpt>
      <trkpt lat="38.86558" lon="-9.08872">
        <ele>51.09</ele>
        <time>2019-05-10T12:54:15Z</time>
      </trkpt>
      <trkpt lat="38.86565" lon="-9.08865">
        <ele>52.05</ele>
        <time>2019-05-10T12:54:23Z</time>
      </trkpt>
      <trkpt lat="38.86578" lon="-9.08852">
        <ele>52.05</ele>
        <time>2019-05-10T12:54:38Z</time>
      </trkpt>
      <trkpt lat="38.86579" lon="-9.08849">
        <ele>51.57</ele>
        <time>2019-05-10T12:54:40Z</time>
      </trkpt>
      <trkpt lat="38.86584" lon="-9.08845">
        <ele>52.05</ele>
        <time>2019-05-10T12:54:45Z</time>
      </trkpt>
      <trkpt lat="38.86597" lon="-9.08827">
        <ele>52.05</ele>
        <time>2019-05-10T12:55:01Z</time>
      </trkpt>
      <trkpt lat="38.86606" lon="-9.08812">
        <ele>52.05</ele>
        <time>2019-05-10T12:55:16Z</time>
      </trkpt>
      <trkpt lat="38.86608" lon="-9.0881">
        <ele>52.05</ele>
        <time>2019-05-10T12:55:18Z</time>
      </trkpt>
      <trkpt lat="38.86622" lon="-9.08801">
        <ele>52.53</ele>
        <time>2019-05-10T12:55:31Z</time>
      </trkpt>
      <trkpt lat="38.86625" lon="-9.08798">
        <ele>52.05</ele>
        <time>2019-05-10T12:55:34Z</time>
      </trkpt>
      <trkpt lat="38.86634" lon="-9.08791">
        <ele>53.01</ele>
        <time>2019-05-10T12:55:43Z</time>
      </trkpt>
      <trkpt lat="38.86636" lon="-9.0879">
        <ele>52.53</ele>
        <time>2019-05-10T12:55:45Z</time>
      </trkpt>
      <trkpt lat="38.86637" lon="-9.08787">
        <ele>53.01</ele>
        <time>2019-05-10T12:55:47Z</time>
      </trkpt>
      <trkpt lat="38.86653" lon="-9.08778">
        <ele>53.01</ele>
        <time>2019-05-10T12:56:02Z</time>
      </trkpt>
      <trkpt lat="38.86661" lon="-9.08774">
        <ele>53.49</ele>
        <time>2019-05-10T12:56:10Z</time>
      </trkpt>
      <trkpt lat="38.86676" lon="-9.08765">
        <ele>53.49</ele>
        <time>2019-05-10T12:56:26Z</time>
      </trkpt>
      <trkpt lat="38.86692" lon="-9.08757">
        <ele>54.45</ele>
        <time>2019-05-10T12:56:41Z</time>
      </trkpt>
      <trkpt lat="38.86694" lon="-9.08756">
        <ele>53.97</ele>
        <time>2019-05-10T12:56:43Z</time>
      </trkpt>
      <trkpt lat="38.86699" lon="-9.08755">
        <ele>54.93</ele>
        <time>2019-05-10T12:56:47Z</time>
      </trkpt>
      <trkpt lat="38.86706" lon="-9.08754">
        <ele>54.93</ele>
        <time>2019-05-10T12:56:53Z</time>
      </trkpt>
      <trkpt lat="38.86721" lon="-9.08745">
        <ele>54.93</ele>
        <time>2019-05-10T12:57:08Z</time>
      </trkpt>
      <trkpt lat="38.86736" lon="-9.08737">
        <ele>54.93</ele>
        <time>2019-05-10T12:57:22Z</time>
      </trkpt>
      <trkpt lat="38.86753" lon="-9.08725">
        <ele>55.41</ele>
        <time>2019-05-10T12:57:39Z</time>
      </trkpt>
      <trkpt lat="38.86765" lon="-9.08717">
        <ele>54.93</ele>
        <time>2019-05-10T12:57:54Z</time>
      </trkpt>
      <trkpt lat="38.86762" lon="-9.08716">
        <ele>55.41</ele>
        <time>2019-05-10T12:58:09Z</time>
      </trkpt>
      <trkpt lat="38.86765" lon="-9.08715">
        <ele>55.41</ele>
        <time>2019-05-10T12:58:29Z</time>
      </trkpt>
      <trkpt lat="38.86774" lon="-9.08713">
        <ele>55.41</ele>
        <time>2019-05-10T12:58:38Z</time>
      </trkpt>
      <trkpt lat="38.86786" lon="-9.08706">
        <ele>55.41</ele>
        <time>2019-05-10T12:58:50Z</time>
      </trkpt>
      <trkpt lat="38.86799" lon="-9.08699">
        <ele>55.41</ele>
        <time>2019-05-10T12:59:03Z</time>
      </trkpt>
      <trkpt lat="38.86817" lon="-9.08692">
        <ele>55.41</ele>
        <time>2019-05-10T12:59:19Z</time>
      </trkpt>
      <trkpt lat="38.86823" lon="-9.0869">
        <ele>55.41</ele>
        <time>2019-05-10T12:59:24Z</time>
      </trkpt>
      <trkpt lat="38.86833" lon="-9.08682">
        <ele>55.89</ele>
        <time>2019-05-10T12:59:34Z</time>
      </trkpt>
      <trkpt lat="38.86836" lon="-9.08679">
        <ele>55.89</ele>
        <time>2019-05-10T12:59:37Z</time>
      </trkpt>
      <trkpt lat="38.86853" lon="-9.08663">
        <ele>56.37</ele>
        <time>2019-05-10T12:59:54Z</time>
      </trkpt>
      <trkpt lat="38.86854" lon="-9.0866">
        <ele>56.37</ele>
        <time>2019-05-10T12:59:56Z</time>
      </trkpt>
      <trkpt lat="38.86854" lon="-9.08654">
        <ele>55.41</ele>
        <time>2019-05-10T13:00:00Z</time>
      </trkpt>
      <trkpt lat="38.86852" lon="-9.08643">
        <ele>55.89</ele>
        <time>2019-05-10T13:00:08Z</time>
      </trkpt>
      <trkpt lat="38.86855" lon="-9.08624">
        <ele>56.37</ele>
        <time>2019-05-10T13:00:21Z</time>
      </trkpt>
      <trkpt lat="38.86855" lon="-9.08618">
        <ele>56.37</ele>
        <time>2019-05-10T13:00:25Z</time>
      </trkpt>
      <trkpt lat="38.86856" lon="-9.08605">
        <ele>56.37</ele>
        <time>2019-05-10T13:00:37Z</time>
      </trkpt>
      <trkpt lat="38.86859" lon="-9.08592">
        <ele>56.86</ele>
        <time>2019-05-10T13:00:46Z</time>
      </trkpt>
      <trkpt lat="38.8686" lon="-9.08582">
        <ele>56.86</ele>
        <time>2019-05-10T13:00:52Z</time>
      </trkpt>
      <trkpt lat="38.86862" lon="-9.08567">
        <ele>56.37</ele>
        <time>2019-05-10T13:01:02Z</time>
      </trkpt>
      <trkpt lat="38.86862" lon="-9.08557">
        <ele>55.89</ele>
        <time>2019-05-10T13:01:09Z</time>
      </trkpt>
      <trkpt lat="38.86864" lon="-9.08534">
        <ele>55.89</ele>
        <time>2019-05-10T13:01:24Z</time>
      </trkpt>
      <trkpt lat="38.86867" lon="-9.08518">
        <ele>56.37</ele>
        <time>2019-05-10T13:01:35Z</time>
      </trkpt>
      <trkpt lat="38.86869" lon="-9.08512">
        <ele>56.37</ele>
        <time>2019-05-10T13:01:39Z</time>
      </trkpt>
      <trkpt lat="38.8687" lon="-9.08508">
        <ele>55.89</ele>
        <time>2019-05-10T13:01:42Z</time>
      </trkpt>
      <trkpt lat="38.86878" lon="-9.08491">
        <ele>55.89</ele>
        <time>2019-05-10T13:01:55Z</time>
      </trkpt>
      <trkpt lat="38.86878" lon="-9.08487">
        <ele>55.41</ele>
        <time>2019-05-10T13:01:57Z</time>
      </trkpt>
      <trkpt lat="38.86877" lon="-9.08479">
        <ele>55.89</ele>
        <time>2019-05-10T13:02:02Z</time>
      </trkpt>
      <trkpt lat="38.86877" lon="-9.08476">
        <ele>55.89</ele>
        <time>2019-05-10T13:02:04Z</time>
      </trkpt>
      <trkpt lat="38.86875" lon="-9.08453">
        <ele>55.41</ele>
        <time>2019-05-10T13:02:19Z</time>
      </trkpt>
      <trkpt lat="38.86878" lon="-9.08442">
        <ele>55.89</ele>
        <time>2019-05-10T13:02:27Z</time>
      </trkpt>
      <trkpt lat="38.8688" lon="-9.08429">
        <ele>54.45</ele>
        <time>2019-05-10T13:02:36Z</time>
      </trkpt>
      <trkpt lat="38.8688" lon="-9.08424">
        <ele>55.41</ele>
        <time>2019-05-10T13:02:40Z</time>
      </trkpt>
      <trkpt lat="38.86881" lon="-9.08418">
        <ele>54.45</ele>
        <time>2019-05-10T13:02:44Z</time>
      </trkpt>
      <trkpt lat="38.86881" lon="-9.08398">
        <ele>54.93</ele>
        <time>2019-05-10T13:02:58Z</time>
      </trkpt>
      <trkpt lat="38.86881" lon="-9.08382">
        <ele>54.45</ele>
        <time>2019-05-10T13:03:12Z</time>
      </trkpt>
      <trkpt lat="38.86877" lon="-9.08382">
        <ele>54.45</ele>
        <time>2019-05-10T13:03:17Z</time>
      </trkpt>
      <trkpt lat="38.86875" lon="-9.08382">
        <ele>54.93</ele>
        <time>2019-05-10T13:03:19Z</time>
      </trkpt>
      <trkpt lat="38.86869" lon="-9.08377">
        <ele>54.93</ele>
        <time>2019-05-10T13:03:26Z</time>
      </trkpt>
      <trkpt lat="38.86869" lon="-9.0837">
        <ele>54.45</ele>
        <time>2019-05-10T13:03:31Z</time>
      </trkpt>
      <trkpt lat="38.86869" lon="-9.0835">
        <ele>54.45</ele>
        <time>2019-05-10T13:03:44Z</time>
      </trkpt>
      <trkpt lat="38.86867" lon="-9.08338">
        <ele>54.45</ele>
        <time>2019-05-10T13:03:56Z</time>
      </trkpt>
      <trkpt lat="38.86865" lon="-9.08326">
        <ele>54.45</ele>
        <time>2019-05-10T13:04:04Z</time>
      </trkpt>
      <trkpt lat="38.86857" lon="-9.08305">
        <ele>54.45</ele>
        <time>2019-05-10T13:04:19Z</time>
      </trkpt>
      <trkpt lat="38.86855" lon="-9.08303">
        <ele>54.45</ele>
        <time>2019-05-10T13:04:22Z</time>
      </trkpt>
      <trkpt lat="38.86845" lon="-9.08295">
        <ele>54.93</ele>
        <time>2019-05-10T13:04:37Z</time>
      </trkpt>
      <trkpt lat="38.86842" lon="-9.08273">
        <ele>54.45</ele>
        <time>2019-05-10T13:04:52Z</time>
      </trkpt>
      <trkpt lat="38.86842" lon="-9.08265">
        <ele>53.97</ele>
        <time>2019-05-10T13:04:57Z</time>
      </trkpt>
      <trkpt lat="38.86845" lon="-9.08251">
        <ele>53.97</ele>
        <time>2019-05-10T13:05:07Z</time>
      </trkpt>
      <trkpt lat="38.86845" lon="-9.0825">
        <ele>53.97</ele>
        <time>2019-05-10T13:05:08Z</time>
      </trkpt>
      <trkpt lat="38.86846" lon="-9.08239">
        <ele>53.97</ele>
        <time>2019-05-10T13:05:15Z</time>
      </trkpt>
      <trkpt lat="38.86846" lon="-9.08232">
        <ele>53.97</ele>
        <time>2019-05-10T13:05:20Z</time>
      </trkpt>
      <trkpt lat="38.86847" lon="-9.08218">
        <ele>53.49</ele>
        <time>2019-05-10T13:05:29Z</time>
      </trkpt>
      <trkpt lat="38.86849" lon="-9.082">
        <ele>53.01</ele>
        <time>2019-05-10T13:05:41Z</time>
      </trkpt>
      <trkpt lat="38.86851" lon="-9.08184">
        <ele>53.01</ele>
        <time>2019-05-10T13:05:51Z</time>
      </trkpt>
      <trkpt lat="38.86851" lon="-9.08177">
        <ele>53.49</ele>
        <time>2019-05-10T13:06:02Z</time>
      </trkpt>
      <trkpt lat="38.8685" lon="-9.08167">
        <ele>53.01</ele>
        <time>2019-05-10T13:06:09Z</time>
      </trkpt>
      <trkpt lat="38.8685" lon="-9.08154">
        <ele>53.01</ele>
        <time>2019-05-10T13:06:18Z</time>
      </trkpt>
      <trkpt lat="38.86851" lon="-9.08132">
        <ele>52.53</ele>
        <time>2019-05-10T13:06:33Z</time>
      </trkpt>
      <trkpt lat="38.86853" lon="-9.08121">
        <ele>52.53</ele>
        <time>2019-05-10T13:06:43Z</time>
      </trkpt>
      <trkpt lat="38.86853" lon="-9.08115">
        <ele>52.53</ele>
        <time>2019-05-10T13:06:46Z</time>
      </trkpt>
      <trkpt lat="38.86854" lon="-9.08091">
        <ele>52.05</ele>
        <time>2019-05-10T13:07:03Z</time>
      </trkpt>
      <trkpt lat="38.86855" lon="-9.08091">
        <ele>52.05</ele>
        <time>2019-05-10T13:07:04Z</time>
      </trkpt>
      <trkpt lat="38.86854" lon="-9.08085">
        <ele>52.05</ele>
        <time>2019-05-10T13:07:08Z</time>
      </trkpt>
      <trkpt lat="38.86854" lon="-9.08077">
        <ele>51.57</ele>
        <time>2019-05-10T13:07:13Z</time>
      </trkpt>
      <trkpt lat="38.86854" lon="-9.08057">
        <ele>51.09</ele>
        <time>2019-05-10T13:07:26Z</time>
      </trkpt>
      <trkpt lat="38.86854" lon="-9.08051">
        <ele>50.61</ele>
        <time>2019-05-10T13:07:31Z</time>
      </trkpt>
      <trkpt lat="38.86855" lon="-9.08045">
        <ele>51.57</ele>
        <time>2019-05-10T13:07:35Z</time>
      </trkpt>
      <trkpt lat="38.86859" lon="-9.08025">
        <ele>50.61</ele>
        <time>2019-05-10T13:07:49Z</time>
      </trkpt>
      <trkpt lat="38.8686" lon="-9.08019">
        <ele>50.61</ele>
        <time>2019-05-10T13:07:53Z</time>
      </trkpt>
      <trkpt lat="38.86867" lon="-9.08001">
        <ele>50.61</ele>
        <time>2019-05-10T13:08:06Z</time>
      </trkpt>
      <trkpt lat="38.86869" lon="-9.07983">
        <ele>50.61</ele>
        <time>2019-05-10T13:08:18Z</time>
      </trkpt>
      <trkpt lat="38.86871" lon="-9.07961">
        <ele>49.65</ele>
        <time>2019-05-10T13:08:33Z</time>
      </trkpt>
      <trkpt lat="38.86871" lon="-9.07938">
        <ele>49.16</ele>
        <time>2019-05-10T13:08:48Z</time>
      </trkpt>
      <trkpt lat="38.86874" lon="-9.07917">
        <ele>49.16</ele>
        <time>2019-05-10T13:09:03Z</time>
      </trkpt>
      <trkpt lat="38.86877" lon="-9.07907">
        <ele>49.16</ele>
        <time>2019-05-10T13:09:11Z</time>
      </trkpt>
      <trkpt lat="38.86879" lon="-9.07896">
        <ele>49.16</ele>
        <time>2019-05-10T13:09:24Z</time>
      </trkpt>
      <trkpt lat="38.86883" lon="-9.07887">
        <ele>48.2</ele>
        <time>2019-05-10T13:09:41Z</time>
      </trkpt>
      <trkpt lat="38.86887" lon="-9.07868">
        <ele>48.2</ele>
        <time>2019-05-10T13:09:54Z</time>
      </trkpt>
      <trkpt lat="38.86888" lon="-9.07863">
        <ele>48.2</ele>
        <time>2019-05-10T13:09:58Z</time>
      </trkpt>
      <trkpt lat="38.86892" lon="-9.0785">
        <ele>48.68</ele>
        <time>2019-05-10T13:10:06Z</time>
      </trkpt>
      <trkpt lat="38.86893" lon="-9.07846">
        <ele>47.72</ele>
        <time>2019-05-10T13:10:09Z</time>
      </trkpt>
      <trkpt lat="38.86897" lon="-9.07825">
        <ele>48.2</ele>
        <time>2019-05-10T13:10:24Z</time>
      </trkpt>
      <trkpt lat="38.86898" lon="-9.07822">
        <ele>48.68</ele>
        <time>2019-05-10T13:10:26Z</time>
      </trkpt>
      <trkpt lat="38.869" lon="-9.07815">
        <ele>48.2</ele>
        <time>2019-05-10T13:10:31Z</time>
      </trkpt>
      <trkpt lat="38.86906" lon="-9.07798">
        <ele>47.72</ele>
        <time>2019-05-10T13:10:43Z</time>
      </trkpt>
      <trkpt lat="38.86911" lon="-9.07781">
        <ele>48.2</ele>
        <time>2019-05-10T13:10:54Z</time>
      </trkpt>
      <trkpt lat="38.86915" lon="-9.0777">
        <ele>47.72</ele>
        <time>2019-05-10T13:11:02Z</time>
      </trkpt>
      <trkpt lat="38.86918" lon="-9.0775">
        <ele>47.72</ele>
        <time>2019-05-10T13:11:16Z</time>
      </trkpt>
      <trkpt lat="38.86915" lon="-9.07742">
        <ele>47.72</ele>
        <time>2019-05-10T13:11:22Z</time>
      </trkpt>
      <trkpt lat="38.86912" lon="-9.07727">
        <ele>47.72</ele>
        <time>2019-05-10T13:11:31Z</time>
      </trkpt>
      <trkpt lat="38.86913" lon="-9.07724">
        <ele>47.24</ele>
        <time>2019-05-10T13:11:33Z</time>
      </trkpt>
      <trkpt lat="38.86913" lon="-9.07718">
        <ele>47.72</ele>
        <time>2019-05-10T13:11:37Z</time>
      </trkpt>
      <trkpt lat="38.8691" lon="-9.07712">
        <ele>47.24</ele>
        <time>2019-05-10T13:11:43Z</time>
      </trkpt>
      <trkpt lat="38.8691" lon="-9.07713">
        <ele>48.2</ele>
        <time>2019-05-10T13:11:57Z</time>
      </trkpt>
      <trkpt lat="38.86902" lon="-9.07709">
        <ele>48.2</ele>
        <time>2019-05-10T13:12:11Z</time>
      </trkpt>
      <trkpt lat="38.86888" lon="-9.07706">
        <ele>47.72</ele>
        <time>2019-05-10T13:12:33Z</time>
      </trkpt>
      <trkpt lat="38.86882" lon="-9.07704">
        <ele>46.76</ele>
        <time>2019-05-10T13:12:38Z</time>
      </trkpt>
      <trkpt lat="38.86866" lon="-9.07699">
        <ele>47.72</ele>
        <time>2019-05-10T13:12:51Z</time>
      </trkpt>
      <trkpt lat="38.86845" lon="-9.07694">
        <ele>48.2</ele>
        <time>2019-05-10T13:13:08Z</time>
      </trkpt>
      <trkpt lat="38.86828" lon="-9.0769">
        <ele>49.65</ele>
        <time>2019-05-10T13:13:23Z</time>
      </trkpt>
      <trkpt lat="38.86811" lon="-9.07685">
        <ele>50.13</ele>
        <time>2019-05-10T13:13:39Z</time>
      </trkpt>
      <trkpt lat="38.86793" lon="-9.07681">
        <ele>50.61</ele>
        <time>2019-05-10T13:13:54Z</time>
      </trkpt>
      <trkpt lat="38.86788" lon="-9.0768">
        <ele>51.57</ele>
        <time>2019-05-10T13:13:59Z</time>
      </trkpt>
      <trkpt lat="38.86786" lon="-9.07679">
        <ele>51.09</ele>
        <time>2019-05-10T13:14:01Z</time>
      </trkpt>
      <trkpt lat="38.86777" lon="-9.07676">
        <ele>51.57</ele>
        <time>2019-05-10T13:14:11Z</time>
      </trkpt>
      <trkpt lat="38.86769" lon="-9.07661">
        <ele>52.05</ele>
        <time>2019-05-10T13:14:25Z</time>
      </trkpt>
      <trkpt lat="38.8677" lon="-9.07649">
        <ele>52.53</ele>
        <time>2019-05-10T13:14:32Z</time>
      </trkpt>
      <trkpt lat="38.86772" lon="-9.07643">
        <ele>51.57</ele>
        <time>2019-05-10T13:14:37Z</time>
      </trkpt>
      <trkpt lat="38.86783" lon="-9.0762">
        <ele>51.09</ele>
        <time>2019-05-10T13:14:55Z</time>
      </trkpt>
      <trkpt lat="38.8679" lon="-9.07603">
        <ele>51.09</ele>
        <time>2019-05-10T13:15:08Z</time>
      </trkpt>
      <trkpt lat="38.86791" lon="-9.07595">
        <ele>51.09</ele>
        <time>2019-05-10T13:15:13Z</time>
      </trkpt>
      <trkpt lat="38.86791" lon="-9.07587">
        <ele>51.57</ele>
        <time>2019-05-10T13:15:19Z</time>
      </trkpt>
      <trkpt lat="38.86795" lon="-9.07574">
        <ele>51.57</ele>
        <time>2019-05-10T13:15:28Z</time>
      </trkpt>
      <trkpt lat="38.86802" lon="-9.07561">
        <ele>51.09</ele>
        <time>2019-05-10T13:15:38Z</time>
      </trkpt>
      <trkpt lat="38.86812" lon="-9.07544">
        <ele>51.09</ele>
        <time>2019-05-10T13:15:52Z</time>
      </trkpt>
      <trkpt lat="38.86821" lon="-9.07527">
        <ele>50.13</ele>
        <time>2019-05-10T13:16:05Z</time>
      </trkpt>
      <trkpt lat="38.86831" lon="-9.0751">
        <ele>50.13</ele>
        <time>2019-05-10T13:16:18Z</time>
      </trkpt>
      <trkpt lat="38.8684" lon="-9.07492">
        <ele>49.65</ele>
        <time>2019-05-10T13:16:31Z</time>
      </trkpt>
      <trkpt lat="38.86848" lon="-9.07474">
        <ele>48.68</ele>
        <time>2019-05-10T13:16:45Z</time>
      </trkpt>
      <trkpt lat="38.86858" lon="-9.07452">
        <ele>46.76</ele>
        <time>2019-05-10T13:17:00Z</time>
      </trkpt>
      <trkpt lat="38.8686" lon="-9.0745">
        <ele>46.76</ele>
        <time>2019-05-10T13:17:02Z</time>
      </trkpt>
      <trkpt lat="38.8687" lon="-9.07428">
        <ele>46.28</ele>
        <time>2019-05-10T13:17:18Z</time>
      </trkpt>
      <trkpt lat="38.86881" lon="-9.07407">
        <ele>46.28</ele>
        <time>2019-05-10T13:17:35Z</time>
      </trkpt>
      <trkpt lat="38.86891" lon="-9.07388">
        <ele>45.32</ele>
        <time>2019-05-10T13:17:49Z</time>
      </trkpt>
      <trkpt lat="38.86894" lon="-9.07381">
        <ele>44.84</ele>
        <time>2019-05-10T13:17:54Z</time>
      </trkpt>
      <trkpt lat="38.86899" lon="-9.07372">
        <ele>44.84</ele>
        <time>2019-05-10T13:18:01Z</time>
      </trkpt>
      <trkpt lat="38.86905" lon="-9.07361">
        <ele>44.84</ele>
        <time>2019-05-10T13:18:09Z</time>
      </trkpt>
      <trkpt lat="38.86909" lon="-9.07355">
        <ele>44.84</ele>
        <time>2019-05-10T13:18:14Z</time>
      </trkpt>
      <trkpt lat="38.8692" lon="-9.07334">
        <ele>43.88</ele>
        <time>2019-05-10T13:18:30Z</time>
      </trkpt>
      <trkpt lat="38.86928" lon="-9.07316">
        <ele>42.92</ele>
        <time>2019-05-10T13:18:44Z</time>
      </trkpt>
      <trkpt lat="38.86937" lon="-9.07296">
        <ele>42.92</ele>
        <time>2019-05-10T13:18:59Z</time>
      </trkpt>
      <trkpt lat="38.86948" lon="-9.07277">
        <ele>41.47</ele>
        <time>2019-05-10T13:19:15Z</time>
      </trkpt>
      <trkpt lat="38.86954" lon="-9.07265">
        <ele>40.99</ele>
        <time>2019-05-10T13:19:26Z</time>
      </trkpt>
      <trkpt lat="38.86965" lon="-9.07246">
        <ele>39.07</ele>
        <time>2019-05-10T13:19:41Z</time>
      </trkpt>
      <trkpt lat="38.86975" lon="-9.0723">
        <ele>37.63</ele>
        <time>2019-05-10T13:19:54Z</time>
      </trkpt>
      <trkpt lat="38.86979" lon="-9.07221">
        <ele>37.15</ele>
        <time>2019-05-10T13:20:01Z</time>
      </trkpt>
      <trkpt lat="38.86986" lon="-9.07208">
        <ele>35.23</ele>
        <time>2019-05-10T13:20:11Z</time>
      </trkpt>
      <trkpt lat="38.86989" lon="-9.072">
        <ele>35.23</ele>
        <time>2019-05-10T13:20:17Z</time>
      </trkpt>
      <trkpt lat="38.8699" lon="-9.07197">
        <ele>34.74</ele>
        <time>2019-05-10T13:20:19Z</time>
      </trkpt>
      <trkpt lat="38.86995" lon="-9.07182">
        <ele>34.74</ele>
        <time>2019-05-10T13:20:30Z</time>
      </trkpt>
      <trkpt lat="38.87001" lon="-9.07167">
        <ele>34.26</ele>
        <time>2019-05-10T13:20:40Z</time>
      </trkpt>
      <trkpt lat="38.87009" lon="-9.07157">
        <ele>32.82</ele>
        <time>2019-05-10T13:20:49Z</time>
      </trkpt>
      <trkpt lat="38.8701" lon="-9.07156">
        <ele>33.3</ele>
        <time>2019-05-10T13:20:51Z</time>
      </trkpt>
      <trkpt lat="38.87017" lon="-9.07149">
        <ele>33.3</ele>
        <time>2019-05-10T13:20:58Z</time>
      </trkpt>
      <trkpt lat="38.8703" lon="-9.07131">
        <ele>33.3</ele>
        <time>2019-05-10T13:21:13Z</time>
      </trkpt>
      <trkpt lat="38.87034" lon="-9.07124">
        <ele>33.3</ele>
        <time>2019-05-10T13:21:18Z</time>
      </trkpt>
      <trkpt lat="38.87039" lon="-9.07111">
        <ele>32.82</ele>
        <time>2019-05-10T13:21:28Z</time>
      </trkpt>
      <trkpt lat="38.87042" lon="-9.07107">
        <ele>33.3</ele>
        <time>2019-05-10T13:21:31Z</time>
      </trkpt>
      <trkpt lat="38.87043" lon="-9.07105">
        <ele>33.3</ele>
        <time>2019-05-10T13:21:33Z</time>
      </trkpt>
      <trkpt lat="38.87054" lon="-9.07088">
        <ele>33.78</ele>
        <time>2019-05-10T13:21:48Z</time>
      </trkpt>
      <trkpt lat="38.87066" lon="-9.07072">
        <ele>34.26</ele>
        <time>2019-05-10T13:22:02Z</time>
      </trkpt>
      <trkpt lat="38.87064" lon="-9.07072">
        <ele>34.26</ele>
        <time>2019-05-10T13:22:23Z</time>
      </trkpt>
      <trkpt lat="38.87064" lon="-9.07072">
        <ele>34.26</ele>
        <time>2019-05-10T13:22:44Z</time>
      </trkpt>
      <trkpt lat="38.87065" lon="-9.07072">
        <ele>34.26</ele>
        <time>2019-05-10T13:23:00Z</time>
      </trkpt>
      <trkpt lat="38.87065" lon="-9.07072">
        <ele>33.78</ele>
        <time>2019-05-10T13:23:27Z</time>
      </trkpt>
      <trkpt lat="38.87062" lon="-9.0707">
        <ele>33.78</ele>
        <time>2019-05-10T13:23:42Z</time>
      </trkpt>
      <trkpt lat="38.87063" lon="-9.07069">
        <ele>33.78</ele>
        <time>2019-05-10T13:24:11Z</time>
      </trkpt>
      <trkpt lat="38.87067" lon="-9.07067">
        <ele>33.78</ele>
        <time>2019-05-10T13:24:30Z</time>
      </trkpt>
      <trkpt lat="38.87077" lon="-9.07052">
        <ele>34.26</ele>
        <time>2019-05-10T13:24:43Z</time>
      </trkpt>
      <trkpt lat="38.87084" lon="-9.07043">
        <ele>35.23</ele>
        <time>2019-05-10T13:24:58Z</time>
      </trkpt>
      <trkpt lat="38.87089" lon="-9.07035">
        <ele>34.74</ele>
        <time>2019-05-10T13:25:20Z</time>
      </trkpt>
      <trkpt lat="38.87101" lon="-9.07019">
        <ele>35.71</ele>
        <time>2019-05-10T13:25:34Z</time>
      </trkpt>
      <trkpt lat="38.87116" lon="-9.06999">
        <ele>35.71</ele>
        <time>2019-05-10T13:25:51Z</time>
      </trkpt>
      <trkpt lat="38.87128" lon="-9.06983">
        <ele>34.74</ele>
        <time>2019-05-10T13:26:05Z</time>
      </trkpt>
      <trkpt lat="38.87141" lon="-9.06968">
        <ele>33.78</ele>
        <time>2019-05-10T13:26:19Z</time>
      </trkpt>
      <trkpt lat="38.87148" lon="-9.0696">
        <ele>34.74</ele>
        <time>2019-05-10T13:26:27Z</time>
      </trkpt>
      <trkpt lat="38.87156" lon="-9.06951">
        <ele>35.71</ele>
        <time>2019-05-10T13:26:40Z</time>
      </trkpt>
      <trkpt lat="38.87169" lon="-9.06938">
        <ele>36.67</ele>
        <time>2019-05-10T13:26:54Z</time>
      </trkpt>
      <trkpt lat="38.8717" lon="-9.06925">
        <ele>35.71</ele>
        <time>2019-05-10T13:27:05Z</time>
      </trkpt>
      <trkpt lat="38.87167" lon="-9.06921">
        <ele>35.71</ele>
        <time>2019-05-10T13:27:10Z</time>
      </trkpt>
      <trkpt lat="38.87165" lon="-9.06902">
        <ele>34.74</ele>
        <time>2019-05-10T13:27:26Z</time>
      </trkpt>
      <trkpt lat="38.87163" lon="-9.06887">
        <ele>35.71</ele>
        <time>2019-05-10T13:27:31Z</time>
      </trkpt>
      <trkpt lat="38.87153" lon="-9.0688">
        <ele>34.74</ele>
        <time>2019-05-10T13:27:40Z</time>
      </trkpt>
      <trkpt lat="38.87142" lon="-9.06857">
        <ele>34.74</ele>
        <time>2019-05-10T13:27:55Z</time>
      </trkpt>
      <trkpt lat="38.87138" lon="-9.0685">
        <ele>34.26</ele>
        <time>2019-05-10T13:28:00Z</time>
      </trkpt>
      <trkpt lat="38.87122" lon="-9.06834">
        <ele>33.3</ele>
        <time>2019-05-10T13:28:17Z</time>
      </trkpt>
      <trkpt lat="38.87123" lon="-9.06835">
        <ele>33.78</ele>
        <time>2019-05-10T13:28:20Z</time>
      </trkpt>
      <trkpt lat="38.87118" lon="-9.0683">
        <ele>33.3</ele>
        <time>2019-05-10T13:28:25Z</time>
      </trkpt>
      <trkpt lat="38.87096" lon="-9.06813">
        <ele>31.38</ele>
        <time>2019-05-10T13:28:44Z</time>
      </trkpt>
      <trkpt lat="38.8708" lon="-9.06796">
        <ele>30.42</ele>
        <time>2019-05-10T13:28:59Z</time>
      </trkpt>
      <trkpt lat="38.87067" lon="-9.0678">
        <ele>28.98</ele>
        <time>2019-05-10T13:29:14Z</time>
      </trkpt>
      <trkpt lat="38.87059" lon="-9.06763">
        <ele>28.02</ele>
        <time>2019-05-10T13:29:27Z</time>
      </trkpt>
      <trkpt lat="38.8706" lon="-9.06752">
        <ele>28.02</ele>
        <time>2019-05-10T13:29:40Z</time>
      </trkpt>
      <trkpt lat="38.87059" lon="-9.06738">
        <ele>27.53</ele>
        <time>2019-05-10T13:29:49Z</time>
      </trkpt>
      <trkpt lat="38.87054" lon="-9.06727">
        <ele>27.05</ele>
        <time>2019-05-10T13:29:57Z</time>
      </trkpt>
      <trkpt lat="38.87039" lon="-9.06712">
        <ele>27.05</ele>
        <time>2019-05-10T13:30:13Z</time>
      </trkpt>
      <trkpt lat="38.87038" lon="-9.0671">
        <ele>26.09</ele>
        <time>2019-05-10T13:30:14Z</time>
      </trkpt>
      <trkpt lat="38.87032" lon="-9.06689">
        <ele>26.09</ele>
        <time>2019-05-10T13:30:29Z</time>
      </trkpt>
      <trkpt lat="38.87027" lon="-9.06663">
        <ele>25.61</ele>
        <time>2019-05-10T13:30:45Z</time>
      </trkpt>
      <trkpt lat="38.87023" lon="-9.06641">
        <ele>25.61</ele>
        <time>2019-05-10T13:30:59Z</time>
      </trkpt>
      <trkpt lat="38.8702" lon="-9.06627">
        <ele>25.13</ele>
        <time>2019-05-10T13:31:08Z</time>
      </trkpt>
      <trkpt lat="38.87015" lon="-9.06618">
        <ele>25.61</ele>
        <time>2019-05-10T13:31:15Z</time>
      </trkpt>
      <trkpt lat="38.87013" lon="-9.06598">
        <ele>25.13</ele>
        <time>2019-05-10T13:31:28Z</time>
      </trkpt>
      <trkpt lat="38.87009" lon="-9.06575">
        <ele>25.13</ele>
        <time>2019-05-10T13:31:42Z</time>
      </trkpt>
      <trkpt lat="38.87009" lon="-9.06572">
        <ele>24.65</ele>
        <time>2019-05-10T13:31:44Z</time>
      </trkpt>
      <trkpt lat="38.87004" lon="-9.06552">
        <ele>24.17</ele>
        <time>2019-05-10T13:31:58Z</time>
      </trkpt>
      <trkpt lat="38.87003" lon="-9.06548">
        <ele>24.17</ele>
        <time>2019-05-10T13:32:01Z</time>
      </trkpt>
      <trkpt lat="38.87002" lon="-9.06542">
        <ele>23.21</ele>
        <time>2019-05-10T13:32:05Z</time>
      </trkpt>
      <trkpt lat="38.86999" lon="-9.0652">
        <ele>23.21</ele>
        <time>2019-05-10T13:32:19Z</time>
      </trkpt>
      <trkpt lat="38.86996" lon="-9.0651">
        <ele>23.21</ele>
        <time>2019-05-10T13:32:32Z</time>
      </trkpt>
      <trkpt lat="38.86992" lon="-9.06489">
        <ele>22.73</ele>
        <time>2019-05-10T13:32:46Z</time>
      </trkpt>
      <trkpt lat="38.86987" lon="-9.06464">
        <ele>23.21</ele>
        <time>2019-05-10T13:33:02Z</time>
      </trkpt>
      <trkpt lat="38.86985" lon="-9.06456">
        <ele>21.77</ele>
        <time>2019-05-10T13:33:08Z</time>
      </trkpt>
      <trkpt lat="38.8698" lon="-9.0643">
        <ele>21.77</ele>
        <time>2019-05-10T13:33:24Z</time>
      </trkpt>
      <trkpt lat="38.86976" lon="-9.06406">
        <ele>22.25</ele>
        <time>2019-05-10T13:33:39Z</time>
      </trkpt>
      <trkpt lat="38.86969" lon="-9.06384">
        <ele>21.77</ele>
        <time>2019-05-10T13:33:54Z</time>
      </trkpt>
      <trkpt lat="38.86962" lon="-9.06358">
        <ele>21.29</ele>
        <time>2019-05-10T13:34:11Z</time>
      </trkpt>
      <trkpt lat="38.86952" lon="-9.06334">
        <ele>21.29</ele>
        <time>2019-05-10T13:34:27Z</time>
      </trkpt>
      <trkpt lat="38.86942" lon="-9.0631">
        <ele>20.32</ele>
        <time>2019-05-10T13:34:44Z</time>
      </trkpt>
      <trkpt lat="38.86932" lon="-9.06292">
        <ele>19.84</ele>
        <time>2019-05-10T13:35:00Z</time>
      </trkpt>
      <trkpt lat="38.86917" lon="-9.06271">
        <ele>19.36</ele>
        <time>2019-05-10T13:35:17Z</time>
      </trkpt>
      <trkpt lat="38.86903" lon="-9.06246">
        <ele>19.36</ele>
        <time>2019-05-10T13:35:36Z</time>
      </trkpt>
      <trkpt lat="38.86899" lon="-9.06231">
        <ele>19.36</ele>
        <time>2019-05-10T13:35:48Z</time>
      </trkpt>
      <trkpt lat="38.86898" lon="-9.06227">
        <ele>19.36</ele>
        <time>2019-05-10T13:35:51Z</time>
      </trkpt>
      <trkpt lat="38.86899" lon="-9.06224">
        <ele>19.36</ele>
        <time>2019-05-10T13:35:53Z</time>
      </trkpt>
      <trkpt lat="38.86899" lon="-9.06202">
        <ele>18.88</ele>
        <time>2019-05-10T13:36:07Z</time>
      </trkpt>
      <trkpt lat="38.86894" lon="-9.06193">
        <ele>18.88</ele>
        <time>2019-05-10T13:36:14Z</time>
      </trkpt>
      <trkpt lat="38.8689" lon="-9.06179">
        <ele>19.36</ele>
        <time>2019-05-10T13:36:25Z</time>
      </trkpt>
      <trkpt lat="38.86885" lon="-9.06173">
        <ele>19.36</ele>
        <time>2019-05-10T13:36:31Z</time>
      </trkpt>
      <trkpt lat="38.86869" lon="-9.06173">
        <ele>19.36</ele>
        <time>2019-05-10T13:36:46Z</time>
      </trkpt>
      <trkpt lat="38.86862" lon="-9.06166">
        <ele>18.4</ele>
        <time>2019-05-10T13:37:09Z</time>
      </trkpt>
      <trkpt lat="38.86861" lon="-9.06163">
        <ele>18.88</ele>
        <time>2019-05-10T13:37:11Z</time>
      </trkpt>
      <trkpt lat="38.86854" lon="-9.06146">
        <ele>17.92</ele>
        <time>2019-05-10T13:37:25Z</time>
      </trkpt>
      <trkpt lat="38.86852" lon="-9.06139">
        <ele>17.44</ele>
        <time>2019-05-10T13:37:30Z</time>
      </trkpt>
      <trkpt lat="38.86848" lon="-9.06121">
        <ele>17.44</ele>
        <time>2019-05-10T13:37:44Z</time>
      </trkpt>
      <trkpt lat="38.86843" lon="-9.06115">
        <ele>17.44</ele>
        <time>2019-05-10T13:37:50Z</time>
      </trkpt>
      <trkpt lat="38.86842" lon="-9.06113">
        <ele>17.92</ele>
        <time>2019-05-10T13:37:52Z</time>
      </trkpt>
      <trkpt lat="38.86836" lon="-9.06094">
        <ele>16.96</ele>
        <time>2019-05-10T13:38:06Z</time>
      </trkpt>
      <trkpt lat="38.86836" lon="-9.06091">
        <ele>16.96</ele>
        <time>2019-05-10T13:38:09Z</time>
      </trkpt>
      <trkpt lat="38.86834" lon="-9.06089">
        <ele>16.48</ele>
        <time>2019-05-10T13:38:11Z</time>
      </trkpt>
      <trkpt lat="38.86829" lon="-9.06084">
        <ele>16.48</ele>
        <time>2019-05-10T13:38:16Z</time>
      </trkpt>
      <trkpt lat="38.8682" lon="-9.06064">
        <ele>16</ele>
        <time>2019-05-10T13:38:28Z</time>
      </trkpt>
      <trkpt lat="38.86817" lon="-9.06058">
        <ele>16</ele>
        <time>2019-05-10T13:38:33Z</time>
      </trkpt>
      <trkpt lat="38.86804" lon="-9.0604">
        <ele>15.04</ele>
        <time>2019-05-10T13:38:48Z</time>
      </trkpt>
      <trkpt lat="38.868" lon="-9.06036">
        <ele>15.52</ele>
        <time>2019-05-10T13:38:53Z</time>
      </trkpt>
      <trkpt lat="38.86797" lon="-9.06032">
        <ele>15.04</ele>
        <time>2019-05-10T13:38:57Z</time>
      </trkpt>
      <trkpt lat="38.86776" lon="-9.0603">
        <ele>15.04</ele>
        <time>2019-05-10T13:39:09Z</time>
      </trkpt>
      <trkpt lat="38.86774" lon="-9.0603">
        <ele>14.56</ele>
        <time>2019-05-10T13:39:10Z</time>
      </trkpt>
      <trkpt lat="38.86767" lon="-9.0601">
        <ele>14.08</ele>
        <time>2019-05-10T13:39:24Z</time>
      </trkpt>
      <trkpt lat="38.8676" lon="-9.06001">
        <ele>13.6</ele>
        <time>2019-05-10T13:39:35Z</time>
      </trkpt>
      <trkpt lat="38.8675" lon="-9.05988">
        <ele>13.12</ele>
        <time>2019-05-10T13:39:49Z</time>
      </trkpt>
      <trkpt lat="38.86724" lon="-9.05991">
        <ele>12.63</ele>
        <time>2019-05-10T13:40:04Z</time>
      </trkpt>
      <trkpt lat="38.8671" lon="-9.05984">
        <ele>12.63</ele>
        <time>2019-05-10T13:40:15Z</time>
      </trkpt>
      <trkpt lat="38.8669" lon="-9.0598">
        <ele>11.67</ele>
        <time>2019-05-10T13:40:30Z</time>
      </trkpt>
      <trkpt lat="38.86689" lon="-9.05981">
        <ele>11.67</ele>
        <time>2019-05-10T13:40:33Z</time>
      </trkpt>
      <trkpt lat="38.86674" lon="-9.0599">
        <ele>11.67</ele>
        <time>2019-05-10T13:40:48Z</time>
      </trkpt>
      <trkpt lat="38.8667" lon="-9.05991">
        <ele>12.63</ele>
        <time>2019-05-10T13:40:51Z</time>
      </trkpt>
      <trkpt lat="38.8666" lon="-9.06004">
        <ele>12.63</ele>
        <time>2019-05-10T13:41:05Z</time>
      </trkpt>
      <trkpt lat="38.86657" lon="-9.06006">
        <ele>12.63</ele>
        <time>2019-05-10T13:41:09Z</time>
      </trkpt>
      <trkpt lat="38.86641" lon="-9.06009">
        <ele>12.15</ele>
        <time>2019-05-10T13:41:23Z</time>
      </trkpt>
      <trkpt lat="38.8663" lon="-9.06005">
        <ele>12.15</ele>
        <time>2019-05-10T13:41:34Z</time>
      </trkpt>
      <trkpt lat="38.86623" lon="-9.06003">
        <ele>12.15</ele>
        <time>2019-05-10T13:41:42Z</time>
      </trkpt>
      <trkpt lat="38.8661" lon="-9.05992">
        <ele>12.15</ele>
        <time>2019-05-10T13:41:57Z</time>
      </trkpt>
      <trkpt lat="38.86608" lon="-9.05993">
        <ele>11.67</ele>
        <time>2019-05-10T13:41:59Z</time>
      </trkpt>
      <trkpt lat="38.86595" lon="-9.06005">
        <ele>12.15</ele>
        <time>2019-05-10T13:42:13Z</time>
      </trkpt>
      <trkpt lat="38.86581" lon="-9.06017">
        <ele>11.19</ele>
        <time>2019-05-10T13:42:26Z</time>
      </trkpt>
      <trkpt lat="38.86568" lon="-9.06028">
        <ele>12.15</ele>
        <time>2019-05-10T13:42:40Z</time>
      </trkpt>
      <trkpt lat="38.86552" lon="-9.06037">
        <ele>10.71</ele>
        <time>2019-05-10T13:42:53Z</time>
      </trkpt>
      <trkpt lat="38.86544" lon="-9.0604">
        <ele>10.71</ele>
        <time>2019-05-10T13:43:00Z</time>
      </trkpt>
      <trkpt lat="38.86537" lon="-9.06039">
        <ele>11.67</ele>
        <time>2019-05-10T13:43:06Z</time>
      </trkpt>
      <trkpt lat="38.86521" lon="-9.06042">
        <ele>11.67</ele>
        <time>2019-05-10T13:43:20Z</time>
      </trkpt>
      <trkpt lat="38.86502" lon="-9.06047">
        <ele>11.67</ele>
        <time>2019-05-10T13:43:35Z</time>
      </trkpt>
      <trkpt lat="38.86486" lon="-9.06051">
        <ele>12.15</ele>
        <time>2019-05-10T13:43:49Z</time>
      </trkpt>
      <trkpt lat="38.86477" lon="-9.06052">
        <ele>11.19</ele>
        <time>2019-05-10T13:43:56Z</time>
      </trkpt>
      <trkpt lat="38.86471" lon="-9.0605">
        <ele>11.67</ele>
        <time>2019-05-10T13:44:01Z</time>
      </trkpt>
      <trkpt lat="38.86464" lon="-9.06048">
        <ele>11.67</ele>
        <time>2019-05-10T13:44:07Z</time>
      </trkpt>
      <trkpt lat="38.86451" lon="-9.06034">
        <ele>12.63</ele>
        <time>2019-05-10T13:44:22Z</time>
      </trkpt>
      <trkpt lat="38.8645" lon="-9.06033">
        <ele>13.12</ele>
        <time>2019-05-10T13:44:23Z</time>
      </trkpt>
      <trkpt lat="38.86445" lon="-9.0602">
        <ele>14.08</ele>
        <time>2019-05-10T13:44:36Z</time>
      </trkpt>
      <trkpt lat="38.86435" lon="-9.06003">
        <ele>15.52</ele>
        <time>2019-05-10T13:44:50Z</time>
      </trkpt>
      <trkpt lat="38.86424" lon="-9.05985">
        <ele>16</ele>
        <time>2019-05-10T13:45:05Z</time>
      </trkpt>
      <trkpt lat="38.86415" lon="-9.05965">
        <ele>15.52</ele>
        <time>2019-05-10T13:45:20Z</time>
      </trkpt>
      <trkpt lat="38.86414" lon="-9.05962">
        <ele>15.52</ele>
        <time>2019-05-10T13:45:23Z</time>
      </trkpt>
      <trkpt lat="38.86409" lon="-9.05953">
        <ele>15.52</ele>
        <time>2019-05-10T13:45:31Z</time>
      </trkpt>
      <trkpt lat="38.86398" lon="-9.05934">
        <ele>14.08</ele>
        <time>2019-05-10T13:45:47Z</time>
      </trkpt>
      <trkpt lat="38.86396" lon="-9.05929">
        <ele>13.12</ele>
        <time>2019-05-10T13:45:51Z</time>
      </trkpt>
      <trkpt lat="38.86389" lon="-9.0591">
        <ele>13.12</ele>
        <time>2019-05-10T13:46:06Z</time>
      </trkpt>
      <trkpt lat="38.8638" lon="-9.05892">
        <ele>10.71</ele>
        <time>2019-05-10T13:46:21Z</time>
      </trkpt>
      <trkpt lat="38.86377" lon="-9.05889">
        <ele>10.23</ele>
        <time>2019-05-10T13:46:27Z</time>
      </trkpt>
      <trkpt lat="38.86368" lon="-9.05892">
        <ele>9.75</ele>
        <time>2019-05-10T13:46:35Z</time>
      </trkpt>
      <trkpt lat="38.86365" lon="-9.0589">
        <ele>10.23</ele>
        <time>2019-05-10T13:46:38Z</time>
      </trkpt>
      <trkpt lat="38.86364" lon="-9.05886">
        <ele>8.79</ele>
        <time>2019-05-10T13:46:41Z</time>
      </trkpt>
      <trkpt lat="38.86358" lon="-9.0588">
        <ele>8.31</ele>
        <time>2019-05-10T13:46:48Z</time>
      </trkpt>
      <trkpt lat="38.86337" lon="-9.05885">
        <ele>5.91</ele>
        <time>2019-05-10T13:47:05Z</time>
      </trkpt>
      <trkpt lat="38.86336" lon="-9.05885">
        <ele>4.94</ele>
        <time>2019-05-10T13:47:06Z</time>
      </trkpt>
      <trkpt lat="38.86328" lon="-9.05879">
        <ele>5.91</ele>
        <time>2019-05-10T13:47:14Z</time>
      </trkpt>
      <trkpt lat="38.86329" lon="-9.05875">
        <ele>6.39</ele>
        <time>2019-05-10T13:47:17Z</time>
      </trkpt>
      <trkpt lat="38.86328" lon="-9.05868">
        <ele>6.39</ele>
        <time>2019-05-10T13:47:21Z</time>
      </trkpt>
      <trkpt lat="38.86318" lon="-9.05848">
        <ele>6.39</ele>
        <time>2019-05-10T13:47:38Z</time>
      </trkpt>
      <trkpt lat="38.86307" lon="-9.05832">
        <ele>6.87</ele>
        <time>2019-05-10T13:47:52Z</time>
      </trkpt>
      <trkpt lat="38.86309" lon="-9.05807">
        <ele>6.39</ele>
        <time>2019-05-10T13:48:08Z</time>
      </trkpt>
      <trkpt lat="38.86314" lon="-9.05791">
        <ele>6.39</ele>
        <time>2019-05-10T13:48:22Z</time>
      </trkpt>
      <trkpt lat="38.86315" lon="-9.05788">
        <ele>6.87</ele>
        <time>2019-05-10T13:48:24Z</time>
      </trkpt>
      <trkpt lat="38.86321" lon="-9.05781">
        <ele>6.39</ele>
        <time>2019-05-10T13:48:40Z</time>
      </trkpt>
      <trkpt lat="38.8633" lon="-9.0577">
        <ele>5.91</ele>
        <time>2019-05-10T13:48:58Z</time>
      </trkpt>
      <trkpt lat="38.8634" lon="-9.05758">
        <ele>4.94</ele>
        <time>2019-05-10T13:49:11Z</time>
      </trkpt>
      <trkpt lat="38.86344" lon="-9.05753">
        <ele>5.42</ele>
        <time>2019-05-10T13:49:16Z</time>
      </trkpt>
      <trkpt lat="38.8636" lon="-9.05735">
        <ele>5.42</ele>
        <time>2019-05-10T13:49:34Z</time>
      </trkpt>
      <trkpt lat="38.86369" lon="-9.05727">
        <ele>4.94</ele>
        <time>2019-05-10T13:49:47Z</time>
      </trkpt>
      <trkpt lat="38.86376" lon="-9.05725">
        <ele>4.94</ele>
        <time>2019-05-10T13:49:58Z</time>
      </trkpt>
      <trkpt lat="38.86377" lon="-9.05724">
        <ele>4.94</ele>
        <time>2019-05-10T13:50:01Z</time>
      </trkpt>
      <trkpt lat="38.86388" lon="-9.05718">
        <ele>4.94</ele>
        <time>2019-05-10T13:50:12Z</time>
      </trkpt>
      <trkpt lat="38.86403" lon="-9.05704">
        <ele>4.94</ele>
        <time>2019-05-10T13:50:28Z</time>
      </trkpt>
      <trkpt lat="38.86417" lon="-9.0569">
        <ele>5.42</ele>
        <time>2019-05-10T13:50:43Z</time>
      </trkpt>
      <trkpt lat="38.86431" lon="-9.05675">
        <ele>5.42</ele>
        <time>2019-05-10T13:50:58Z</time>
      </trkpt>
      <trkpt lat="38.86439" lon="-9.05667">
        <ele>4.94</ele>
        <time>2019-05-10T13:51:12Z</time>
      </trkpt>
      <trkpt lat="38.86443" lon="-9.05664">
        <ele>5.42</ele>
        <time>2019-05-10T13:51:19Z</time>
      </trkpt>
      <trkpt lat="38.8645" lon="-9.05659">
        <ele>5.42</ele>
        <time>2019-05-10T13:51:26Z</time>
      </trkpt>
      <trkpt lat="38.86455" lon="-9.05653">
        <ele>5.42</ele>
        <time>2019-05-10T13:51:31Z</time>
      </trkpt>
      <trkpt lat="38.86457" lon="-9.0565">
        <ele>5.42</ele>
        <time>2019-05-10T13:51:34Z</time>
      </trkpt>
      <trkpt lat="38.86472" lon="-9.05638">
        <ele>5.42</ele>
        <time>2019-05-10T13:51:49Z</time>
      </trkpt>
      <trkpt lat="38.8648" lon="-9.05631">
        <ele>5.42</ele>
        <time>2019-05-10T13:51:57Z</time>
      </trkpt>
      <trkpt lat="38.86495" lon="-9.05619">
        <ele>5.42</ele>
        <time>2019-05-10T13:52:11Z</time>
      </trkpt>
      <trkpt lat="38.86506" lon="-9.05609">
        <ele>5.42</ele>
        <time>2019-05-10T13:52:24Z</time>
      </trkpt>
      <trkpt lat="38.86523" lon="-9.05594">
        <ele>6.39</ele>
        <time>2019-05-10T13:52:41Z</time>
      </trkpt>
      <trkpt lat="38.86541" lon="-9.05579">
        <ele>6.39</ele>
        <time>2019-05-10T13:52:58Z</time>
      </trkpt>
      <trkpt lat="38.86556" lon="-9.05563">
        <ele>6.87</ele>
        <time>2019-05-10T13:53:14Z</time>
      </trkpt>
      <trkpt lat="38.8657" lon="-9.05541">
        <ele>5.91</ele>
        <time>2019-05-10T13:53:32Z</time>
      </trkpt>
      <trkpt lat="38.86579" lon="-9.05516">
        <ele>5.91</ele>
        <time>2019-05-10T13:53:49Z</time>
      </trkpt>
      <trkpt lat="38.86585" lon="-9.05498">
        <ele>5.42</ele>
        <time>2019-05-10T13:54:01Z</time>
      </trkpt>
      <trkpt lat="38.86583" lon="-9.05484">
        <ele>4.94</ele>
        <time>2019-05-10T13:54:11Z</time>
      </trkpt>
      <trkpt lat="38.86578" lon="-9.05463">
        <ele>5.42</ele>
        <time>2019-05-10T13:54:26Z</time>
      </trkpt>
      <trkpt lat="38.86567" lon="-9.05447">
        <ele>5.91</ele>
        <time>2019-05-10T13:54:40Z</time>
      </trkpt>
      <trkpt lat="38.86556" lon="-9.05431">
        <ele>5.42</ele>
        <time>2019-05-10T13:54:54Z</time>
      </trkpt>
      <trkpt lat="38.8655" lon="-9.05421">
        <ele>5.91</ele>
        <time>2019-05-10T13:55:03Z</time>
      </trkpt>
      <trkpt lat="38.86538" lon="-9.05406">
        <ele>5.91</ele>
        <time>2019-05-10T13:55:17Z</time>
      </trkpt>
      <trkpt lat="38.86527" lon="-9.05386">
        <ele>4.94</ele>
        <time>2019-05-10T13:55:32Z</time>
      </trkpt>
      <trkpt lat="38.86514" lon="-9.05368">
        <ele>4.94</ele>
        <time>2019-05-10T13:55:46Z</time>
      </trkpt>
      <trkpt lat="38.86514" lon="-9.05367">
        <ele>4.46</ele>
        <time>2019-05-10T13:55:47Z</time>
      </trkpt>
      <trkpt lat="38.8651" lon="-9.05361">
        <ele>5.42</ele>
        <time>2019-05-10T13:55:52Z</time>
      </trkpt>
      <trkpt lat="38.86496" lon="-9.05346">
        <ele>5.42</ele>
        <time>2019-05-10T13:56:07Z</time>
      </trkpt>
      <trkpt lat="38.86477" lon="-9.05335">
        <ele>4.46</ele>
        <time>2019-05-10T13:56:24Z</time>
      </trkpt>
      <trkpt lat="38.86461" lon="-9.05321">
        <ele>4.94</ele>
        <time>2019-05-10T13:56:40Z</time>
      </trkpt>
      <trkpt lat="38.86453" lon="-9.05318">
        <ele>4.94</ele>
        <time>2019-05-10T13:56:47Z</time>
      </trkpt>
      <trkpt lat="38.86446" lon="-9.05313">
        <ele>4.94</ele>
        <time>2019-05-10T13:56:54Z</time>
      </trkpt>
      <trkpt lat="38.86442" lon="-9.0531">
        <ele>4.94</ele>
        <time>2019-05-10T13:56:58Z</time>
      </trkpt>
      <trkpt lat="38.86438" lon="-9.05307">
        <ele>4.94</ele>
        <time>2019-05-10T13:57:18Z</time>
      </trkpt>
      <trkpt lat="38.86423" lon="-9.05297">
        <ele>5.42</ele>
        <time>2019-05-10T13:57:34Z</time>
      </trkpt>
      <trkpt lat="38.86415" lon="-9.05291">
        <ele>4.94</ele>
        <time>2019-05-10T13:57:49Z</time>
      </trkpt>
      <trkpt lat="38.86398" lon="-9.0528">
        <ele>5.42</ele>
        <time>2019-05-10T13:58:04Z</time>
      </trkpt>
      <trkpt lat="38.86382" lon="-9.05268">
        <ele>5.42</ele>
        <time>2019-05-10T13:58:19Z</time>
      </trkpt>
      <trkpt lat="38.86367" lon="-9.0526">
        <ele>4.94</ele>
        <time>2019-05-10T13:58:31Z</time>
      </trkpt>
      <trkpt lat="38.8635" lon="-9.05248">
        <ele>5.42</ele>
        <time>2019-05-10T13:58:47Z</time>
      </trkpt>
      <trkpt lat="38.86328" lon="-9.05235">
        <ele>4.94</ele>
        <time>2019-05-10T13:59:06Z</time>
      </trkpt>
      <trkpt lat="38.8631" lon="-9.05224">
        <ele>5.91</ele>
        <time>2019-05-10T13:59:22Z</time>
      </trkpt>
      <trkpt lat="38.86296" lon="-9.05212">
        <ele>5.42</ele>
        <time>2019-05-10T13:59:36Z</time>
      </trkpt>
      <trkpt lat="38.8628" lon="-9.05203">
        <ele>5.42</ele>
        <time>2019-05-10T13:59:50Z</time>
      </trkpt>
      <trkpt lat="38.86263" lon="-9.05202">
        <ele>5.91</ele>
        <time>2019-05-10T14:00:05Z</time>
      </trkpt>
      <trkpt lat="38.86254" lon="-9.05196">
        <ele>5.91</ele>
        <time>2019-05-10T14:00:15Z</time>
      </trkpt>
      <trkpt lat="38.86236" lon="-9.05185">
        <ele>6.39</ele>
        <time>2019-05-10T14:00:32Z</time>
      </trkpt>
      <trkpt lat="38.86219" lon="-9.05173">
        <ele>5.42</ele>
        <time>2019-05-10T14:00:47Z</time>
      </trkpt>
      <trkpt lat="38.86218" lon="-9.05169">
        <ele>5.91</ele>
        <time>2019-05-10T14:00:50Z</time>
      </trkpt>
      <trkpt lat="38.86227" lon="-9.05144">
        <ele>5.91</ele>
        <time>2019-05-10T14:01:07Z</time>
      </trkpt>
      <trkpt lat="38.8624" lon="-9.0513">
        <ele>4.94</ele>
        <time>2019-05-10T14:01:22Z</time>
      </trkpt>
      <trkpt lat="38.8624" lon="-9.0513">
        <ele>4.94</ele>
        <time>2019-05-10T14:01:23Z</time>
      </trkpt>
      <trkpt lat="38.86246" lon="-9.05125">
        <ele>5.42</ele>
        <time>2019-05-10T14:01:29Z</time>
      </trkpt>
      <trkpt lat="38.86256" lon="-9.05115">
        <ele>4.94</ele>
        <time>2019-05-10T14:01:43Z</time>
      </trkpt>
      <trkpt lat="38.8626" lon="-9.05099">
        <ele>4.94</ele>
        <time>2019-05-10T14:01:58Z</time>
      </trkpt>
      <trkpt lat="38.86266" lon="-9.05077">
        <ele>4.94</ele>
        <time>2019-05-10T14:02:13Z</time>
      </trkpt>
      <trkpt lat="38.86273" lon="-9.05059">
        <ele>4.94</ele>
        <time>2019-05-10T14:02:26Z</time>
      </trkpt>
      <trkpt lat="38.86282" lon="-9.05036">
        <ele>4.94</ele>
        <time>2019-05-10T14:02:43Z</time>
      </trkpt>
      <trkpt lat="38.8629" lon="-9.05015">
        <ele>5.42</ele>
        <time>2019-05-10T14:02:59Z</time>
      </trkpt>
      <trkpt lat="38.86294" lon="-9.05004">
        <ele>4.94</ele>
        <time>2019-05-10T14:03:12Z</time>
      </trkpt>
      <trkpt lat="38.86301" lon="-9.04985">
        <ele>5.42</ele>
        <time>2019-05-10T14:03:26Z</time>
      </trkpt>
      <trkpt lat="38.86308" lon="-9.04964">
        <ele>4.94</ele>
        <time>2019-05-10T14:03:41Z</time>
      </trkpt>
      <trkpt lat="38.86315" lon="-9.04946">
        <ele>4.94</ele>
        <time>2019-05-10T14:03:57Z</time>
      </trkpt>
      <trkpt lat="38.86321" lon="-9.04932">
        <ele>4.94</ele>
        <time>2019-05-10T14:04:10Z</time>
      </trkpt>
      <trkpt lat="38.86323" lon="-9.04924">
        <ele>4.94</ele>
        <time>2019-05-10T14:04:26Z</time>
      </trkpt>
      <trkpt lat="38.86323" lon="-9.04924">
        <ele>4.94</ele>
        <time>2019-05-10T14:04:50Z</time>
      </trkpt>
      <trkpt lat="38.86325" lon="-9.04921">
        <ele>4.94</ele>
        <time>2019-05-10T14:05:06Z</time>
      </trkpt>
      <trkpt lat="38.86324" lon="-9.04921">
        <ele>4.46</ele>
        <time>2019-05-10T14:05:25Z</time>
      </trkpt>
      <trkpt lat="38.86325" lon="-9.04922">
        <ele>5.42</ele>
        <time>2019-05-10T14:05:58Z</time>
      </trkpt>
      <trkpt lat="38.86327" lon="-9.04916">
        <ele>5.42</ele>
        <time>2019-05-10T14:06:14Z</time>
      </trkpt>
      <trkpt lat="38.86329" lon="-9.0491">
        <ele>3.5</ele>
        <time>2019-05-10T14:06:28Z</time>
      </trkpt>
      <trkpt lat="38.86334" lon="-9.04896">
        <ele>4.46</ele>
        <time>2019-05-10T14:06:41Z</time>
      </trkpt>
      <trkpt lat="38.86342" lon="-9.04875">
        <ele>4.94</ele>
        <time>2019-05-10T14:06:57Z</time>
      </trkpt>
      <trkpt lat="38.86353" lon="-9.04851">
        <ele>5.42</ele>
        <time>2019-05-10T14:07:15Z</time>
      </trkpt>
      <trkpt lat="38.86357" lon="-9.0484">
        <ele>4.46</ele>
        <time>2019-05-10T14:07:23Z</time>
      </trkpt>
      <trkpt lat="38.86358" lon="-9.04837">
        <ele>4.46</ele>
        <time>2019-05-10T14:07:25Z</time>
      </trkpt>
      <trkpt lat="38.8636" lon="-9.0483">
        <ele>4.94</ele>
        <time>2019-05-10T14:07:30Z</time>
      </trkpt>
      <trkpt lat="38.86369" lon="-9.0481">
        <ele>4.94</ele>
        <time>2019-05-10T14:07:45Z</time>
      </trkpt>
      <trkpt lat="38.86379" lon="-9.04786">
        <ele>4.94</ele>
        <time>2019-05-10T14:08:02Z</time>
      </trkpt>
      <trkpt lat="38.86388" lon="-9.04764">
        <ele>4.94</ele>
        <time>2019-05-10T14:08:19Z</time>
      </trkpt>
      <trkpt lat="38.86398" lon="-9.04741">
        <ele>4.46</ele>
        <time>2019-05-10T14:08:36Z</time>
      </trkpt>
      <trkpt lat="38.86407" lon="-9.0472">
        <ele>4.94</ele>
        <time>2019-05-10T14:08:52Z</time>
      </trkpt>
      <trkpt lat="38.86416" lon="-9.047">
        <ele>4.94</ele>
        <time>2019-05-10T14:09:07Z</time>
      </trkpt>
      <trkpt lat="38.8642" lon="-9.04692">
        <ele>4.94</ele>
        <time>2019-05-10T14:09:13Z</time>
      </trkpt>
      <trkpt lat="38.8643" lon="-9.04668">
        <ele>4.94</ele>
        <time>2019-05-10T14:09:31Z</time>
      </trkpt>
      <trkpt lat="38.8644" lon="-9.04645">
        <ele>4.46</ele>
        <time>2019-05-10T14:09:48Z</time>
      </trkpt>
      <trkpt lat="38.86451" lon="-9.04624">
        <ele>4.94</ele>
        <time>2019-05-10T14:10:05Z</time>
      </trkpt>
      <trkpt lat="38.86453" lon="-9.04621">
        <ele>4.94</ele>
        <time>2019-05-10T14:10:08Z</time>
      </trkpt>
      <trkpt lat="38.86464" lon="-9.04596">
        <ele>4.46</ele>
        <time>2019-05-10T14:10:26Z</time>
      </trkpt>
      <trkpt lat="38.86471" lon="-9.04581">
        <ele>4.94</ele>
        <time>2019-05-10T14:10:38Z</time>
      </trkpt>
      <trkpt lat="38.86474" lon="-9.04574">
        <ele>4.94</ele>
        <time>2019-05-10T14:10:43Z</time>
      </trkpt>
      <trkpt lat="38.86485" lon="-9.0455">
        <ele>4.46</ele>
        <time>2019-05-10T14:11:01Z</time>
      </trkpt>
      <trkpt lat="38.8649" lon="-9.04541">
        <ele>3.98</ele>
        <time>2019-05-10T14:11:13Z</time>
      </trkpt>
      <trkpt lat="38.86501" lon="-9.04521">
        <ele>3.98</ele>
        <time>2019-05-10T14:11:29Z</time>
      </trkpt>
      <trkpt lat="38.86511" lon="-9.045">
        <ele>3.98</ele>
        <time>2019-05-10T14:11:45Z</time>
      </trkpt>
      <trkpt lat="38.86522" lon="-9.04478">
        <ele>4.46</ele>
        <time>2019-05-10T14:12:02Z</time>
      </trkpt>
      <trkpt lat="38.86531" lon="-9.04456">
        <ele>3.98</ele>
        <time>2019-05-10T14:12:18Z</time>
      </trkpt>
      <trkpt lat="38.86538" lon="-9.0444">
        <ele>3.98</ele>
        <time>2019-05-10T14:12:30Z</time>
      </trkpt>
      <trkpt lat="38.86549" lon="-9.04415">
        <ele>3.98</ele>
        <time>2019-05-10T14:12:48Z</time>
      </trkpt>
      <trkpt lat="38.8656" lon="-9.04404">
        <ele>4.46</ele>
        <time>2019-05-10T14:13:04Z</time>
      </trkpt>
      <trkpt lat="38.86565" lon="-9.04401">
        <ele>3.98</ele>
        <time>2019-05-10T14:13:18Z</time>
      </trkpt>
      <trkpt lat="38.86574" lon="-9.04381">
        <ele>4.46</ele>
        <time>2019-05-10T14:13:34Z</time>
      </trkpt>
      <trkpt lat="38.86576" lon="-9.04379">
        <ele>4.46</ele>
        <time>2019-05-10T14:13:36Z</time>
      </trkpt>
      <trkpt lat="38.86589" lon="-9.04388">
        <ele>3.98</ele>
        <time>2019-05-10T14:13:49Z</time>
      </trkpt>
      <trkpt lat="38.86607" lon="-9.04397">
        <ele>3.5</ele>
        <time>2019-05-10T14:14:05Z</time>
      </trkpt>
      <trkpt lat="38.86616" lon="-9.04404">
        <ele>3.02</ele>
        <time>2019-05-10T14:14:18Z</time>
      </trkpt>
      <trkpt lat="38.86633" lon="-9.04415">
        <ele>3.5</ele>
        <time>2019-05-10T14:14:34Z</time>
      </trkpt>
      <trkpt lat="38.86641" lon="-9.04421">
        <ele>4.46</ele>
        <time>2019-05-10T14:14:41Z</time>
      </trkpt>
      <trkpt lat="38.86657" lon="-9.0443">
        <ele>3.02</ele>
        <time>2019-05-10T14:14:56Z</time>
      </trkpt>
      <trkpt lat="38.86672" lon="-9.0444">
        <ele>3.5</ele>
        <time>2019-05-10T14:15:10Z</time>
      </trkpt>
      <trkpt lat="38.86688" lon="-9.04451">
        <ele>3.5</ele>
        <time>2019-05-10T14:15:26Z</time>
      </trkpt>
      <trkpt lat="38.86697" lon="-9.04457">
        <ele>3.5</ele>
        <time>2019-05-10T14:15:38Z</time>
      </trkpt>
      <trkpt lat="38.86704" lon="-9.04461">
        <ele>3.5</ele>
        <time>2019-05-10T14:15:45Z</time>
      </trkpt>
      <trkpt lat="38.86718" lon="-9.04469">
        <ele>3.02</ele>
        <time>2019-05-10T14:15:58Z</time>
      </trkpt>
      <trkpt lat="38.86723" lon="-9.04472">
        <ele>3.5</ele>
        <time>2019-05-10T14:16:02Z</time>
      </trkpt>
      <trkpt lat="38.86739" lon="-9.04481">
        <ele>3.5</ele>
        <time>2019-05-10T14:16:17Z</time>
      </trkpt>
      <trkpt lat="38.86758" lon="-9.04488">
        <ele>3.5</ele>
        <time>2019-05-10T14:16:34Z</time>
      </trkpt>
      <trkpt lat="38.86768" lon="-9.0449">
        <ele>3.5</ele>
        <time>2019-05-10T14:16:42Z</time>
      </trkpt>
      <trkpt lat="38.86787" lon="-9.0449">
        <ele>3.5</ele>
        <time>2019-05-10T14:16:58Z</time>
      </trkpt>
      <trkpt lat="38.86806" lon="-9.04485">
        <ele>3.98</ele>
        <time>2019-05-10T14:17:14Z</time>
      </trkpt>
      <trkpt lat="38.86823" lon="-9.04478">
        <ele>3.5</ele>
        <time>2019-05-10T14:17:28Z</time>
      </trkpt>
      <trkpt lat="38.86834" lon="-9.04471">
        <ele>3.5</ele>
        <time>2019-05-10T14:17:41Z</time>
      </trkpt>
      <trkpt lat="38.86849" lon="-9.0446">
        <ele>3.98</ele>
        <time>2019-05-10T14:17:56Z</time>
      </trkpt>
      <trkpt lat="38.86865" lon="-9.04448">
        <ele>4.46</ele>
        <time>2019-05-10T14:18:12Z</time>
      </trkpt>
      <trkpt lat="38.8688" lon="-9.04434">
        <ele>4.46</ele>
        <time>2019-05-10T14:18:28Z</time>
      </trkpt>
      <trkpt lat="38.8688" lon="-9.04436">
        <ele>4.46</ele>
        <time>2019-05-10T14:18:48Z</time>
      </trkpt>
      <trkpt lat="38.86888" lon="-9.04429">
        <ele>3.98</ele>
        <time>2019-05-10T14:19:04Z</time>
      </trkpt>
      <trkpt lat="38.86893" lon="-9.04425">
        <ele>3.98</ele>
        <time>2019-05-10T14:19:15Z</time>
      </trkpt>
      <trkpt lat="38.86894" lon="-9.04424">
        <ele>3.98</ele>
        <time>2019-05-10T14:19:24Z</time>
      </trkpt>
      <trkpt lat="38.8691" lon="-9.04412">
        <ele>4.46</ele>
        <time>2019-05-10T14:19:39Z</time>
      </trkpt>
      <trkpt lat="38.86927" lon="-9.04398">
        <ele>4.46</ele>
        <time>2019-05-10T14:19:55Z</time>
      </trkpt>
      <trkpt lat="38.86943" lon="-9.04384">
        <ele>3.5</ele>
        <time>2019-05-10T14:20:11Z</time>
      </trkpt>
      <trkpt lat="38.86958" lon="-9.04373">
        <ele>3.98</ele>
        <time>2019-05-10T14:20:25Z</time>
      </trkpt>
      <trkpt lat="38.86974" lon="-9.0436">
        <ele>3.98</ele>
        <time>2019-05-10T14:20:40Z</time>
      </trkpt>
      <trkpt lat="38.86989" lon="-9.04348">
        <ele>3.98</ele>
        <time>2019-05-10T14:20:55Z</time>
      </trkpt>
      <trkpt lat="38.87006" lon="-9.04334">
        <ele>3.98</ele>
        <time>2019-05-10T14:21:11Z</time>
      </trkpt>
      <trkpt lat="38.87021" lon="-9.04322">
        <ele>4.46</ele>
        <time>2019-05-10T14:21:26Z</time>
      </trkpt>
      <trkpt lat="38.87027" lon="-9.04317">
        <ele>4.46</ele>
        <time>2019-05-10T14:21:37Z</time>
      </trkpt>
      <trkpt lat="38.87042" lon="-9.04304">
        <ele>4.46</ele>
        <time>2019-05-10T14:21:52Z</time>
      </trkpt>
      <trkpt lat="38.87059" lon="-9.04291">
        <ele>4.46</ele>
        <time>2019-05-10T14:22:08Z</time>
      </trkpt>
      <trkpt lat="38.87074" lon="-9.04278">
        <ele>3.98</ele>
        <time>2019-05-10T14:22:23Z</time>
      </trkpt>
      <trkpt lat="38.87088" lon="-9.04267">
        <ele>3.98</ele>
        <time>2019-05-10T14:22:37Z</time>
      </trkpt>
      <trkpt lat="38.87096" lon="-9.04263">
        <ele>4.46</ele>
        <time>2019-05-10T14:22:44Z</time>
      </trkpt>
      <trkpt lat="38.87106" lon="-9.04277">
        <ele>4.94</ele>
        <time>2019-05-10T14:22:57Z</time>
      </trkpt>
      <trkpt lat="38.87116" lon="-9.0427">
        <ele>4.46</ele>
        <time>2019-05-10T14:23:10Z</time>
      </trkpt>
      <trkpt lat="38.87117" lon="-9.0427">
        <ele>4.46</ele>
        <time>2019-05-10T14:23:11Z</time>
      </trkpt>
      <trkpt lat="38.87135" lon="-9.04255">
        <ele>4.46</ele>
        <time>2019-05-10T14:23:29Z</time>
      </trkpt>
      <trkpt lat="38.87145" lon="-9.04248">
        <ele>3.98</ele>
        <time>2019-05-10T14:23:42Z</time>
      </trkpt>
      <trkpt lat="38.87163" lon="-9.04234">
        <ele>4.94</ele>
        <time>2019-05-10T14:24:00Z</time>
      </trkpt>
      <trkpt lat="38.8718" lon="-9.0422">
        <ele>4.46</ele>
        <time>2019-05-10T14:24:16Z</time>
      </trkpt>
      <trkpt lat="38.87195" lon="-9.04207">
        <ele>3.98</ele>
        <time>2019-05-10T14:24:32Z</time>
      </trkpt>
      <trkpt lat="38.87208" lon="-9.04196">
        <ele>4.46</ele>
        <time>2019-05-10T14:24:46Z</time>
      </trkpt>
      <trkpt lat="38.87225" lon="-9.04183">
        <ele>4.46</ele>
        <time>2019-05-10T14:25:02Z</time>
      </trkpt>
      <trkpt lat="38.87243" lon="-9.04168">
        <ele>4.46</ele>
        <time>2019-05-10T14:25:20Z</time>
      </trkpt>
      <trkpt lat="38.87261" lon="-9.04153">
        <ele>4.46</ele>
        <time>2019-05-10T14:25:38Z</time>
      </trkpt>
      <trkpt lat="38.87274" lon="-9.04141">
        <ele>4.94</ele>
        <time>2019-05-10T14:25:54Z</time>
      </trkpt>
      <trkpt lat="38.87286" lon="-9.04133">
        <ele>4.46</ele>
        <time>2019-05-10T14:26:08Z</time>
      </trkpt>
      <trkpt lat="38.87302" lon="-9.0412">
        <ele>4.46</ele>
        <time>2019-05-10T14:26:24Z</time>
      </trkpt>
      <trkpt lat="38.8732" lon="-9.04105">
        <ele>4.94</ele>
        <time>2019-05-10T14:26:41Z</time>
      </trkpt>
      <trkpt lat="38.87337" lon="-9.04091">
        <ele>4.46</ele>
        <time>2019-05-10T14:26:58Z</time>
      </trkpt>
      <trkpt lat="38.87354" lon="-9.04077">
        <ele>4.94</ele>
        <time>2019-05-10T14:27:14Z</time>
      </trkpt>
      <trkpt lat="38.87368" lon="-9.04065">
        <ele>4.94</ele>
        <time>2019-05-10T14:27:29Z</time>
      </trkpt>
      <trkpt lat="38.87377" lon="-9.04058">
        <ele>4.94</ele>
        <time>2019-05-10T14:27:41Z</time>
      </trkpt>
      <trkpt lat="38.87394" lon="-9.04044">
        <ele>3.98</ele>
        <time>2019-05-10T14:27:57Z</time>
      </trkpt>
      <trkpt lat="38.87411" lon="-9.0403">
        <ele>4.46</ele>
        <time>2019-05-10T14:28:13Z</time>
      </trkpt>
      <trkpt lat="38.87429" lon="-9.04016">
        <ele>4.94</ele>
        <time>2019-05-10T14:28:30Z</time>
      </trkpt>
      <trkpt lat="38.87445" lon="-9.04003">
        <ele>4.46</ele>
        <time>2019-05-10T14:28:46Z</time>
      </trkpt>
      <trkpt lat="38.87461" lon="-9.0399">
        <ele>4.46</ele>
        <time>2019-05-10T14:29:03Z</time>
      </trkpt>
      <trkpt lat="38.87477" lon="-9.03977">
        <ele>3.98</ele>
        <time>2019-05-10T14:29:17Z</time>
      </trkpt>
      <trkpt lat="38.87491" lon="-9.03966">
        <ele>4.46</ele>
        <time>2019-05-10T14:29:30Z</time>
      </trkpt>
      <trkpt lat="38.87505" lon="-9.03955">
        <ele>4.46</ele>
        <time>2019-05-10T14:29:43Z</time>
      </trkpt>
      <trkpt lat="38.87519" lon="-9.03944">
        <ele>4.94</ele>
        <time>2019-05-10T14:29:56Z</time>
      </trkpt>
      <trkpt lat="38.87522" lon="-9.03939">
        <ele>4.46</ele>
        <time>2019-05-10T14:30:09Z</time>
      </trkpt>
      <trkpt lat="38.87525" lon="-9.03936">
        <ele>4.94</ele>
        <time>2019-05-10T14:30:14Z</time>
      </trkpt>
      <trkpt lat="38.87541" lon="-9.03925">
        <ele>3.98</ele>
        <time>2019-05-10T14:30:28Z</time>
      </trkpt>
      <trkpt lat="38.87548" lon="-9.03917">
        <ele>3.98</ele>
        <time>2019-05-10T14:30:41Z</time>
      </trkpt>
      <trkpt lat="38.87557" lon="-9.0391">
        <ele>4.46</ele>
        <time>2019-05-10T14:30:53Z</time>
      </trkpt>
      <trkpt lat="38.87571" lon="-9.03898">
        <ele>4.46</ele>
        <time>2019-05-10T14:31:08Z</time>
      </trkpt>
      <trkpt lat="38.87575" lon="-9.03895">
        <ele>4.46</ele>
        <time>2019-05-10T14:31:11Z</time>
      </trkpt>
      <trkpt lat="38.87577" lon="-9.03894">
        <ele>4.94</ele>
        <time>2019-05-10T14:31:13Z</time>
      </trkpt>
      <trkpt lat="38.87584" lon="-9.03888">
        <ele>4.46</ele>
        <time>2019-05-10T14:31:19Z</time>
      </trkpt>
      <trkpt lat="38.876" lon="-9.03877">
        <ele>4.46</ele>
        <time>2019-05-10T14:31:35Z</time>
      </trkpt>
      <trkpt lat="38.87617" lon="-9.03869">
        <ele>4.46</ele>
        <time>2019-05-10T14:31:52Z</time>
      </trkpt>
      <trkpt lat="38.87622" lon="-9.03867">
        <ele>4.46</ele>
        <time>2019-05-10T14:31:57Z</time>
      </trkpt>
      <trkpt lat="38.87641" lon="-9.0386">
        <ele>3.98</ele>
        <time>2019-05-10T14:32:14Z</time>
      </trkpt>
      <trkpt lat="38.87658" lon="-9.03859">
        <ele>4.94</ele>
        <time>2019-05-10T14:32:27Z</time>
      </trkpt>
      <trkpt lat="38.87678" lon="-9.03862">
        <ele>4.94</ele>
        <time>2019-05-10T14:32:44Z</time>
      </trkpt>
      <trkpt lat="38.87696" lon="-9.03868">
        <ele>4.94</ele>
        <time>2019-05-10T14:33:00Z</time>
      </trkpt>
      <trkpt lat="38.87711" lon="-9.03875">
        <ele>4.94</ele>
        <time>2019-05-10T14:33:14Z</time>
      </trkpt>
      <trkpt lat="38.87725" lon="-9.03886">
        <ele>3.98</ele>
        <time>2019-05-10T14:33:28Z</time>
      </trkpt>
      <trkpt lat="38.87738" lon="-9.03901">
        <ele>4.94</ele>
        <time>2019-05-10T14:33:42Z</time>
      </trkpt>
      <trkpt lat="38.87752" lon="-9.03916">
        <ele>4.94</ele>
        <time>2019-05-10T14:33:56Z</time>
      </trkpt>
      <trkpt lat="38.87766" lon="-9.03935">
        <ele>4.94</ele>
        <time>2019-05-10T14:34:13Z</time>
      </trkpt>
      <trkpt lat="38.87778" lon="-9.03954">
        <ele>4.46</ele>
        <time>2019-05-10T14:34:30Z</time>
      </trkpt>
      <trkpt lat="38.87787" lon="-9.03968">
        <ele>4.94</ele>
        <time>2019-05-10T14:34:42Z</time>
      </trkpt>
      <trkpt lat="38.87799" lon="-9.03986">
        <ele>4.46</ele>
        <time>2019-05-10T14:34:58Z</time>
      </trkpt>
      <trkpt lat="38.87811" lon="-9.04002">
        <ele>4.46</ele>
        <time>2019-05-10T14:35:13Z</time>
      </trkpt>
      <trkpt lat="38.8782" lon="-9.04016">
        <ele>4.94</ele>
        <time>2019-05-10T14:35:26Z</time>
      </trkpt>
      <trkpt lat="38.87822" lon="-9.04019">
        <ele>4.94</ele>
        <time>2019-05-10T14:35:29Z</time>
      </trkpt>
      <trkpt lat="38.87836" lon="-9.04037">
        <ele>4.46</ele>
        <time>2019-05-10T14:35:45Z</time>
      </trkpt>
      <trkpt lat="38.87843" lon="-9.04047">
        <ele>4.94</ele>
        <time>2019-05-10T14:35:58Z</time>
      </trkpt>
      <trkpt lat="38.87854" lon="-9.04063">
        <ele>4.46</ele>
        <time>2019-05-10T14:36:13Z</time>
      </trkpt>
      <trkpt lat="38.87868" lon="-9.04081">
        <ele>4.94</ele>
        <time>2019-05-10T14:36:30Z</time>
      </trkpt>
      <trkpt lat="38.87879" lon="-9.04099">
        <ele>3.98</ele>
        <time>2019-05-10T14:36:44Z</time>
      </trkpt>
      <trkpt lat="38.87893" lon="-9.04117">
        <ele>3.98</ele>
        <time>2019-05-10T14:37:00Z</time>
      </trkpt>
      <trkpt lat="38.879" lon="-9.0413">
        <ele>3.98</ele>
        <time>2019-05-10T14:37:11Z</time>
      </trkpt>
      <trkpt lat="38.87915" lon="-9.04145">
        <ele>3.98</ele>
        <time>2019-05-10T14:37:26Z</time>
      </trkpt>
      <trkpt lat="38.87928" lon="-9.04163">
        <ele>4.46</ele>
        <time>2019-05-10T14:37:42Z</time>
      </trkpt>
      <trkpt lat="38.87941" lon="-9.04177">
        <ele>3.98</ele>
        <time>2019-05-10T14:37:57Z</time>
      </trkpt>
      <trkpt lat="38.87953" lon="-9.04196">
        <ele>4.46</ele>
        <time>2019-05-10T14:38:14Z</time>
      </trkpt>
      <trkpt lat="38.87966" lon="-9.04213">
        <ele>4.46</ele>
        <time>2019-05-10T14:38:29Z</time>
      </trkpt>
      <trkpt lat="38.87977" lon="-9.04229">
        <ele>4.46</ele>
        <time>2019-05-10T14:38:44Z</time>
      </trkpt>
      <trkpt lat="38.87981" lon="-9.04232">
        <ele>4.46</ele>
        <time>2019-05-10T14:38:47Z</time>
      </trkpt>
      <trkpt lat="38.87985" lon="-9.04231">
        <ele>5.42</ele>
        <time>2019-05-10T14:38:52Z</time>
      </trkpt>
      <trkpt lat="38.87997" lon="-9.04225">
        <ele>4.94</ele>
        <time>2019-05-10T14:39:05Z</time>
      </trkpt>
      <trkpt lat="38.88002" lon="-9.04231">
        <ele>4.46</ele>
        <time>2019-05-10T14:39:11Z</time>
      </trkpt>
      <trkpt lat="38.8801" lon="-9.0424">
        <ele>4.46</ele>
        <time>2019-05-10T14:39:23Z</time>
      </trkpt>
      <trkpt lat="38.88024" lon="-9.04254">
        <ele>3.5</ele>
        <time>2019-05-10T14:39:38Z</time>
      </trkpt>
      <trkpt lat="38.88033" lon="-9.04264">
        <ele>4.46</ele>
        <time>2019-05-10T14:39:49Z</time>
      </trkpt>
      <trkpt lat="38.88036" lon="-9.04267">
        <ele>4.46</ele>
        <time>2019-05-10T14:39:52Z</time>
      </trkpt>
      <trkpt lat="38.88048" lon="-9.04282">
        <ele>3.98</ele>
        <time>2019-05-10T14:40:06Z</time>
      </trkpt>
      <trkpt lat="38.88058" lon="-9.04293">
        <ele>4.46</ele>
        <time>2019-05-10T14:40:17Z</time>
      </trkpt>
      <trkpt lat="38.8807" lon="-9.04307">
        <ele>3.98</ele>
        <time>2019-05-10T14:40:31Z</time>
      </trkpt>
      <trkpt lat="38.88074" lon="-9.04311">
        <ele>4.46</ele>
        <time>2019-05-10T14:40:35Z</time>
      </trkpt>
      <trkpt lat="38.88081" lon="-9.04318">
        <ele>4.46</ele>
        <time>2019-05-10T14:40:43Z</time>
      </trkpt>
      <trkpt lat="38.88088" lon="-9.04321">
        <ele>4.46</ele>
        <time>2019-05-10T14:40:53Z</time>
      </trkpt>
      <trkpt lat="38.88094" lon="-9.0432">
        <ele>3.5</ele>
        <time>2019-05-10T14:40:58Z</time>
      </trkpt>
      <trkpt lat="38.88108" lon="-9.0431">
        <ele>1.58</ele>
        <time>2019-05-10T14:41:16Z</time>
      </trkpt>
      <trkpt lat="38.88116" lon="-9.04302">
        <ele>1.58</ele>
        <time>2019-05-10T14:41:28Z</time>
      </trkpt>
      <trkpt lat="38.88131" lon="-9.04283">
        <ele>1.1</ele>
        <time>2019-05-10T14:41:45Z</time>
      </trkpt>
      <trkpt lat="38.88146" lon="-9.04267">
        <ele>1.1</ele>
        <time>2019-05-10T14:42:01Z</time>
      </trkpt>
      <trkpt lat="38.8816" lon="-9.04252">
        <ele>1.1</ele>
        <time>2019-05-10T14:42:16Z</time>
      </trkpt>
      <trkpt lat="38.88175" lon="-9.04237">
        <ele>0.14</ele>
        <time>2019-05-10T14:42:31Z</time>
      </trkpt>
      <trkpt lat="38.88188" lon="-9.04226">
        <ele>0.62</ele>
        <time>2019-05-10T14:42:44Z</time>
      </trkpt>
      <trkpt lat="38.88202" lon="-9.04212">
        <ele>0.62</ele>
        <time>2019-05-10T14:43:00Z</time>
      </trkpt>
      <trkpt lat="38.88215" lon="-9.04199">
        <ele>1.1</ele>
        <time>2019-05-10T14:43:14Z</time>
      </trkpt>
      <trkpt lat="38.88228" lon="-9.04184">
        <ele>1.1</ele>
        <time>2019-05-10T14:43:29Z</time>
      </trkpt>
      <trkpt lat="38.88241" lon="-9.04169">
        <ele>0.62</ele>
        <time>2019-05-10T14:43:44Z</time>
      </trkpt>
      <trkpt lat="38.88254" lon="-9.04158">
        <ele>1.58</ele>
        <time>2019-05-10T14:44:00Z</time>
      </trkpt>
      <trkpt lat="38.88266" lon="-9.04148">
        <ele>1.58</ele>
        <time>2019-05-10T14:44:16Z</time>
      </trkpt>
      <trkpt lat="38.8828" lon="-9.04135">
        <ele>1.1</ele>
        <time>2019-05-10T14:44:31Z</time>
      </trkpt>
      <trkpt lat="38.88293" lon="-9.04123">
        <ele>1.1</ele>
        <time>2019-05-10T14:44:45Z</time>
      </trkpt>
      <trkpt lat="38.88309" lon="-9.04108">
        <ele>1.1</ele>
        <time>2019-05-10T14:45:02Z</time>
      </trkpt>
      <trkpt lat="38.88323" lon="-9.04093">
        <ele>1.1</ele>
        <time>2019-05-10T14:45:17Z</time>
      </trkpt>
      <trkpt lat="38.88336" lon="-9.04078">
        <ele>0.62</ele>
        <time>2019-05-10T14:45:31Z</time>
      </trkpt>
      <trkpt lat="38.88348" lon="-9.04062">
        <ele>1.1</ele>
        <time>2019-05-10T14:45:45Z</time>
      </trkpt>
      <trkpt lat="38.8836" lon="-9.04047">
        <ele>1.1</ele>
        <time>2019-05-10T14:45:59Z</time>
      </trkpt>
      <trkpt lat="38.88372" lon="-9.04032">
        <ele>1.1</ele>
        <time>2019-05-10T14:46:14Z</time>
      </trkpt>
      <trkpt lat="38.8838" lon="-9.04022">
        <ele>1.1</ele>
        <time>2019-05-10T14:46:27Z</time>
      </trkpt>
      <trkpt lat="38.88397" lon="-9.04007">
        <ele>1.58</ele>
        <time>2019-05-10T14:46:44Z</time>
      </trkpt>
      <trkpt lat="38.88412" lon="-9.03993">
        <ele>2.06</ele>
        <time>2019-05-10T14:46:59Z</time>
      </trkpt>
      <trkpt lat="38.88429" lon="-9.03976">
        <ele>2.06</ele>
        <time>2019-05-10T14:47:16Z</time>
      </trkpt>
      <trkpt lat="38.88433" lon="-9.03973">
        <ele>2.54</ele>
        <time>2019-05-10T14:47:20Z</time>
      </trkpt>
      <trkpt lat="38.88449" lon="-9.03957">
        <ele>2.06</ele>
        <time>2019-05-10T14:47:36Z</time>
      </trkpt>
      <trkpt lat="38.88459" lon="-9.03946">
        <ele>2.54</ele>
        <time>2019-05-10T14:47:47Z</time>
      </trkpt>
      <trkpt lat="38.88474" lon="-9.03931">
        <ele>2.06</ele>
        <time>2019-05-10T14:48:03Z</time>
      </trkpt>
      <trkpt lat="38.8848" lon="-9.03925">
        <ele>2.54</ele>
        <time>2019-05-10T14:48:16Z</time>
      </trkpt>
      <trkpt lat="38.88491" lon="-9.03913">
        <ele>2.54</ele>
        <time>2019-05-10T14:48:29Z</time>
      </trkpt>
      <trkpt lat="38.88505" lon="-9.03898">
        <ele>2.54</ele>
        <time>2019-05-10T14:48:44Z</time>
      </trkpt>
      <trkpt lat="38.88521" lon="-9.03883">
        <ele>3.02</ele>
        <time>2019-05-10T14:49:00Z</time>
      </trkpt>
      <trkpt lat="38.88536" lon="-9.03869">
        <ele>2.54</ele>
        <time>2019-05-10T14:49:15Z</time>
      </trkpt>
      <trkpt lat="38.88548" lon="-9.03852">
        <ele>2.06</ele>
        <time>2019-05-10T14:49:31Z</time>
      </trkpt>
      <trkpt lat="38.8855" lon="-9.03849">
        <ele>2.54</ele>
        <time>2019-05-10T14:49:34Z</time>
      </trkpt>
      <trkpt lat="38.88569" lon="-9.03839">
        <ele>2.54</ele>
        <time>2019-05-10T14:49:51Z</time>
      </trkpt>
      <trkpt lat="38.88584" lon="-9.03824">
        <ele>2.06</ele>
        <time>2019-05-10T14:50:08Z</time>
      </trkpt>
      <trkpt lat="38.88598" lon="-9.03808">
        <ele>2.54</ele>
        <time>2019-05-10T14:50:25Z</time>
      </trkpt>
      <trkpt lat="38.88599" lon="-9.03802">
        <ele>2.54</ele>
        <time>2019-05-10T14:50:46Z</time>
      </trkpt>
      <trkpt lat="38.88599" lon="-9.03801">
        <ele>2.06</ele>
        <time>2019-05-10T14:51:00Z</time>
      </trkpt>
      <trkpt lat="38.88597" lon="-9.03801">
        <ele>2.54</ele>
        <time>2019-05-10T14:51:25Z</time>
      </trkpt>
      <trkpt lat="38.88601" lon="-9.03812">
        <ele>1.1</ele>
        <time>2019-05-10T14:51:58Z</time>
      </trkpt>
      <trkpt lat="38.88596" lon="-9.03803">
        <ele>0.62</ele>
        <time>2019-05-10T14:52:25Z</time>
      </trkpt>
      <trkpt lat="38.88595" lon="-9.038">
        <ele>1.1</ele>
        <time>2019-05-10T14:52:59Z</time>
      </trkpt>
      <trkpt lat="38.88591" lon="-9.03793">
        <ele>1.1</ele>
        <time>2019-05-10T14:53:28Z</time>
      </trkpt>
      <trkpt lat="38.88596" lon="-9.03803">
        <ele>1.1</ele>
        <time>2019-05-10T14:54:01Z</time>
      </trkpt>
      <trkpt lat="38.88598" lon="-9.03804">
        <ele>0.62</ele>
        <time>2019-05-10T14:54:28Z</time>
      </trkpt>
      <trkpt lat="38.88595" lon="-9.038">
        <ele>1.1</ele>
        <time>2019-05-10T14:54:57Z</time>
      </trkpt>
      <trkpt lat="38.88596" lon="-9.038">
        <ele>1.1</ele>
        <time>2019-05-10T14:55:18Z</time>
      </trkpt>
      <trkpt lat="38.88601" lon="-9.03799">
        <ele>1.1</ele>
        <time>2019-05-10T14:55:37Z</time>
      </trkpt>
      <trkpt lat="38.88606" lon="-9.03798">
        <ele>1.1</ele>
        <time>2019-05-10T14:55:52Z</time>
      </trkpt>
      <trkpt lat="38.88608" lon="-9.03796">
        <ele>1.1</ele>
        <time>2019-05-10T14:56:11Z</time>
      </trkpt>
      <trkpt lat="38.88611" lon="-9.03794">
        <ele>1.58</ele>
        <time>2019-05-10T14:56:42Z</time>
      </trkpt>
      <trkpt lat="38.88611" lon="-9.03797">
        <ele>1.58</ele>
        <time>2019-05-10T14:57:13Z</time>
      </trkpt>
      <trkpt lat="38.88612" lon="-9.03797">
        <ele>1.58</ele>
        <time>2019-05-10T14:57:47Z</time>
      </trkpt>
      <trkpt lat="38.88613" lon="-9.03797">
        <ele>1.58</ele>
        <time>2019-05-10T14:58:10Z</time>
      </trkpt>
      <trkpt lat="38.8861" lon="-9.03797">
        <ele>1.58</ele>
        <time>2019-05-10T14:58:35Z</time>
      </trkpt>
      <trkpt lat="38.88607" lon="-9.03802">
        <ele>1.58</ele>
        <time>2019-05-10T14:59:04Z</time>
      </trkpt>
      <trkpt lat="38.88597" lon="-9.03807">
        <ele>1.58</ele>
        <time>2019-05-10T14:59:20Z</time>
      </trkpt>
      <trkpt lat="38.88597" lon="-9.03807">
        <ele>2.06</ele>
        <time>2019-05-10T14:59:21Z</time>
      </trkpt>
      <trkpt lat="38.88588" lon="-9.03814">
        <ele>2.06</ele>
        <time>2019-05-10T14:59:30Z</time>
      </trkpt>
      <trkpt lat="38.88584" lon="-9.03822">
        <ele>2.06</ele>
        <time>2019-05-10T14:59:37Z</time>
      </trkpt>
      <trkpt lat="38.88568" lon="-9.03835">
        <ele>2.54</ele>
        <time>2019-05-10T14:59:55Z</time>
      </trkpt>
      <trkpt lat="38.88562" lon="-9.03841">
        <ele>2.54</ele>
        <time>2019-05-10T15:00:04Z</time>
      </trkpt>
      <trkpt lat="38.88541" lon="-9.03848">
        <ele>3.02</ele>
        <time>2019-05-10T15:00:22Z</time>
      </trkpt>
      <trkpt lat="38.88543" lon="-9.03849">
        <ele>2.54</ele>
        <time>2019-05-10T15:00:36Z</time>
      </trkpt>
      <trkpt lat="38.88545" lon="-9.03849">
        <ele>3.02</ele>
        <time>2019-05-10T15:00:51Z</time>
      </trkpt>
      <trkpt lat="38.88545" lon="-9.03849">
        <ele>3.02</ele>
        <time>2019-05-10T15:01:14Z</time>
      </trkpt>
      <trkpt lat="38.88544" lon="-9.0385">
        <ele>3.02</ele>
        <time>2019-05-10T15:01:39Z</time>
      </trkpt>
      <trkpt lat="38.88545" lon="-9.03849">
        <ele>3.02</ele>
        <time>2019-05-10T15:01:56Z</time>
      </trkpt>
      <trkpt lat="38.88532" lon="-9.03846">
        <ele>2.54</ele>
        <time>2019-05-10T15:02:11Z</time>
      </trkpt>
      <trkpt lat="38.88524" lon="-9.03841">
        <ele>2.54</ele>
        <time>2019-05-10T15:02:18Z</time>
      </trkpt>
      <trkpt lat="38.88515" lon="-9.03834">
        <ele>3.02</ele>
        <time>2019-05-10T15:02:28Z</time>
      </trkpt>
      <trkpt lat="38.88505" lon="-9.03813">
        <ele>3.5</ele>
        <time>2019-05-10T15:02:45Z</time>
      </trkpt>
      <trkpt lat="38.88505" lon="-9.03801">
        <ele>3.98</ele>
        <time>2019-05-10T15:02:56Z</time>
      </trkpt>
      <trkpt lat="38.88506" lon="-9.03793">
        <ele>3.5</ele>
        <time>2019-05-10T15:03:01Z</time>
      </trkpt>
      <trkpt lat="38.88513" lon="-9.03768">
        <ele>4.94</ele>
        <time>2019-05-10T15:03:17Z</time>
      </trkpt>
      <trkpt lat="38.88527" lon="-9.03752">
        <ele>5.91</ele>
        <time>2019-05-10T15:03:33Z</time>
      </trkpt>
      <trkpt lat="38.88535" lon="-9.03748">
        <ele>6.39</ele>
        <time>2019-05-10T15:03:45Z</time>
      </trkpt>
      <trkpt lat="38.88546" lon="-9.03745">
        <ele>6.87</ele>
        <time>2019-05-10T15:03:54Z</time>
      </trkpt>
      <trkpt lat="38.88566" lon="-9.03753">
        <ele>7.83</ele>
        <time>2019-05-10T15:04:12Z</time>
      </trkpt>
      <trkpt lat="38.88579" lon="-9.0377">
        <ele>7.35</ele>
        <time>2019-05-10T15:04:27Z</time>
      </trkpt>
      <trkpt lat="38.8858" lon="-9.03772">
        <ele>8.79</ele>
        <time>2019-05-10T15:04:29Z</time>
      </trkpt>
      <trkpt lat="38.88585" lon="-9.03779">
        <ele>9.75</ele>
        <time>2019-05-10T15:04:35Z</time>
      </trkpt>
      <trkpt lat="38.88591" lon="-9.03789">
        <ele>10.23</ele>
        <time>2019-05-10T15:04:45Z</time>
      </trkpt>
      <trkpt lat="38.88606" lon="-9.03805">
        <ele>9.75</ele>
        <time>2019-05-10T15:05:03Z</time>
      </trkpt>
      <trkpt lat="38.88614" lon="-9.03816">
        <ele>10.71</ele>
        <time>2019-05-10T15:05:12Z</time>
      </trkpt>
      <trkpt lat="38.88619" lon="-9.03823">
        <ele>10.71</ele>
        <time>2019-05-10T15:05:25Z</time>
      </trkpt>
      <trkpt lat="38.88626" lon="-9.03832">
        <ele>10.71</ele>
        <time>2019-05-10T15:05:37Z</time>
      </trkpt>
      <trkpt lat="38.88631" lon="-9.03839">
        <ele>10.23</ele>
        <time>2019-05-10T15:05:44Z</time>
      </trkpt>
      <trkpt lat="38.88636" lon="-9.03851">
        <ele>9.27</ele>
        <time>2019-05-10T15:05:57Z</time>
      </trkpt>
      <trkpt lat="38.88648" lon="-9.03867">
        <ele>9.75</ele>
        <time>2019-05-10T15:06:10Z</time>
      </trkpt>
      <trkpt lat="38.88662" lon="-9.03885">
        <ele>7.83</ele>
        <time>2019-05-10T15:06:25Z</time>
      </trkpt>
      <trkpt lat="38.88675" lon="-9.03901">
        <ele>6.87</ele>
        <time>2019-05-10T15:06:39Z</time>
      </trkpt>
      <trkpt lat="38.88684" lon="-9.0391">
        <ele>6.39</ele>
        <time>2019-05-10T15:06:48Z</time>
      </trkpt>
      <trkpt lat="38.88698" lon="-9.03925">
        <ele>4.94</ele>
        <time>2019-05-10T15:07:04Z</time>
      </trkpt>
      <trkpt lat="38.887" lon="-9.03925">
        <ele>5.42</ele>
        <time>2019-05-10T15:07:09Z</time>
      </trkpt>
      <trkpt lat="38.887" lon="-9.03931">
        <ele>4.94</ele>
        <time>2019-05-10T15:07:12Z</time>
      </trkpt>
      <trkpt lat="38.88703" lon="-9.03937">
        <ele>6.39</ele>
        <time>2019-05-10T15:07:17Z</time>
      </trkpt>
      <trkpt lat="38.88704" lon="-9.03939">
        <ele>3.5</ele>
        <time>2019-05-10T15:07:18Z</time>
      </trkpt>
      <trkpt lat="38.88707" lon="-9.03947">
        <ele>3.98</ele>
        <time>2019-05-10T15:07:24Z</time>
      </trkpt>
      <trkpt lat="38.88708" lon="-9.03955">
        <ele>3.98</ele>
        <time>2019-05-10T15:07:35Z</time>
      </trkpt>
      <trkpt lat="38.88709" lon="-9.03958">
        <ele>3.02</ele>
        <time>2019-05-10T15:07:37Z</time>
      </trkpt>
      <trkpt lat="38.88721" lon="-9.03973">
        <ele>3.02</ele>
        <time>2019-05-10T15:07:52Z</time>
      </trkpt>
      <trkpt lat="38.8873" lon="-9.03975">
        <ele>3.02</ele>
        <time>2019-05-10T15:08:06Z</time>
      </trkpt>
      <trkpt lat="38.88745" lon="-9.03989">
        <ele>3.5</ele>
        <time>2019-05-10T15:08:22Z</time>
      </trkpt>
      <trkpt lat="38.88762" lon="-9.04006">
        <ele>2.54</ele>
        <time>2019-05-10T15:08:40Z</time>
      </trkpt>
      <trkpt lat="38.88774" lon="-9.04022">
        <ele>2.54</ele>
        <time>2019-05-10T15:08:55Z</time>
      </trkpt>
      <trkpt lat="38.88789" lon="-9.0403">
        <ele>3.02</ele>
        <time>2019-05-10T15:09:08Z</time>
      </trkpt>
      <trkpt lat="38.88792" lon="-9.04033">
        <ele>2.54</ele>
        <time>2019-05-10T15:09:11Z</time>
      </trkpt>
      <trkpt lat="38.88798" lon="-9.04035">
        <ele>2.06</ele>
        <time>2019-05-10T15:09:16Z</time>
      </trkpt>
      <trkpt lat="38.88814" lon="-9.04048">
        <ele>2.54</ele>
        <time>2019-05-10T15:09:33Z</time>
      </trkpt>
      <trkpt lat="38.88832" lon="-9.0405">
        <ele>2.54</ele>
        <time>2019-05-10T15:09:48Z</time>
      </trkpt>
      <trkpt lat="38.88834" lon="-9.0405">
        <ele>3.02</ele>
        <time>2019-05-10T15:09:50Z</time>
      </trkpt>
      <trkpt lat="38.88849" lon="-9.04061">
        <ele>3.98</ele>
        <time>2019-05-10T15:10:06Z</time>
      </trkpt>
      <trkpt lat="38.88853" lon="-9.04073">
        <ele>3.98</ele>
        <time>2019-05-10T15:10:36Z</time>
      </trkpt>
      <trkpt lat="38.88857" lon="-9.04082">
        <ele>3.5</ele>
        <time>2019-05-10T15:10:50Z</time>
      </trkpt>
      <trkpt lat="38.88858" lon="-9.04085">
        <ele>3.5</ele>
        <time>2019-05-10T15:10:53Z</time>
      </trkpt>
      <trkpt lat="38.8886" lon="-9.0409">
        <ele>3.5</ele>
        <time>2019-05-10T15:10:57Z</time>
      </trkpt>
      <trkpt lat="38.88859" lon="-9.04113">
        <ele>3.98</ele>
        <time>2019-05-10T15:11:12Z</time>
      </trkpt>
      <trkpt lat="38.88859" lon="-9.04116">
        <ele>3.98</ele>
        <time>2019-05-10T15:11:14Z</time>
      </trkpt>
      <trkpt lat="38.8886" lon="-9.04124">
        <ele>4.94</ele>
        <time>2019-05-10T15:11:27Z</time>
      </trkpt>
      <trkpt lat="38.88863" lon="-9.04139">
        <ele>4.46</ele>
        <time>2019-05-10T15:11:40Z</time>
      </trkpt>
      <trkpt lat="38.88862" lon="-9.04139">
        <ele>4.46</ele>
        <time>2019-05-10T15:11:41Z</time>
      </trkpt>
      <trkpt lat="38.88855" lon="-9.04143">
        <ele>4.46</ele>
        <time>2019-05-10T15:11:54Z</time>
      </trkpt>
      <trkpt lat="38.88857" lon="-9.04143">
        <ele>3.98</ele>
        <time>2019-05-10T15:11:57Z</time>
      </trkpt>
      <trkpt lat="38.88864" lon="-9.04147">
        <ele>4.46</ele>
        <time>2019-05-10T15:12:06Z</time>
      </trkpt>
      <trkpt lat="38.88855" lon="-9.04163">
        <ele>4.94</ele>
        <time>2019-05-10T15:12:20Z</time>
      </trkpt>
      <trkpt lat="38.8885" lon="-9.04173">
        <ele>3.5</ele>
        <time>2019-05-10T15:12:33Z</time>
      </trkpt>
      <trkpt lat="38.88845" lon="-9.0418">
        <ele>3.5</ele>
        <time>2019-05-10T15:12:40Z</time>
      </trkpt>
      <trkpt lat="38.88839" lon="-9.04203">
        <ele>4.46</ele>
        <time>2019-05-10T15:12:56Z</time>
      </trkpt>
      <trkpt lat="38.88832" lon="-9.04226">
        <ele>4.94</ele>
        <time>2019-05-10T15:13:13Z</time>
      </trkpt>
      <trkpt lat="38.88827" lon="-9.04241">
        <ele>4.94</ele>
        <time>2019-05-10T15:13:25Z</time>
      </trkpt>
      <trkpt lat="38.88821" lon="-9.0426">
        <ele>4.94</ele>
        <time>2019-05-10T15:13:39Z</time>
      </trkpt>
      <trkpt lat="38.88813" lon="-9.04279">
        <ele>4.46</ele>
        <time>2019-05-10T15:13:54Z</time>
      </trkpt>
      <trkpt lat="38.8881" lon="-9.04288">
        <ele>4.94</ele>
        <time>2019-05-10T15:14:02Z</time>
      </trkpt>
      <trkpt lat="38.88808" lon="-9.04292">
        <ele>4.94</ele>
        <time>2019-05-10T15:14:05Z</time>
      </trkpt>
      <trkpt lat="38.88801" lon="-9.04311">
        <ele>5.91</ele>
        <time>2019-05-10T15:14:20Z</time>
      </trkpt>
      <trkpt lat="38.88794" lon="-9.0433">
        <ele>6.39</ele>
        <time>2019-05-10T15:14:34Z</time>
      </trkpt>
      <trkpt lat="38.88788" lon="-9.04351">
        <ele>6.39</ele>
        <time>2019-05-10T15:14:50Z</time>
      </trkpt>
      <trkpt lat="38.88781" lon="-9.04371">
        <ele>6.39</ele>
        <time>2019-05-10T15:15:04Z</time>
      </trkpt>
      <trkpt lat="38.88778" lon="-9.0439">
        <ele>6.39</ele>
        <time>2019-05-10T15:15:19Z</time>
      </trkpt>
      <trkpt lat="38.88777" lon="-9.04393">
        <ele>5.42</ele>
        <time>2019-05-10T15:15:21Z</time>
      </trkpt>
      <trkpt lat="38.88768" lon="-9.0442">
        <ele>5.91</ele>
        <time>2019-05-10T15:15:39Z</time>
      </trkpt>
      <trkpt lat="38.88765" lon="-9.04427">
        <ele>5.42</ele>
        <time>2019-05-10T15:15:44Z</time>
      </trkpt>
      <trkpt lat="38.88763" lon="-9.04432">
        <ele>5.42</ele>
        <time>2019-05-10T15:15:47Z</time>
      </trkpt>
      <trkpt lat="38.88762" lon="-9.04438">
        <ele>4.94</ele>
        <time>2019-05-10T15:15:51Z</time>
      </trkpt>
      <trkpt lat="38.88757" lon="-9.04461">
        <ele>4.94</ele>
        <time>2019-05-10T15:16:07Z</time>
      </trkpt>
      <trkpt lat="38.88753" lon="-9.04478">
        <ele>5.91</ele>
        <time>2019-05-10T15:16:21Z</time>
      </trkpt>
      <trkpt lat="38.88747" lon="-9.045">
        <ele>7.35</ele>
        <time>2019-05-10T15:16:36Z</time>
      </trkpt>
      <trkpt lat="38.88739" lon="-9.0452">
        <ele>6.87</ele>
        <time>2019-05-10T15:16:51Z</time>
      </trkpt>
      <trkpt lat="38.88734" lon="-9.04535">
        <ele>8.79</ele>
        <time>2019-05-10T15:17:04Z</time>
      </trkpt>
      <trkpt lat="38.8873" lon="-9.04545">
        <ele>8.79</ele>
        <time>2019-05-10T15:17:15Z</time>
      </trkpt>
      <trkpt lat="38.88728" lon="-9.04543">
        <ele>8.79</ele>
        <time>2019-05-10T15:17:39Z</time>
      </trkpt>
      <trkpt lat="38.88724" lon="-9.04545">
        <ele>9.27</ele>
        <time>2019-05-10T15:17:54Z</time>
      </trkpt>
      <trkpt lat="38.88719" lon="-9.04546">
        <ele>9.75</ele>
        <time>2019-05-10T15:17:58Z</time>
      </trkpt>
      <trkpt lat="38.88709" lon="-9.04546">
        <ele>10.23</ele>
        <time>2019-05-10T15:18:13Z</time>
      </trkpt>
      <trkpt lat="38.88702" lon="-9.04548">
        <ele>9.75</ele>
        <time>2019-05-10T15:18:30Z</time>
      </trkpt>
      <trkpt lat="38.887" lon="-9.04549">
        <ele>10.23</ele>
        <time>2019-05-10T15:18:34Z</time>
      </trkpt>
      <trkpt lat="38.88692" lon="-9.04561">
        <ele>9.75</ele>
        <time>2019-05-10T15:18:48Z</time>
      </trkpt>
      <trkpt lat="38.88692" lon="-9.04562">
        <ele>8.79</ele>
        <time>2019-05-10T15:18:49Z</time>
      </trkpt>
      <trkpt lat="38.88688" lon="-9.04577">
        <ele>10.23</ele>
        <time>2019-05-10T15:19:03Z</time>
      </trkpt>
      <trkpt lat="38.88684" lon="-9.04592">
        <ele>10.23</ele>
        <time>2019-05-10T15:19:17Z</time>
      </trkpt>
      <trkpt lat="38.88675" lon="-9.04606">
        <ele>11.19</ele>
        <time>2019-05-10T15:19:31Z</time>
      </trkpt>
      <trkpt lat="38.88672" lon="-9.04609">
        <ele>11.19</ele>
        <time>2019-05-10T15:19:36Z</time>
      </trkpt>
      <trkpt lat="38.88663" lon="-9.04623">
        <ele>11.19</ele>
        <time>2019-05-10T15:19:48Z</time>
      </trkpt>
      <trkpt lat="38.88662" lon="-9.04625">
        <ele>11.19</ele>
        <time>2019-05-10T15:19:50Z</time>
      </trkpt>
      <trkpt lat="38.88648" lon="-9.0464">
        <ele>11.19</ele>
        <time>2019-05-10T15:20:06Z</time>
      </trkpt>
      <trkpt lat="38.88635" lon="-9.04654">
        <ele>11.67</ele>
        <time>2019-05-10T15:20:21Z</time>
      </trkpt>
      <trkpt lat="38.88624" lon="-9.0467">
        <ele>11.67</ele>
        <time>2019-05-10T15:20:35Z</time>
      </trkpt>
      <trkpt lat="38.88613" lon="-9.04684">
        <ele>11.67</ele>
        <time>2019-05-10T15:20:50Z</time>
      </trkpt>
      <trkpt lat="38.88612" lon="-9.04685">
        <ele>12.15</ele>
        <time>2019-05-10T15:20:51Z</time>
      </trkpt>
      <trkpt lat="38.8861" lon="-9.04687">
        <ele>11.67</ele>
        <time>2019-05-10T15:20:53Z</time>
      </trkpt>
      <trkpt lat="38.88598" lon="-9.04703">
        <ele>11.67</ele>
        <time>2019-05-10T15:21:08Z</time>
      </trkpt>
      <trkpt lat="38.88588" lon="-9.04716">
        <ele>12.15</ele>
        <time>2019-05-10T15:21:22Z</time>
      </trkpt>
      <trkpt lat="38.88575" lon="-9.04733">
        <ele>11.67</ele>
        <time>2019-05-10T15:21:39Z</time>
      </trkpt>
      <trkpt lat="38.8857" lon="-9.0474">
        <ele>11.19</ele>
        <time>2019-05-10T15:21:53Z</time>
      </trkpt>
      <trkpt lat="38.88572" lon="-9.04741">
        <ele>11.67</ele>
        <time>2019-05-10T15:22:03Z</time>
      </trkpt>
      <trkpt lat="38.88581" lon="-9.0476">
        <ele>11.67</ele>
        <time>2019-05-10T15:22:19Z</time>
      </trkpt>
      <trkpt lat="38.88591" lon="-9.0476">
        <ele>12.63</ele>
        <time>2019-05-10T15:22:31Z</time>
      </trkpt>
      <trkpt lat="38.88596" lon="-9.04773">
        <ele>12.63</ele>
        <time>2019-05-10T15:22:40Z</time>
      </trkpt>
      <trkpt lat="38.8859" lon="-9.04788">
        <ele>12.15</ele>
        <time>2019-05-10T15:22:51Z</time>
      </trkpt>
      <trkpt lat="38.88591" lon="-9.04804">
        <ele>11.19</ele>
        <time>2019-05-10T15:23:04Z</time>
      </trkpt>
      <trkpt lat="38.88592" lon="-9.04809">
        <ele>11.19</ele>
        <time>2019-05-10T15:23:08Z</time>
      </trkpt>
      <trkpt lat="38.88596" lon="-9.04816">
        <ele>11.19</ele>
        <time>2019-05-10T15:23:14Z</time>
      </trkpt>
      <trkpt lat="38.88599" lon="-9.04819">
        <ele>11.67</ele>
        <time>2019-05-10T15:23:19Z</time>
      </trkpt>
      <trkpt lat="38.886" lon="-9.04824">
        <ele>11.67</ele>
        <time>2019-05-10T15:23:31Z</time>
      </trkpt>
      <trkpt lat="38.88602" lon="-9.04829">
        <ele>11.67</ele>
        <time>2019-05-10T15:23:45Z</time>
      </trkpt>
      <trkpt lat="38.88605" lon="-9.04818">
        <ele>11.19</ele>
        <time>2019-05-10T15:24:02Z</time>
      </trkpt>
      <trkpt lat="38.88603" lon="-9.04814">
        <ele>11.67</ele>
        <time>2019-05-10T15:24:21Z</time>
      </trkpt>
      <trkpt lat="38.88604" lon="-9.04815">
        <ele>12.15</ele>
        <time>2019-05-10T15:24:39Z</time>
      </trkpt>
      <trkpt lat="38.88604" lon="-9.04816">
        <ele>12.15</ele>
        <time>2019-05-10T15:24:56Z</time>
      </trkpt>
      <trkpt lat="38.88604" lon="-9.04816">
        <ele>11.67</ele>
        <time>2019-05-10T15:25:14Z</time>
      </trkpt>
      <trkpt lat="38.88601" lon="-9.04816">
        <ele>12.15</ele>
        <time>2019-05-10T15:25:40Z</time>
      </trkpt>
      <trkpt lat="38.88603" lon="-9.04814">
        <ele>12.63</ele>
        <time>2019-05-10T15:26:06Z</time>
      </trkpt>
      <trkpt lat="38.88604" lon="-9.04814">
        <ele>12.63</ele>
        <time>2019-05-10T15:26:07Z</time>
      </trkpt>
      <trkpt lat="38.88604" lon="-9.04812">
        <ele>12.63</ele>
        <time>2019-05-10T15:26:12Z</time>
      </trkpt>
      <trkpt lat="38.88598" lon="-9.04812">
        <ele>13.12</ele>
        <time>2019-05-10T15:26:26Z</time>
      </trkpt>
      <trkpt lat="38.88593" lon="-9.04814">
        <ele>14.08</ele>
        <time>2019-05-10T15:26:56Z</time>
      </trkpt>
      <trkpt lat="38.88594" lon="-9.04816">
        <ele>14.08</ele>
        <time>2019-05-10T15:27:28Z</time>
      </trkpt>
      <trkpt lat="38.88595" lon="-9.04815">
        <ele>14.56</ele>
        <time>2019-05-10T15:27:47Z</time>
      </trkpt>
      <trkpt lat="38.88598" lon="-9.04815">
        <ele>15.52</ele>
        <time>2019-05-10T15:28:09Z</time>
      </trkpt>
      <trkpt lat="38.886" lon="-9.04815">
        <ele>16.48</ele>
        <time>2019-05-10T15:28:21Z</time>
      </trkpt>
      <trkpt lat="38.88599" lon="-9.04821">
        <ele>16.48</ele>
        <time>2019-05-10T15:28:37Z</time>
      </trkpt>
      <trkpt lat="38.88605" lon="-9.04839">
        <ele>16.48</ele>
        <time>2019-05-10T15:28:52Z</time>
      </trkpt>
      <trkpt lat="38.88609" lon="-9.04845">
        <ele>17.44</ele>
        <time>2019-05-10T15:28:59Z</time>
      </trkpt>
      <trkpt lat="38.88619" lon="-9.04861">
        <ele>17.44</ele>
        <time>2019-05-10T15:29:14Z</time>
      </trkpt>
      <trkpt lat="38.88634" lon="-9.04877">
        <ele>17.92</ele>
        <time>2019-05-10T15:29:28Z</time>
      </trkpt>
      <trkpt lat="38.8865" lon="-9.04884">
        <ele>18.88</ele>
        <time>2019-05-10T15:29:42Z</time>
      </trkpt>
      <trkpt lat="38.88647" lon="-9.04885">
        <ele>19.36</ele>
        <time>2019-05-10T15:29:56Z</time>
      </trkpt>
      <trkpt lat="38.88643" lon="-9.04886">
        <ele>19.84</ele>
        <time>2019-05-10T15:30:17Z</time>
      </trkpt>
      <trkpt lat="38.88646" lon="-9.04882">
        <ele>19.36</ele>
        <time>2019-05-10T15:30:39Z</time>
      </trkpt>
      <trkpt lat="38.88647" lon="-9.04883">
        <ele>19.84</ele>
        <time>2019-05-10T15:31:00Z</time>
      </trkpt>
      <trkpt lat="38.88642" lon="-9.0489">
        <ele>19.84</ele>
        <time>2019-05-10T15:31:22Z</time>
      </trkpt>
      <trkpt lat="38.88644" lon="-9.04892">
        <ele>20.32</ele>
        <time>2019-05-10T15:31:43Z</time>
      </trkpt>
      <trkpt lat="38.88647" lon="-9.04894">
        <ele>20.81</ele>
        <time>2019-05-10T15:32:05Z</time>
      </trkpt>
      <trkpt lat="38.88651" lon="-9.04894">
        <ele>20.32</ele>
        <time>2019-05-10T15:32:25Z</time>
      </trkpt>
      <trkpt lat="38.88653" lon="-9.04887">
        <ele>20.81</ele>
        <time>2019-05-10T15:32:36Z</time>
      </trkpt>
      <trkpt lat="38.88651" lon="-9.04888">
        <ele>21.29</ele>
        <time>2019-05-10T15:32:51Z</time>
      </trkpt>
      <trkpt lat="38.88649" lon="-9.04885">
        <ele>21.29</ele>
        <time>2019-05-10T15:33:07Z</time>
      </trkpt>
    </trkseg>
  </trk>
</gpx>